<?xml version='1.0' encoding='UTF-8'?>
<gpx version="1.1" creator="https://www.komoot.de" xmlns="http://www.topografix.com/GPX/1/1" xmlns:xsi="http://www.w3.org/2001/XMLSchema-instance" xsi:schemaLocation="http://www.topografix.com/GPX/1/1 http://www.topografix.com/GPX/1/1/gpx.xsd">
  <metadata>
    <name>RTCN harmelen 80 km gpx</name>
    <author>
      <link href="https://www.komoot.de">
        <text>komoot</text>
        <type>text/html</type>
      </link>
    </author>
  </metadata>
  <trk>
    <name>RTCN harmelen 80 km gpx</name>
    <type>racebike</type>
    <trkseg>
      <trkpt lat="52.132664" lon="4.762868">
        <ele>-0.764528</ele>
        <time>2026-08-19T12:45:34.088Z</time>
      </trkpt>
      <trkpt lat="52.132726" lon="4.762964">
        <ele>-0.764528</ele>
        <time>2026-08-19T12:45:35.789Z</time>
      </trkpt>
      <trkpt lat="52.132814" lon="4.763143">
        <ele>-0.764528</ele>
        <time>2026-08-19T12:45:38.549Z</time>
      </trkpt>
      <trkpt lat="52.132968" lon="4.763456">
        <ele>-0.764528</ele>
        <time>2026-08-19T12:45:43.303Z</time>
      </trkpt>
      <trkpt lat="52.133001" lon="4.763528">
        <ele>-0.764528</ele>
        <time>2026-08-19T12:45:44.435Z</time>
      </trkpt>
      <trkpt lat="52.133199" lon="4.763873">
        <ele>-0.764528</ele>
        <time>2026-08-19T12:45:50.138Z</time>
      </trkpt>
      <trkpt lat="52.133226" lon="4.763918">
        <ele>-0.764528</ele>
        <time>2026-08-19T12:45:50.894Z</time>
      </trkpt>
      <trkpt lat="52.133456" lon="4.764302">
        <ele>-0.785815</ele>
        <time>2026-08-19T12:45:57.441Z</time>
      </trkpt>
      <trkpt lat="52.133537" lon="4.764438">
        <ele>-0.794464</ele>
        <time>2026-08-19T12:45:59.763Z</time>
      </trkpt>
      <trkpt lat="52.133659" lon="4.764591">
        <ele>-0.805913</ele>
        <time>2026-08-19T12:46:02.867Z</time>
      </trkpt>
      <trkpt lat="52.134311" lon="4.765224">
        <ele>-0.862355</ele>
        <time>2026-08-19T12:46:17.959Z</time>
      </trkpt>
      <trkpt lat="52.134794" lon="4.765634">
        <ele>-0.903778</ele>
        <time>2026-08-19T12:46:28.936Z</time>
      </trkpt>
      <trkpt lat="52.134871" lon="4.765699">
        <ele>-0.911528</ele>
        <time>2026-08-19T12:46:30.676Z</time>
      </trkpt>
      <trkpt lat="52.134905" lon="4.765728">
        <ele>-0.914958</ele>
        <time>2026-08-19T12:46:31.461Z</time>
      </trkpt>
      <trkpt lat="52.135289" lon="4.765926">
        <ele>-0.950951</ele>
        <time>2026-08-19T12:46:39.478Z</time>
      </trkpt>
      <trkpt lat="52.135842" lon="4.766196">
        <ele>-1.002541</ele>
        <time>2026-08-19T12:46:50.950Z</time>
      </trkpt>
      <trkpt lat="52.136032" lon="4.766290">
        <ele>-1.020286</ele>
        <time>2026-08-19T12:46:54.964Z</time>
      </trkpt>
      <trkpt lat="52.136241" lon="4.766402">
        <ele>-1.039947</ele>
        <time>2026-08-19T12:46:59.408Z</time>
      </trkpt>
      <trkpt lat="52.136380" lon="4.766475">
        <ele>-1.052998</ele>
        <time>2026-08-19T12:47:02.324Z</time>
      </trkpt>
      <trkpt lat="52.136592" lon="4.766588">
        <ele>-1.103391</ele>
        <time>2026-08-19T12:47:06.633Z</time>
      </trkpt>
      <trkpt lat="52.136639" lon="4.766611">
        <ele>-1.117375</ele>
        <time>2026-08-19T12:47:07.586Z</time>
      </trkpt>
      <trkpt lat="52.136838" lon="4.766707">
        <ele>-1.176517</ele>
        <time>2026-08-19T12:47:11.586Z</time>
      </trkpt>
      <trkpt lat="52.137017" lon="4.766794">
        <ele>-1.229747</ele>
        <time>2026-08-19T12:47:15.187Z</time>
      </trkpt>
      <trkpt lat="52.137027" lon="4.766800">
        <ele>-1.232784</ele>
        <time>2026-08-19T12:47:15.395Z</time>
      </trkpt>
      <trkpt lat="52.137180" lon="4.766877">
        <ele>-1.278416</ele>
        <time>2026-08-19T12:47:18.512Z</time>
      </trkpt>
      <trkpt lat="52.137249" lon="4.766911">
        <ele>-1.298959</ele>
        <time>2026-08-19T12:47:19.892Z</time>
      </trkpt>
      <trkpt lat="52.137395" lon="4.766985">
        <ele>-1.342530</ele>
        <time>2026-08-19T12:47:22.760Z</time>
      </trkpt>
      <trkpt lat="52.137492" lon="4.767033">
        <ele>-1.371419</ele>
        <time>2026-08-19T12:47:24.631Z</time>
      </trkpt>
      <trkpt lat="52.137619" lon="4.767097">
        <ele>-1.409301</ele>
        <time>2026-08-19T12:47:27.083Z</time>
      </trkpt>
      <trkpt lat="52.137697" lon="4.767136">
        <ele>-1.432551</ele>
        <time>2026-08-19T12:47:28.578Z</time>
      </trkpt>
      <trkpt lat="52.138196" lon="4.767383">
        <ele>-1.571172</ele>
        <time>2026-08-19T12:47:38.403Z</time>
      </trkpt>
      <trkpt lat="52.138605" lon="4.767595">
        <ele>-1.566132</ele>
        <time>2026-08-19T12:47:46.785Z</time>
      </trkpt>
      <trkpt lat="52.139087" lon="4.767849">
        <ele>-1.560184</ele>
        <time>2026-08-19T12:47:57.194Z</time>
      </trkpt>
      <trkpt lat="52.139183" lon="4.767905">
        <ele>-1.558986</ele>
        <time>2026-08-19T12:47:59.248Z</time>
      </trkpt>
      <trkpt lat="52.139325" lon="4.767986">
        <ele>-1.557220</ele>
        <time>2026-08-19T12:48:02.261Z</time>
      </trkpt>
      <trkpt lat="52.139504" lon="4.768092">
        <ele>-1.554983</ele>
        <time>2026-08-19T12:48:06.129Z</time>
      </trkpt>
      <trkpt lat="52.139841" lon="4.768296">
        <ele>-1.550762</ele>
        <time>2026-08-19T12:48:13.990Z</time>
      </trkpt>
      <trkpt lat="52.140168" lon="4.768555">
        <ele>-1.484782</ele>
        <time>2026-08-19T12:48:21.796Z</time>
      </trkpt>
      <trkpt lat="52.140409" lon="4.768805">
        <ele>-1.429078</ele>
        <time>2026-08-19T12:48:27.787Z</time>
      </trkpt>
      <trkpt lat="52.140748" lon="4.769156">
        <ele>-1.350766</ele>
        <time>2026-08-19T12:48:36.046Z</time>
      </trkpt>
      <trkpt lat="52.140865" lon="4.769284">
        <ele>-1.323289</ele>
        <time>2026-08-19T12:48:38.970Z</time>
      </trkpt>
      <trkpt lat="52.141382" lon="4.769843">
        <ele>-1.202314</ele>
        <time>2026-08-19T12:48:52.107Z</time>
      </trkpt>
      <trkpt lat="52.141906" lon="4.770411">
        <ele>-1.144367</ele>
        <time>2026-08-19T12:49:05.157Z</time>
      </trkpt>
      <trkpt lat="52.142087" lon="4.770607">
        <ele>-1.124833</ele>
        <time>2026-08-19T12:49:09.622Z</time>
      </trkpt>
      <trkpt lat="52.143000" lon="4.771604">
        <ele>-1.046762</ele>
        <time>2026-08-19T12:49:32.100Z</time>
      </trkpt>
      <trkpt lat="52.143098" lon="4.771706">
        <ele>-1.054290</ele>
        <time>2026-08-19T12:49:34.414Z</time>
      </trkpt>
      <trkpt lat="52.143991" lon="4.772627">
        <ele>-1.122705</ele>
        <time>2026-08-19T12:49:55.579Z</time>
      </trkpt>
      <trkpt lat="52.144553" lon="4.773200">
        <ele>-1.188359</ele>
        <time>2026-08-19T12:50:08.492Z</time>
      </trkpt>
      <trkpt lat="52.145034" lon="4.773719">
        <ele>-1.302226</ele>
        <time>2026-08-19T12:50:20.050Z</time>
      </trkpt>
      <trkpt lat="52.145122" lon="4.773814">
        <ele>-1.323061</ele>
        <time>2026-08-19T12:50:22.182Z</time>
      </trkpt>
      <trkpt lat="52.145210" lon="4.773910">
        <ele>-1.343963</ele>
        <time>2026-08-19T12:50:24.317Z</time>
      </trkpt>
      <trkpt lat="52.145493" lon="4.774211">
        <ele>-1.410667</ele>
        <time>2026-08-19T12:50:31.099Z</time>
      </trkpt>
      <trkpt lat="52.145901" lon="4.774621">
        <ele>-1.505280</ele>
        <time>2026-08-19T12:50:40.247Z</time>
      </trkpt>
      <trkpt lat="52.146166" lon="4.774880">
        <ele>-1.789160</ele>
        <time>2026-08-19T12:50:45.974Z</time>
      </trkpt>
      <trkpt lat="52.146296" lon="4.774848">
        <ele>-1.917068</ele>
        <time>2026-08-19T12:50:48.379Z</time>
      </trkpt>
      <trkpt lat="52.146325" lon="4.774809">
        <ele>-1.953648</ele>
        <time>2026-08-19T12:50:49.072Z</time>
      </trkpt>
      <trkpt lat="52.146628" lon="4.774234">
        <ele>-2.406124</ele>
        <time>2026-08-19T12:50:57.164Z</time>
      </trkpt>
      <trkpt lat="52.146825" lon="4.773908">
        <ele>-2.679272</ele>
        <time>2026-08-19T12:51:00.457Z</time>
      </trkpt>
      <trkpt lat="52.147079" lon="4.773652">
        <ele>-2.969824</ele>
        <time>2026-08-19T12:51:03.922Z</time>
      </trkpt>
      <trkpt lat="52.147162" lon="4.773595">
        <ele>-3.057450</ele>
        <time>2026-08-19T12:51:04.963Z</time>
      </trkpt>
      <trkpt lat="52.147644" lon="4.773278">
        <ele>-3.388722</ele>
        <time>2026-08-19T12:51:11.012Z</time>
      </trkpt>
      <trkpt lat="52.147799" lon="4.773179">
        <ele>-3.457684</ele>
        <time>2026-08-19T12:51:13.104Z</time>
      </trkpt>
      <trkpt lat="52.147863" lon="4.773137">
        <ele>-3.486264</ele>
        <time>2026-08-19T12:51:13.998Z</time>
      </trkpt>
      <trkpt lat="52.148058" lon="4.773015">
        <ele>-3.572789</ele>
        <time>2026-08-19T12:51:16.733Z</time>
      </trkpt>
      <trkpt lat="52.148075" lon="4.773004">
        <ele>-3.580366</ele>
        <time>2026-08-19T12:51:16.976Z</time>
      </trkpt>
      <trkpt lat="52.148257" lon="4.772896">
        <ele>-3.660600</ele>
        <time>2026-08-19T12:51:19.632Z</time>
      </trkpt>
      <trkpt lat="52.148394" lon="4.772859">
        <ele>-3.718125</ele>
        <time>2026-08-19T12:51:22.340Z</time>
      </trkpt>
      <trkpt lat="52.148439" lon="4.772839">
        <ele>-3.737446</ele>
        <time>2026-08-19T12:51:23.257Z</time>
      </trkpt>
      <trkpt lat="52.148483" lon="4.772903">
        <ele>-3.761877</ele>
        <time>2026-08-19T12:51:24.145Z</time>
      </trkpt>
      <trkpt lat="52.148541" lon="4.772914">
        <ele>-3.786065</ele>
        <time>2026-08-19T12:51:25.131Z</time>
      </trkpt>
      <trkpt lat="52.148555" lon="4.772964">
        <ele>-3.800035</ele>
        <time>2026-08-19T12:51:25.614Z</time>
      </trkpt>
      <trkpt lat="52.148637" lon="4.773205">
        <ele>-3.870080</ele>
        <time>2026-08-19T12:51:28.339Z</time>
      </trkpt>
      <trkpt lat="52.148842" lon="4.774047">
        <ele>-3.924840</ele>
        <time>2026-08-19T12:51:37.040Z</time>
      </trkpt>
      <trkpt lat="52.148873" lon="4.774176">
        <ele>-3.895590</ele>
        <time>2026-08-19T12:51:38.214Z</time>
      </trkpt>
      <trkpt lat="52.148947" lon="4.774468">
        <ele>-3.828889</ele>
        <time>2026-08-19T12:51:41.463Z</time>
      </trkpt>
      <trkpt lat="52.148959" lon="4.774520">
        <ele>-3.817159</ele>
        <time>2026-08-19T12:51:42.088Z</time>
      </trkpt>
      <trkpt lat="52.149054" lon="4.774921">
        <ele>-3.726405</ele>
        <time>2026-08-19T12:51:46.773Z</time>
      </trkpt>
      <trkpt lat="52.149087" lon="4.775063">
        <ele>-3.694347</ele>
        <time>2026-08-19T12:51:48.301Z</time>
      </trkpt>
      <trkpt lat="52.149134" lon="4.775262">
        <ele>-3.649327</ele>
        <time>2026-08-19T12:51:50.475Z</time>
      </trkpt>
      <trkpt lat="52.149195" lon="4.775507">
        <ele>-3.593505</ele>
        <time>2026-08-19T12:51:53.084Z</time>
      </trkpt>
      <trkpt lat="52.149239" lon="4.775684">
        <ele>-3.553185</ele>
        <time>2026-08-19T12:51:54.977Z</time>
      </trkpt>
      <trkpt lat="52.149264" lon="4.775786">
        <ele>-3.529995</ele>
        <time>2026-08-19T12:51:55.972Z</time>
      </trkpt>
      <trkpt lat="52.149303" lon="4.775941">
        <ele>-3.494626</ele>
        <time>2026-08-19T12:51:57.718Z</time>
      </trkpt>
      <trkpt lat="52.149368" lon="4.776189">
        <ele>-3.437689</ele>
        <time>2026-08-19T12:52:00.328Z</time>
      </trkpt>
      <trkpt lat="52.149450" lon="4.776394">
        <ele>-3.386024</ele>
        <time>2026-08-19T12:52:02.612Z</time>
      </trkpt>
      <trkpt lat="52.149721" lon="4.776629">
        <ele>-3.295047</ele>
        <time>2026-08-19T12:52:07.305Z</time>
      </trkpt>
      <trkpt lat="52.149775" lon="4.776670">
        <ele>-3.277403</ele>
        <time>2026-08-19T12:52:08.179Z</time>
      </trkpt>
      <trkpt lat="52.150291" lon="4.777057">
        <ele>-3.109172</ele>
        <time>2026-08-19T12:52:17.872Z</time>
      </trkpt>
      <trkpt lat="52.150394" lon="4.777173">
        <ele>-3.072091</ele>
        <time>2026-08-19T12:52:19.868Z</time>
      </trkpt>
      <trkpt lat="52.150417" lon="4.777204">
        <ele>-3.063252</ele>
        <time>2026-08-19T12:52:20.332Z</time>
      </trkpt>
      <trkpt lat="52.150494" lon="4.777314">
        <ele>-3.032925</ele>
        <time>2026-08-19T12:52:21.862Z</time>
      </trkpt>
      <trkpt lat="52.150712" lon="4.777639">
        <ele>-2.945421</ele>
        <time>2026-08-19T12:52:26.396Z</time>
      </trkpt>
      <trkpt lat="52.150777" lon="4.777737">
        <ele>-2.919196</ele>
        <time>2026-08-19T12:52:27.839Z</time>
      </trkpt>
      <trkpt lat="52.151088" lon="4.778184">
        <ele>-2.824022</ele>
        <time>2026-08-19T12:52:34.455Z</time>
      </trkpt>
      <trkpt lat="52.151146" lon="4.778271">
        <ele>-2.812095</ele>
        <time>2026-08-19T12:52:35.715Z</time>
      </trkpt>
      <trkpt lat="52.151386" lon="4.778632">
        <ele>-2.762680</ele>
        <time>2026-08-19T12:52:40.854Z</time>
      </trkpt>
      <trkpt lat="52.151718" lon="4.779146">
        <ele>-2.693395</ele>
        <time>2026-08-19T12:52:48.016Z</time>
      </trkpt>
      <trkpt lat="52.151969" lon="4.779519">
        <ele>-2.642001</ele>
        <time>2026-08-19T12:52:53.164Z</time>
      </trkpt>
      <trkpt lat="52.152140" lon="4.779860">
        <ele>-2.601116</ele>
        <time>2026-08-19T12:52:57.229Z</time>
      </trkpt>
      <trkpt lat="52.152889" lon="4.781855">
        <ele>-2.297891</ele>
        <time>2026-08-19T12:53:18.849Z</time>
      </trkpt>
      <trkpt lat="52.153266" lon="4.782862">
        <ele>-2.067614</ele>
        <time>2026-08-19T12:53:30.941Z</time>
      </trkpt>
      <trkpt lat="52.153445" lon="4.783544">
        <ele>-1.821625</ele>
        <time>2026-08-19T12:53:39.142Z</time>
      </trkpt>
      <trkpt lat="52.153487" lon="4.783749">
        <ele>-1.749953</ele>
        <time>2026-08-19T12:53:41.522Z</time>
      </trkpt>
      <trkpt lat="52.153503" lon="4.783820">
        <ele>-1.724870</ele>
        <time>2026-08-19T12:53:42.569Z</time>
      </trkpt>
      <trkpt lat="52.153287" lon="4.783953">
        <ele>-1.600070</ele>
        <time>2026-08-19T12:53:47.935Z</time>
      </trkpt>
      <trkpt lat="52.153203" lon="4.784152">
        <ele>-1.519968</ele>
        <time>2026-08-19T12:53:51.281Z</time>
      </trkpt>
      <trkpt lat="52.153206" lon="4.784287">
        <ele>-1.475170</ele>
        <time>2026-08-19T12:53:53.096Z</time>
      </trkpt>
      <trkpt lat="52.153507" lon="4.784930">
        <ele>-1.215198</ele>
        <time>2026-08-19T12:54:04.156Z</time>
      </trkpt>
      <trkpt lat="52.154264" lon="4.786436">
        <ele>-1.081052</ele>
        <time>2026-08-19T12:54:28.677Z</time>
      </trkpt>
      <trkpt lat="52.154466" lon="4.786838">
        <ele>-1.045250</ele>
        <time>2026-08-19T12:54:35.180Z</time>
      </trkpt>
      <trkpt lat="52.154535" lon="4.787043">
        <ele>-1.029139</ele>
        <time>2026-08-19T12:54:38.105Z</time>
      </trkpt>
      <trkpt lat="52.154790" lon="4.787747">
        <ele>-1.080794</ele>
        <time>2026-08-19T12:54:48.157Z</time>
      </trkpt>
      <trkpt lat="52.154857" lon="4.787821">
        <ele>-1.094769</ele>
        <time>2026-08-19T12:54:49.755Z</time>
      </trkpt>
      <trkpt lat="52.155047" lon="4.788415">
        <ele>-1.165734</ele>
        <time>2026-08-19T12:54:57.752Z</time>
      </trkpt>
      <trkpt lat="52.155784" lon="4.790725">
        <ele>-1.316433</ele>
        <time>2026-08-19T12:55:28.623Z</time>
      </trkpt>
      <trkpt lat="52.156479" lon="4.793111">
        <ele>-1.318758</ele>
        <time>2026-08-19T12:56:02.583Z</time>
      </trkpt>
      <trkpt lat="52.156605" lon="4.793550">
        <ele>-1.329858</ele>
        <time>2026-08-19T12:56:08.547Z</time>
      </trkpt>
      <trkpt lat="52.156936" lon="4.794703">
        <ele>-1.359012</ele>
        <time>2026-08-19T12:56:23.798Z</time>
      </trkpt>
      <trkpt lat="52.157355" lon="4.796170">
        <ele>-1.361905</ele>
        <time>2026-08-19T12:56:43.740Z</time>
      </trkpt>
      <trkpt lat="52.157830" lon="4.797868">
        <ele>-1.364100</ele>
        <time>2026-08-19T12:57:00.950Z</time>
      </trkpt>
      <trkpt lat="52.158075" lon="4.798610">
        <ele>-1.410349</ele>
        <time>2026-08-19T12:57:08.472Z</time>
      </trkpt>
      <trkpt lat="52.158197" lon="4.799199">
        <ele>-1.444470</ele>
        <time>2026-08-19T12:57:13.945Z</time>
      </trkpt>
      <trkpt lat="52.158701" lon="4.801008">
        <ele>-1.504855</ele>
        <time>2026-08-19T12:57:31.453Z</time>
      </trkpt>
      <trkpt lat="52.159239" lon="4.802843">
        <ele>-1.474852</ele>
        <time>2026-08-19T12:57:50.203Z</time>
      </trkpt>
      <trkpt lat="52.159309" lon="4.803090">
        <ele>-1.465350</ele>
        <time>2026-08-19T12:57:52.752Z</time>
      </trkpt>
      <trkpt lat="52.159503" lon="4.803778">
        <ele>-1.397049</ele>
        <time>2026-08-19T12:57:59.876Z</time>
      </trkpt>
      <trkpt lat="52.160011" lon="4.805587">
        <ele>-1.217591</ele>
        <time>2026-08-19T12:58:18.715Z</time>
      </trkpt>
      <trkpt lat="52.160480" lon="4.807187">
        <ele>-1.054809</ele>
        <time>2026-08-19T12:58:35.556Z</time>
      </trkpt>
      <trkpt lat="52.160533" lon="4.807373">
        <ele>-1.035961</ele>
        <time>2026-08-19T12:58:37.491Z</time>
      </trkpt>
      <trkpt lat="52.160558" lon="4.807479">
        <ele>-1.025524</ele>
        <time>2026-08-19T12:58:38.567Z</time>
      </trkpt>
      <trkpt lat="52.160532" lon="4.807614">
        <ele>-1.012519</ele>
        <time>2026-08-19T12:58:39.890Z</time>
      </trkpt>
      <trkpt lat="52.161476" lon="4.810932">
        <ele>-0.733997</ele>
        <time>2026-08-19T12:59:14.332Z</time>
      </trkpt>
      <trkpt lat="52.161774" lon="4.812112">
        <ele>-0.770917</ele>
        <time>2026-08-19T12:59:25.899Z</time>
      </trkpt>
      <trkpt lat="52.162254" lon="4.814108">
        <ele>-0.838492</ele>
        <time>2026-08-19T12:59:44.944Z</time>
      </trkpt>
      <trkpt lat="52.162664" lon="4.815808">
        <ele>-0.859312</ele>
        <time>2026-08-19T13:00:01.667Z</time>
      </trkpt>
      <trkpt lat="52.163535" lon="4.819429">
        <ele>-1.082724</ele>
        <time>2026-08-19T13:00:35.890Z</time>
      </trkpt>
      <trkpt lat="52.163547" lon="4.819475">
        <ele>-1.083242</ele>
        <time>2026-08-19T13:00:36.320Z</time>
      </trkpt>
      <trkpt lat="52.163827" lon="4.820597">
        <ele>-1.095792</ele>
        <time>2026-08-19T13:00:47.026Z</time>
      </trkpt>
      <trkpt lat="52.163946" lon="4.821500">
        <ele>-1.105362</ele>
        <time>2026-08-19T13:00:55.462Z</time>
      </trkpt>
      <trkpt lat="52.164085" lon="4.823041">
        <ele>-0.949915</ele>
        <time>2026-08-19T13:01:10.300Z</time>
      </trkpt>
      <trkpt lat="52.164109" lon="4.823316">
        <ele>-0.908011</ele>
        <time>2026-08-19T13:01:13.260Z</time>
      </trkpt>
      <trkpt lat="52.164116" lon="4.823434">
        <ele>-0.890127</ele>
        <time>2026-08-19T13:01:14.573Z</time>
      </trkpt>
      <trkpt lat="52.164174" lon="4.824277">
        <ele>-0.762158</ele>
        <time>2026-08-19T13:01:22.955Z</time>
      </trkpt>
      <trkpt lat="52.164217" lon="4.824908">
        <ele>-0.669461</ele>
        <time>2026-08-19T13:01:29.024Z</time>
      </trkpt>
      <trkpt lat="52.164226" lon="4.825076">
        <ele>-0.688976</ele>
        <time>2026-08-19T13:01:31.137Z</time>
      </trkpt>
      <trkpt lat="52.164250" lon="4.825355">
        <ele>-0.721577</ele>
        <time>2026-08-19T13:01:34.749Z</time>
      </trkpt>
      <trkpt lat="52.164269" lon="4.825594">
        <ele>-0.749465</ele>
        <time>2026-08-19T13:01:37.763Z</time>
      </trkpt>
      <trkpt lat="52.164288" lon="4.825821">
        <ele>-0.775977</ele>
        <time>2026-08-19T13:01:40.573Z</time>
      </trkpt>
      <trkpt lat="52.164305" lon="4.825998">
        <ele>-0.796709</ele>
        <time>2026-08-19T13:01:42.752Z</time>
      </trkpt>
      <trkpt lat="52.164338" lon="4.826394">
        <ele>-0.842954</ele>
        <time>2026-08-19T13:01:47.616Z</time>
      </trkpt>
      <trkpt lat="52.164344" lon="4.826456">
        <ele>-0.850218</ele>
        <time>2026-08-19T13:01:48.312Z</time>
      </trkpt>
      <trkpt lat="52.164443" lon="4.827687">
        <ele>-0.993887</ele>
        <time>2026-08-19T13:01:58.273Z</time>
      </trkpt>
      <trkpt lat="52.164494" lon="4.828288">
        <ele>-1.032938</ele>
        <time>2026-08-19T13:02:03.672Z</time>
      </trkpt>
      <trkpt lat="52.164640" lon="4.830006">
        <ele>-1.123259</ele>
        <time>2026-08-19T13:02:19.232Z</time>
      </trkpt>
      <trkpt lat="52.164654" lon="4.830161">
        <ele>-1.131418</ele>
        <time>2026-08-19T13:02:20.725Z</time>
      </trkpt>
      <trkpt lat="52.164660" lon="4.830230">
        <ele>-1.135048</ele>
        <time>2026-08-19T13:02:21.388Z</time>
      </trkpt>
      <trkpt lat="52.164810" lon="4.832104">
        <ele>-1.151975</ele>
        <time>2026-08-19T13:02:38.939Z</time>
      </trkpt>
      <trkpt lat="52.164837" lon="4.832656">
        <ele>-1.148762</ele>
        <time>2026-08-19T13:02:43.863Z</time>
      </trkpt>
      <trkpt lat="52.164973" lon="4.834018">
        <ele>-1.106062</ele>
        <time>2026-08-19T13:02:56.164Z</time>
      </trkpt>
      <trkpt lat="52.165077" lon="4.835164">
        <ele>-1.001159</ele>
        <time>2026-08-19T13:03:06.959Z</time>
      </trkpt>
      <trkpt lat="52.165226" lon="4.837550">
        <ele>-0.843472</ele>
        <time>2026-08-19T13:03:30.191Z</time>
      </trkpt>
      <trkpt lat="52.165330" lon="4.838589">
        <ele>-0.808719</ele>
        <time>2026-08-19T13:03:39.788Z</time>
      </trkpt>
      <trkpt lat="52.165398" lon="4.839382">
        <ele>-0.782285</ele>
        <time>2026-08-19T13:03:46.862Z</time>
      </trkpt>
      <trkpt lat="52.165561" lon="4.841862">
        <ele>-0.878788</ele>
        <time>2026-08-19T13:04:08.994Z</time>
      </trkpt>
      <trkpt lat="52.165667" lon="4.843196">
        <ele>-0.992147</ele>
        <time>2026-08-19T13:04:21.296Z</time>
      </trkpt>
      <trkpt lat="52.165769" lon="4.844503">
        <ele>-1.135865</ele>
        <time>2026-08-19T13:04:33.028Z</time>
      </trkpt>
      <trkpt lat="52.165807" lon="4.845055">
        <ele>-1.196456</ele>
        <time>2026-08-19T13:04:37.672Z</time>
      </trkpt>
      <trkpt lat="52.165824" lon="4.845274">
        <ele>-1.223310</ele>
        <time>2026-08-19T13:04:39.488Z</time>
      </trkpt>
      <trkpt lat="52.166013" lon="4.847611">
        <ele>-1.759855</ele>
        <time>2026-08-19T13:04:58.544Z</time>
      </trkpt>
      <trkpt lat="52.166188" lon="4.850094">
        <ele>-1.816416</ele>
        <time>2026-08-19T13:05:21.052Z</time>
      </trkpt>
      <trkpt lat="52.166299" lon="4.851255">
        <ele>-1.750939</ele>
        <time>2026-08-19T13:05:32.678Z</time>
      </trkpt>
      <trkpt lat="52.166483" lon="4.851190">
        <ele>-1.701608</ele>
        <time>2026-08-19T13:05:35.770Z</time>
      </trkpt>
      <trkpt lat="52.166602" lon="4.851712">
        <ele>-1.612106</ele>
        <time>2026-08-19T13:05:43.273Z</time>
      </trkpt>
      <trkpt lat="52.166522" lon="4.851773">
        <ele>-1.588964</ele>
        <time>2026-08-19T13:05:45.205Z</time>
      </trkpt>
      <trkpt lat="52.166481" lon="4.851779">
        <ele>-1.578178</ele>
        <time>2026-08-19T13:05:46.123Z</time>
      </trkpt>
      <trkpt lat="52.166413" lon="4.851868">
        <ele>-1.555329</ele>
        <time>2026-08-19T13:05:48.010Z</time>
      </trkpt>
      <trkpt lat="52.166346" lon="4.852071">
        <ele>-1.518280</ele>
        <time>2026-08-19T13:05:51.088Z</time>
      </trkpt>
      <trkpt lat="52.165912" lon="4.853005">
        <ele>-1.329956</ele>
        <time>2026-08-19T13:06:06.195Z</time>
      </trkpt>
      <trkpt lat="52.165541" lon="4.853636">
        <ele>-1.445129</ele>
        <time>2026-08-19T13:06:16.678Z</time>
      </trkpt>
      <trkpt lat="52.165305" lon="4.853916">
        <ele>-1.530573</ele>
        <time>2026-08-19T13:06:22.195Z</time>
      </trkpt>
      <trkpt lat="52.164919" lon="4.854067">
        <ele>-1.646776</ele>
        <time>2026-08-19T13:06:29.560Z</time>
      </trkpt>
      <trkpt lat="52.163865" lon="4.854381">
        <ele>-1.891476</ele>
        <time>2026-08-19T13:06:49.875Z</time>
      </trkpt>
      <trkpt lat="52.163647" lon="4.854447">
        <ele>-1.920195</ele>
        <time>2026-08-19T13:06:54.211Z</time>
      </trkpt>
      <trkpt lat="52.163406" lon="4.854520">
        <ele>-1.951945</ele>
        <time>2026-08-19T13:06:59.056Z</time>
      </trkpt>
      <trkpt lat="52.162508" lon="4.854794">
        <ele>-2.069197</ele>
        <time>2026-08-19T13:07:17.580Z</time>
      </trkpt>
      <trkpt lat="52.161819" lon="4.855004">
        <ele>-1.983127</ele>
        <time>2026-08-19T13:07:32.123Z</time>
      </trkpt>
      <trkpt lat="52.161628" lon="4.855062">
        <ele>-1.959270</ele>
        <time>2026-08-19T13:07:36.177Z</time>
      </trkpt>
      <trkpt lat="52.160764" lon="4.855321">
        <ele>-1.851398</ele>
        <time>2026-08-19T13:07:54.569Z</time>
      </trkpt>
      <trkpt lat="52.156014" lon="4.856775">
        <ele>-1.706220</ele>
        <time>2026-08-19T13:09:32.386Z</time>
      </trkpt>
      <trkpt lat="52.155903" lon="4.856808">
        <ele>-1.697511</ele>
        <time>2026-08-19T13:09:34.730Z</time>
      </trkpt>
      <trkpt lat="52.155461" lon="4.856976">
        <ele>-1.662483</ele>
        <time>2026-08-19T13:09:44.272Z</time>
      </trkpt>
      <trkpt lat="52.155328" lon="4.857056">
        <ele>-1.632821</ele>
        <time>2026-08-19T13:09:47.269Z</time>
      </trkpt>
      <trkpt lat="52.155251" lon="4.857142">
        <ele>-1.611627</ele>
        <time>2026-08-19T13:09:49.268Z</time>
      </trkpt>
      <trkpt lat="52.155225" lon="4.857243">
        <ele>-1.596370</ele>
        <time>2026-08-19T13:09:50.687Z</time>
      </trkpt>
      <trkpt lat="52.155199" lon="4.857877">
        <ele>-1.507856</ele>
        <time>2026-08-19T13:09:59.008Z</time>
      </trkpt>
      <trkpt lat="52.155029" lon="4.858748">
        <ele>-1.380533</ele>
        <time>2026-08-19T13:10:11.008Z</time>
      </trkpt>
      <trkpt lat="52.154840" lon="4.860051">
        <ele>-1.252310</ele>
        <time>2026-08-19T13:10:28.204Z</time>
      </trkpt>
      <trkpt lat="52.154647" lon="4.861851">
        <ele>-1.250184</ele>
        <time>2026-08-19T13:10:50.651Z</time>
      </trkpt>
      <trkpt lat="52.154488" lon="4.863220">
        <ele>-1.233238</ele>
        <time>2026-08-19T13:11:07.754Z</time>
      </trkpt>
      <trkpt lat="52.154261" lon="4.863812">
        <ele>-1.217378</ele>
        <time>2026-08-19T13:11:16.450Z</time>
      </trkpt>
      <trkpt lat="52.154132" lon="4.864209">
        <ele>-1.207171</ele>
        <time>2026-08-19T13:11:20.616Z</time>
      </trkpt>
      <trkpt lat="52.154103" lon="4.864354">
        <ele>-1.203706</ele>
        <time>2026-08-19T13:11:22.537Z</time>
      </trkpt>
      <trkpt lat="52.154090" lon="4.864467">
        <ele>-1.201094</ele>
        <time>2026-08-19T13:11:23.978Z</time>
      </trkpt>
      <trkpt lat="52.154083" lon="4.864539">
        <ele>-1.199438</ele>
        <time>2026-08-19T13:11:24.653Z</time>
      </trkpt>
      <trkpt lat="52.154071" lon="4.864809">
        <ele>-1.193287</ele>
        <time>2026-08-19T13:11:27.171Z</time>
      </trkpt>
      <trkpt lat="52.154124" lon="4.865235">
        <ele>-1.183411</ele>
        <time>2026-08-19T13:11:31.230Z</time>
      </trkpt>
      <trkpt lat="52.154333" lon="4.865891">
        <ele>-1.261034</ele>
        <time>2026-08-19T13:11:38.144Z</time>
      </trkpt>
      <trkpt lat="52.154676" lon="4.867032">
        <ele>-1.400747</ele>
        <time>2026-08-19T13:11:49.142Z</time>
      </trkpt>
      <trkpt lat="52.155153" lon="4.868758">
        <ele>-1.638725</ele>
        <time>2026-08-19T13:12:04.863Z</time>
      </trkpt>
      <trkpt lat="52.155329" lon="4.868997">
        <ele>-1.691583</ele>
        <time>2026-08-19T13:12:08.036Z</time>
      </trkpt>
      <trkpt lat="52.155530" lon="4.869748">
        <ele>-1.807574</ele>
        <time>2026-08-19T13:12:15.221Z</time>
      </trkpt>
      <trkpt lat="52.155621" lon="4.869974">
        <ele>-1.845842</ele>
        <time>2026-08-19T13:12:17.615Z</time>
      </trkpt>
      <trkpt lat="52.155651" lon="4.870072">
        <ele>-1.861347</ele>
        <time>2026-08-19T13:12:18.939Z</time>
      </trkpt>
      <trkpt lat="52.155696" lon="4.870437">
        <ele>-1.914050</ele>
        <time>2026-08-19T13:12:22.231Z</time>
      </trkpt>
      <trkpt lat="52.155942" lon="4.871316">
        <ele>-1.876002</ele>
        <time>2026-08-19T13:12:30.861Z</time>
      </trkpt>
      <trkpt lat="52.156176" lon="4.872151">
        <ele>-1.832082</ele>
        <time>2026-08-19T13:12:39.353Z</time>
      </trkpt>
      <trkpt lat="52.158014" lon="4.878772">
        <ele>-1.159053</ele>
        <time>2026-08-19T13:13:48.642Z</time>
      </trkpt>
      <trkpt lat="52.158080" lon="4.879132">
        <ele>-1.158630</ele>
        <time>2026-08-19T13:13:52.209Z</time>
      </trkpt>
      <trkpt lat="52.158163" lon="4.879425">
        <ele>-1.158267</ele>
        <time>2026-08-19T13:13:56.296Z</time>
      </trkpt>
      <trkpt lat="52.158332" lon="4.880025">
        <ele>-1.157524</ele>
        <time>2026-08-19T13:14:04.526Z</time>
      </trkpt>
      <trkpt lat="52.158438" lon="4.880404">
        <ele>-1.157056</ele>
        <time>2026-08-19T13:14:09.668Z</time>
      </trkpt>
      <trkpt lat="52.158572" lon="4.880792">
        <ele>-1.156555</ele>
        <time>2026-08-19T13:14:15.059Z</time>
      </trkpt>
      <trkpt lat="52.159120" lon="4.882707">
        <ele>-1.199136</ele>
        <time>2026-08-19T13:14:40.419Z</time>
      </trkpt>
      <trkpt lat="52.159439" lon="4.883826">
        <ele>-1.229896</ele>
        <time>2026-08-19T13:14:56.106Z</time>
      </trkpt>
      <trkpt lat="52.159534" lon="4.884308">
        <ele>-1.236357</ele>
        <time>2026-08-19T13:15:02.560Z</time>
      </trkpt>
      <trkpt lat="52.159642" lon="4.884810">
        <ele>-1.243146</ele>
        <time>2026-08-19T13:15:09.294Z</time>
      </trkpt>
      <trkpt lat="52.160338" lon="4.887027">
        <ele>-1.261095</ele>
        <time>2026-08-19T13:15:39.819Z</time>
      </trkpt>
      <trkpt lat="52.161478" lon="4.890300">
        <ele>-1.248911</ele>
        <time>2026-08-19T13:16:26.816Z</time>
      </trkpt>
      <trkpt lat="52.161657" lon="4.891116">
        <ele>-1.255216</ele>
        <time>2026-08-19T13:16:37.405Z</time>
      </trkpt>
      <trkpt lat="52.161752" lon="4.891768">
        <ele>-1.261964</ele>
        <time>2026-08-19T13:16:45.570Z</time>
      </trkpt>
      <trkpt lat="52.161780" lon="4.892194">
        <ele>-1.281188</ele>
        <time>2026-08-19T13:16:50.806Z</time>
      </trkpt>
      <trkpt lat="52.161746" lon="4.893634">
        <ele>-1.345848</ele>
        <time>2026-08-19T13:17:08.493Z</time>
      </trkpt>
      <trkpt lat="52.161762" lon="4.894500">
        <ele>-1.384723</ele>
        <time>2026-08-19T13:17:19.007Z</time>
      </trkpt>
      <trkpt lat="52.161831" lon="4.894491">
        <ele>-1.389786</ele>
        <time>2026-08-19T13:17:20.403Z</time>
      </trkpt>
      <trkpt lat="52.161905" lon="4.894487">
        <ele>-1.395303</ele>
        <time>2026-08-19T13:17:21.835Z</time>
      </trkpt>
      <trkpt lat="52.162016" lon="4.894492">
        <ele>-1.403636</ele>
        <time>2026-08-19T13:17:24.029Z</time>
      </trkpt>
      <trkpt lat="52.162008" lon="4.895627">
        <ele>-1.455884</ele>
        <time>2026-08-19T13:17:37.666Z</time>
      </trkpt>
      <trkpt lat="52.162298" lon="4.905600">
        <ele>-1.771245</ele>
        <time>2026-08-19T13:19:39.982Z</time>
      </trkpt>
      <trkpt lat="52.162269" lon="4.906304">
        <ele>-1.658132</ele>
        <time>2026-08-19T13:19:49.293Z</time>
      </trkpt>
      <trkpt lat="52.162063" lon="4.907665">
        <ele>-1.235841</ele>
        <time>2026-08-19T13:20:08.677Z</time>
      </trkpt>
      <trkpt lat="52.162072" lon="4.908314">
        <ele>-1.040283</ele>
        <time>2026-08-19T13:20:17.948Z</time>
      </trkpt>
      <trkpt lat="52.162166" lon="4.908774">
        <ele>-0.894223</ele>
        <time>2026-08-19T13:20:24.649Z</time>
      </trkpt>
      <trkpt lat="52.162297" lon="4.908695">
        <ele>-0.882223</ele>
        <time>2026-08-19T13:20:27.697Z</time>
      </trkpt>
      <trkpt lat="52.162330" lon="4.908807">
        <ele>-0.880668</ele>
        <time>2026-08-19T13:20:29.352Z</time>
      </trkpt>
      <trkpt lat="52.162353" lon="4.908891">
        <ele>-0.879516</ele>
        <time>2026-08-19T13:20:30.546Z</time>
      </trkpt>
      <trkpt lat="52.162368" lon="4.908950">
        <ele>-0.878716</ele>
        <time>2026-08-19T13:20:31.380Z</time>
      </trkpt>
      <trkpt lat="52.162324" lon="4.909203">
        <ele>-0.875424</ele>
        <time>2026-08-19T13:20:34.767Z</time>
      </trkpt>
      <trkpt lat="52.162307" lon="4.909251">
        <ele>-0.874730</ele>
        <time>2026-08-19T13:20:35.479Z</time>
      </trkpt>
      <trkpt lat="52.162327" lon="4.909337">
        <ele>-0.873578</ele>
        <time>2026-08-19T13:20:36.637Z</time>
      </trkpt>
      <trkpt lat="52.162355" lon="4.909481">
        <ele>-0.871687</ele>
        <time>2026-08-19T13:20:38.536Z</time>
      </trkpt>
      <trkpt lat="52.162449" lon="4.910734">
        <ele>-0.855883</ele>
        <time>2026-08-19T13:20:53.846Z</time>
      </trkpt>
      <trkpt lat="52.162498" lon="4.910988">
        <ele>-0.852549</ele>
        <time>2026-08-19T13:20:56.942Z</time>
      </trkpt>
      <trkpt lat="52.162599" lon="4.911358">
        <ele>-0.853100</ele>
        <time>2026-08-19T13:21:01.620Z</time>
      </trkpt>
      <trkpt lat="52.163293" lon="4.913005">
        <ele>-1.116129</ele>
        <time>2026-08-19T13:21:25.567Z</time>
      </trkpt>
      <trkpt lat="52.163570" lon="4.913955">
        <ele>-1.272144</ele>
        <time>2026-08-19T13:21:38.269Z</time>
      </trkpt>
      <trkpt lat="52.163593" lon="4.914035">
        <ele>-1.293662</ele>
        <time>2026-08-19T13:21:39.338Z</time>
      </trkpt>
      <trkpt lat="52.163661" lon="4.914298">
        <ele>-1.363175</ele>
        <time>2026-08-19T13:21:42.712Z</time>
      </trkpt>
      <trkpt lat="52.164085" lon="4.916023">
        <ele>-1.815778</ele>
        <time>2026-08-19T13:22:03.913Z</time>
      </trkpt>
      <trkpt lat="52.164328" lon="4.916896">
        <ele>-2.005307</ele>
        <time>2026-08-19T13:22:14.922Z</time>
      </trkpt>
      <trkpt lat="52.164439" lon="4.917319">
        <ele>-2.068671</ele>
        <time>2026-08-19T13:22:20.296Z</time>
      </trkpt>
      <trkpt lat="52.164473" lon="4.917450">
        <ele>-2.088261</ele>
        <time>2026-08-19T13:22:21.981Z</time>
      </trkpt>
      <trkpt lat="52.165091" lon="4.919847">
        <ele>-2.414239</ele>
        <time>2026-08-19T13:22:53.243Z</time>
      </trkpt>
      <trkpt lat="52.165676" lon="4.922116">
        <ele>-2.608055</ele>
        <time>2026-08-19T13:23:22.786Z</time>
      </trkpt>
      <trkpt lat="52.165953" lon="4.923192">
        <ele>-2.551741</ele>
        <time>2026-08-19T13:23:37.738Z</time>
      </trkpt>
      <trkpt lat="52.166869" lon="4.926664">
        <ele>-2.151049</ele>
        <time>2026-08-19T13:24:25.731Z</time>
      </trkpt>
      <trkpt lat="52.167163" lon="4.927808">
        <ele>-1.894470</ele>
        <time>2026-08-19T13:24:42.670Z</time>
      </trkpt>
      <trkpt lat="52.167274" lon="4.928155">
        <ele>-1.782384</ele>
        <time>2026-08-19T13:24:48.138Z</time>
      </trkpt>
      <trkpt lat="52.167362" lon="4.928297">
        <ele>-1.724570</ele>
        <time>2026-08-19T13:24:51.007Z</time>
      </trkpt>
      <trkpt lat="52.167627" lon="4.928458">
        <ele>-1.592518</ele>
        <time>2026-08-19T13:24:57.559Z</time>
      </trkpt>
      <trkpt lat="52.167949" lon="4.928663">
        <ele>-1.431106</ele>
        <time>2026-08-19T13:25:05.390Z</time>
      </trkpt>
      <trkpt lat="52.168227" lon="4.928721">
        <ele>-1.300237</ele>
        <time>2026-08-19T13:25:11.394Z</time>
      </trkpt>
      <trkpt lat="52.168267" lon="4.928751">
        <ele>-1.279678</ele>
        <time>2026-08-19T13:25:12.321Z</time>
      </trkpt>
      <trkpt lat="52.168300" lon="4.928975">
        <ele>-1.213701</ele>
        <time>2026-08-19T13:25:15.320Z</time>
      </trkpt>
      <trkpt lat="52.168253" lon="4.929156">
        <ele>-1.257697</ele>
        <time>2026-08-19T13:25:17.843Z</time>
      </trkpt>
      <trkpt lat="52.168202" lon="4.929251">
        <ele>-1.292808</ele>
        <time>2026-08-19T13:25:19.430Z</time>
      </trkpt>
      <trkpt lat="52.168150" lon="4.929358">
        <ele>-1.330774</ele>
        <time>2026-08-19T13:25:21.143Z</time>
      </trkpt>
      <trkpt lat="52.168061" lon="4.929743">
        <ele>-1.445199</ele>
        <time>2026-08-19T13:25:26.133Z</time>
      </trkpt>
      <trkpt lat="52.168050" lon="4.929814">
        <ele>-1.465565</ele>
        <time>2026-08-19T13:25:26.983Z</time>
      </trkpt>
      <trkpt lat="52.168036" lon="4.929914">
        <ele>-1.494091</ele>
        <time>2026-08-19T13:25:28.171Z</time>
      </trkpt>
      <trkpt lat="52.168015" lon="4.930073">
        <ele>-1.539324</ele>
        <time>2026-08-19T13:25:30.049Z</time>
      </trkpt>
      <trkpt lat="52.168009" lon="4.930138">
        <ele>-1.557605</ele>
        <time>2026-08-19T13:25:30.797Z</time>
      </trkpt>
      <trkpt lat="52.167895" lon="4.931222">
        <ele>-1.863476</ele>
        <time>2026-08-19T13:25:42.896Z</time>
      </trkpt>
      <trkpt lat="52.167839" lon="4.931722">
        <ele>-2.004831</ele>
        <time>2026-08-19T13:25:48.323Z</time>
      </trkpt>
      <trkpt lat="52.167833" lon="4.932204">
        <ele>-2.102157</ele>
        <time>2026-08-19T13:25:53.552Z</time>
      </trkpt>
      <trkpt lat="52.167873" lon="4.932670">
        <ele>-2.191222</ele>
        <time>2026-08-19T13:25:58.722Z</time>
      </trkpt>
      <trkpt lat="52.167938" lon="4.933033">
        <ele>-2.262799</ele>
        <time>2026-08-19T13:26:02.965Z</time>
      </trkpt>
      <trkpt lat="52.168158" lon="4.933939">
        <ele>-2.447237</ele>
        <time>2026-08-19T13:26:14.711Z</time>
      </trkpt>
      <trkpt lat="52.168445" lon="4.935124">
        <ele>-2.545151</ele>
        <time>2026-08-19T13:26:31.362Z</time>
      </trkpt>
      <trkpt lat="52.170255" lon="4.942589">
        <ele>-2.025497</ele>
        <time>2026-08-19T13:28:12.657Z</time>
      </trkpt>
      <trkpt lat="52.170468" lon="4.943465">
        <ele>-1.917017</ele>
        <time>2026-08-19T13:28:25.024Z</time>
      </trkpt>
      <trkpt lat="52.170824" lon="4.944936">
        <ele>-1.719530</ele>
        <time>2026-08-19T13:28:46.225Z</time>
      </trkpt>
      <trkpt lat="52.171031" lon="4.945512">
        <ele>-1.664230</ele>
        <time>2026-08-19T13:28:54.419Z</time>
      </trkpt>
      <trkpt lat="52.171377" lon="4.946214">
        <ele>-1.932355</ele>
        <time>2026-08-19T13:29:04.585Z</time>
      </trkpt>
      <trkpt lat="52.171569" lon="4.946685">
        <ele>-2.100729</ele>
        <time>2026-08-19T13:29:09.064Z</time>
      </trkpt>
      <trkpt lat="52.171626" lon="4.946916">
        <ele>-2.174859</ele>
        <time>2026-08-19T13:29:11.011Z</time>
      </trkpt>
      <trkpt lat="52.171716" lon="4.947719">
        <ele>-2.417884</ele>
        <time>2026-08-19T13:29:17.354Z</time>
      </trkpt>
      <trkpt lat="52.171791" lon="4.948015">
        <ele>-2.513232</ele>
        <time>2026-08-19T13:29:19.852Z</time>
      </trkpt>
      <trkpt lat="52.173948" lon="4.953770">
        <ele>-2.924107</ele>
        <time>2026-08-19T13:30:20.478Z</time>
      </trkpt>
      <trkpt lat="52.174909" lon="4.956334">
        <ele>-3.112918</ele>
        <time>2026-08-19T13:30:47.034Z</time>
      </trkpt>
      <trkpt lat="52.174965" lon="4.956487">
        <ele>-3.127235</ele>
        <time>2026-08-19T13:30:48.521Z</time>
      </trkpt>
      <trkpt lat="52.175162" lon="4.957066">
        <ele>-3.180438</ele>
        <time>2026-08-19T13:30:54.095Z</time>
      </trkpt>
      <trkpt lat="52.175230" lon="4.957289">
        <ele>-3.200449</ele>
        <time>2026-08-19T13:30:56.232Z</time>
      </trkpt>
      <trkpt lat="52.175262" lon="4.957413">
        <ele>-3.211259</ele>
        <time>2026-08-19T13:30:57.371Z</time>
      </trkpt>
      <trkpt lat="52.175342" lon="4.957734">
        <ele>-3.239100</ele>
        <time>2026-08-19T13:31:00.438Z</time>
      </trkpt>
      <trkpt lat="52.175464" lon="4.958548">
        <ele>-3.248724</ele>
        <time>2026-08-19T13:31:08.039Z</time>
      </trkpt>
      <trkpt lat="52.175503" lon="4.958997">
        <ele>-3.221627</ele>
        <time>2026-08-19T13:31:12.284Z</time>
      </trkpt>
      <trkpt lat="52.175528" lon="4.959654">
        <ele>-3.182292</ele>
        <time>2026-08-19T13:31:18.564Z</time>
      </trkpt>
      <trkpt lat="52.175477" lon="4.965182">
        <ele>-2.731521</ele>
        <time>2026-08-19T13:32:10.656Z</time>
      </trkpt>
      <trkpt lat="52.175472" lon="4.965700">
        <ele>-2.664837</ele>
        <time>2026-08-19T13:32:15.533Z</time>
      </trkpt>
      <trkpt lat="52.175466" lon="4.966486">
        <ele>-2.563658</ele>
        <time>2026-08-19T13:32:23.012Z</time>
      </trkpt>
      <trkpt lat="52.175154" lon="4.975524">
        <ele>-0.873565</ele>
        <time>2026-08-19T13:33:52.195Z</time>
      </trkpt>
      <trkpt lat="52.175183" lon="4.975933">
        <ele>-0.810028</ele>
        <time>2026-08-19T13:33:56.390Z</time>
      </trkpt>
      <trkpt lat="52.175242" lon="4.976198">
        <ele>-0.776861</ele>
        <time>2026-08-19T13:33:59.247Z</time>
      </trkpt>
      <trkpt lat="52.175375" lon="4.976529">
        <ele>-0.730306</ele>
        <time>2026-08-19T13:34:03.237Z</time>
      </trkpt>
      <trkpt lat="52.173508" lon="4.978693">
        <ele>-0.539535</ele>
        <time>2026-08-19T13:34:38.157Z</time>
      </trkpt>
      <trkpt lat="52.172652" lon="4.979564">
        <ele>-0.624865</ele>
        <time>2026-08-19T13:34:52.185Z</time>
      </trkpt>
      <trkpt lat="52.171996" lon="4.980161">
        <ele>-0.773615</ele>
        <time>2026-08-19T13:35:02.543Z</time>
      </trkpt>
      <trkpt lat="52.171483" lon="4.980663">
        <ele>-0.892078</ele>
        <time>2026-08-19T13:35:11.004Z</time>
      </trkpt>
      <trkpt lat="52.170979" lon="4.981131">
        <ele>-0.880332</ele>
        <time>2026-08-19T13:35:19.823Z</time>
      </trkpt>
      <trkpt lat="52.170601" lon="4.981507">
        <ele>-0.822501</ele>
        <time>2026-08-19T13:35:26.598Z</time>
      </trkpt>
      <trkpt lat="52.170476" lon="4.981682">
        <ele>-0.800983</ele>
        <time>2026-08-19T13:35:29.205Z</time>
      </trkpt>
      <trkpt lat="52.170262" lon="4.981984">
        <ele>-0.764019</ele>
        <time>2026-08-19T13:35:33.589Z</time>
      </trkpt>
      <trkpt lat="52.170111" lon="4.982200">
        <ele>-0.737783</ele>
        <time>2026-08-19T13:35:36.686Z</time>
      </trkpt>
      <trkpt lat="52.170018" lon="4.982344">
        <ele>-0.721033</ele>
        <time>2026-08-19T13:35:38.644Z</time>
      </trkpt>
      <trkpt lat="52.169789" lon="4.982692">
        <ele>-0.687121</ele>
        <time>2026-08-19T13:35:43.670Z</time>
      </trkpt>
      <trkpt lat="52.169725" lon="4.982865">
        <ele>-0.678180</ele>
        <time>2026-08-19T13:35:45.790Z</time>
      </trkpt>
      <trkpt lat="52.169678" lon="4.983068">
        <ele>-0.668577</ele>
        <time>2026-08-19T13:35:47.887Z</time>
      </trkpt>
      <trkpt lat="52.169658" lon="4.983305">
        <ele>-0.657989</ele>
        <time>2026-08-19T13:35:50.106Z</time>
      </trkpt>
      <trkpt lat="52.169572" lon="4.983612">
        <ele>-0.643052</ele>
        <time>2026-08-19T13:35:53.142Z</time>
      </trkpt>
      <trkpt lat="52.169409" lon="4.983810">
        <ele>-0.628384</ele>
        <time>2026-08-19T13:35:56.190Z</time>
      </trkpt>
      <trkpt lat="52.169267" lon="4.983944">
        <ele>-0.616545</ele>
        <time>2026-08-19T13:35:59.434Z</time>
      </trkpt>
      <trkpt lat="52.169247" lon="4.983964">
        <ele>-0.614852</ele>
        <time>2026-08-19T13:35:59.763Z</time>
      </trkpt>
      <trkpt lat="52.169081" lon="4.984124">
        <ele>-0.600936</ele>
        <time>2026-08-19T13:36:02.429Z</time>
      </trkpt>
      <trkpt lat="52.169049" lon="4.984238">
        <ele>-0.595388</ele>
        <time>2026-08-19T13:36:03.453Z</time>
      </trkpt>
      <trkpt lat="52.168911" lon="4.984477">
        <ele>-0.580860</ele>
        <time>2026-08-19T13:36:06.385Z</time>
      </trkpt>
      <trkpt lat="52.168894" lon="4.984801">
        <ele>-0.566468</ele>
        <time>2026-08-19T13:36:09.404Z</time>
      </trkpt>
      <trkpt lat="52.168848" lon="4.984865">
        <ele>-0.551192</ele>
        <time>2026-08-19T13:36:10.266Z</time>
      </trkpt>
      <trkpt lat="52.168801" lon="4.984942">
        <ele>-0.532710</ele>
        <time>2026-08-19T13:36:11.362Z</time>
      </trkpt>
      <trkpt lat="52.168647" lon="4.985365">
        <ele>-0.449022</ele>
        <time>2026-08-19T13:36:16.292Z</time>
      </trkpt>
      <trkpt lat="52.168608" lon="4.985494">
        <ele>-0.424554</ele>
        <time>2026-08-19T13:36:17.726Z</time>
      </trkpt>
      <trkpt lat="52.168948" lon="4.985755">
        <ele>-0.320312</ele>
        <time>2026-08-19T13:36:24.070Z</time>
      </trkpt>
      <trkpt lat="52.169436" lon="4.986184">
        <ele>-0.166526</ele>
        <time>2026-08-19T13:36:32.942Z</time>
      </trkpt>
      <trkpt lat="52.169549" lon="4.986389">
        <ele>-0.119635</ele>
        <time>2026-08-19T13:36:35.713Z</time>
      </trkpt>
      <trkpt lat="52.169721" lon="4.988084">
        <ele>0.020144</ele>
        <time>2026-08-19T13:36:51.824Z</time>
      </trkpt>
      <trkpt lat="52.169790" lon="4.988311">
        <ele>0.035820</ele>
        <time>2026-08-19T13:36:53.994Z</time>
      </trkpt>
      <trkpt lat="52.169897" lon="4.988539">
        <ele>0.053583</ele>
        <time>2026-08-19T13:36:56.563Z</time>
      </trkpt>
      <trkpt lat="52.170138" lon="4.989041">
        <ele>0.093028</ele>
        <time>2026-08-19T13:37:02.722Z</time>
      </trkpt>
      <trkpt lat="52.170230" lon="4.989318">
        <ele>0.112519</ele>
        <time>2026-08-19T13:37:05.527Z</time>
      </trkpt>
      <trkpt lat="52.170261" lon="4.989402">
        <ele>0.121209</ele>
        <time>2026-08-19T13:37:06.382Z</time>
      </trkpt>
      <trkpt lat="52.170523" lon="4.990192">
        <ele>0.211875</ele>
        <time>2026-08-19T13:37:14.888Z</time>
      </trkpt>
      <trkpt lat="52.170538" lon="4.990399">
        <ele>0.232918</ele>
        <time>2026-08-19T13:37:17.023Z</time>
      </trkpt>
      <trkpt lat="52.170538" lon="4.990587">
        <ele>0.251897</ele>
        <time>2026-08-19T13:37:18.970Z</time>
      </trkpt>
      <trkpt lat="52.170538" lon="4.990592">
        <ele>0.252402</ele>
        <time>2026-08-19T13:37:19.013Z</time>
      </trkpt>
      <trkpt lat="52.170538" lon="4.990633">
        <ele>0.256541</ele>
        <time>2026-08-19T13:37:19.411Z</time>
      </trkpt>
      <trkpt lat="52.170538" lon="4.990678">
        <ele>0.261084</ele>
        <time>2026-08-19T13:37:19.879Z</time>
      </trkpt>
      <trkpt lat="52.170538" lon="4.990903">
        <ele>0.283798</ele>
        <time>2026-08-19T13:37:22.210Z</time>
      </trkpt>
      <trkpt lat="52.170538" lon="4.990984">
        <ele>0.291975</ele>
        <time>2026-08-19T13:37:23.051Z</time>
      </trkpt>
      <trkpt lat="52.170539" lon="4.991126">
        <ele>0.306311</ele>
        <time>2026-08-19T13:37:24.521Z</time>
      </trkpt>
      <trkpt lat="52.170539" lon="4.991766">
        <ele>0.370921</ele>
        <time>2026-08-19T13:37:30.921Z</time>
      </trkpt>
      <trkpt lat="52.170624" lon="4.992144">
        <ele>0.409367</ele>
        <time>2026-08-19T13:37:34.272Z</time>
      </trkpt>
      <trkpt lat="52.170656" lon="4.992359">
        <ele>0.386112</ele>
        <time>2026-08-19T13:37:35.994Z</time>
      </trkpt>
      <trkpt lat="52.170682" lon="4.992931">
        <ele>0.325823</ele>
        <time>2026-08-19T13:37:40.774Z</time>
      </trkpt>
      <trkpt lat="52.170733" lon="4.993348">
        <ele>0.281128</ele>
        <time>2026-08-19T13:37:44.727Z</time>
      </trkpt>
      <trkpt lat="52.170839" lon="4.993499">
        <ele>0.257004</ele>
        <time>2026-08-19T13:37:46.804Z</time>
      </trkpt>
      <trkpt lat="52.170871" lon="4.993626">
        <ele>0.242573</ele>
        <time>2026-08-19T13:37:47.991Z</time>
      </trkpt>
      <trkpt lat="52.170874" lon="4.993769">
        <ele>0.227533</ele>
        <time>2026-08-19T13:37:49.261Z</time>
      </trkpt>
      <trkpt lat="52.170738" lon="4.993959">
        <ele>0.196838</ele>
        <time>2026-08-19T13:37:51.739Z</time>
      </trkpt>
      <trkpt lat="52.170592" lon="4.994023">
        <ele>0.170928</ele>
        <time>2026-08-19T13:37:53.792Z</time>
      </trkpt>
      <trkpt lat="52.170044" lon="4.994143">
        <ele>0.164058</ele>
        <time>2026-08-19T13:38:01.191Z</time>
      </trkpt>
      <trkpt lat="52.169139" lon="4.994222">
        <ele>0.532560</ele>
        <time>2026-08-19T13:38:16.774Z</time>
      </trkpt>
      <trkpt lat="52.168996" lon="4.994087">
        <ele>0.599748</ele>
        <time>2026-08-19T13:38:20.576Z</time>
      </trkpt>
      <trkpt lat="52.168905" lon="4.994019">
        <ele>0.640449</ele>
        <time>2026-08-19T13:38:22.860Z</time>
      </trkpt>
      <trkpt lat="52.167974" lon="4.993787">
        <ele>0.960839</ele>
        <time>2026-08-19T13:38:43.958Z</time>
      </trkpt>
      <trkpt lat="52.167849" lon="4.993794">
        <ele>0.994937</ele>
        <time>2026-08-19T13:38:46.699Z</time>
      </trkpt>
      <trkpt lat="52.167738" lon="4.993865">
        <ele>1.027444</ele>
        <time>2026-08-19T13:38:49.196Z</time>
      </trkpt>
      <trkpt lat="52.167656" lon="4.993980">
        <ele>1.056931</ele>
        <time>2026-08-19T13:38:51.428Z</time>
      </trkpt>
      <trkpt lat="52.167605" lon="4.994134">
        <ele>1.086196</ele>
        <time>2026-08-19T13:38:53.664Z</time>
      </trkpt>
      <trkpt lat="52.167601" lon="4.994346">
        <ele>1.121662</ele>
        <time>2026-08-19T13:38:56.355Z</time>
      </trkpt>
      <trkpt lat="52.167726" lon="4.996378">
        <ele>1.436308</ele>
        <time>2026-08-19T13:39:15.531Z</time>
      </trkpt>
      <trkpt lat="52.167806" lon="4.997609">
        <ele>1.603404</ele>
        <time>2026-08-19T13:39:27.683Z</time>
      </trkpt>
      <trkpt lat="52.167864" lon="4.998034">
        <ele>1.662176</ele>
        <time>2026-08-19T13:39:32.008Z</time>
      </trkpt>
      <trkpt lat="52.167952" lon="4.998400">
        <ele>1.715241</ele>
        <time>2026-08-19T13:39:35.833Z</time>
      </trkpt>
      <trkpt lat="52.168021" lon="4.998529">
        <ele>1.710050</ele>
        <time>2026-08-19T13:39:37.498Z</time>
      </trkpt>
      <trkpt lat="52.168128" lon="4.999099">
        <ele>1.668086</ele>
        <time>2026-08-19T13:39:43.057Z</time>
      </trkpt>
      <trkpt lat="52.168194" lon="4.999355">
        <ele>1.648536</ele>
        <time>2026-08-19T13:39:45.564Z</time>
      </trkpt>
      <trkpt lat="52.168277" lon="4.999375">
        <ele>1.638906</ele>
        <time>2026-08-19T13:39:46.785Z</time>
      </trkpt>
      <trkpt lat="52.168807" lon="4.999026">
        <ele>1.573300</ele>
        <time>2026-08-19T13:39:55.003Z</time>
      </trkpt>
      <trkpt lat="52.168861" lon="4.998899">
        <ele>1.562421</ele>
        <time>2026-08-19T13:39:56.279Z</time>
      </trkpt>
      <trkpt lat="52.168930" lon="4.998943">
        <ele>1.553918</ele>
        <time>2026-08-19T13:39:57.262Z</time>
      </trkpt>
      <trkpt lat="52.169030" lon="4.998970">
        <ele>1.542284</ele>
        <time>2026-08-19T13:39:59.158Z</time>
      </trkpt>
      <trkpt lat="52.169144" lon="4.998902">
        <ele>1.528351</ele>
        <time>2026-08-19T13:40:01.404Z</time>
      </trkpt>
      <trkpt lat="52.169455" lon="4.998679">
        <ele>1.464239</ele>
        <time>2026-08-19T13:40:07.752Z</time>
      </trkpt>
      <trkpt lat="52.169486" lon="4.998799">
        <ele>1.445460</ele>
        <time>2026-08-19T13:40:09.235Z</time>
      </trkpt>
      <trkpt lat="52.169531" lon="4.999179">
        <ele>1.389644</ele>
        <time>2026-08-19T13:40:13.677Z</time>
      </trkpt>
      <trkpt lat="52.169505" lon="4.999460">
        <ele>1.348659</ele>
        <time>2026-08-19T13:40:16.938Z</time>
      </trkpt>
      <trkpt lat="52.169327" lon="4.999741">
        <ele>1.290398</ele>
        <time>2026-08-19T13:40:21.632Z</time>
      </trkpt>
      <trkpt lat="52.169388" lon="5.000021">
        <ele>1.247544</ele>
        <time>2026-08-19T13:40:25.115Z</time>
      </trkpt>
      <trkpt lat="52.169522" lon="5.000680">
        <ele>1.147414</ele>
        <time>2026-08-19T13:40:33.444Z</time>
      </trkpt>
      <trkpt lat="52.169725" lon="5.001721">
        <ele>1.212616</ele>
        <time>2026-08-19T13:40:47.430Z</time>
      </trkpt>
      <trkpt lat="52.169908" lon="5.002657">
        <ele>1.384996</ele>
        <time>2026-08-19T13:41:00.420Z</time>
      </trkpt>
      <trkpt lat="52.170027" lon="5.003228">
        <ele>1.490814</ele>
        <time>2026-08-19T13:41:07.959Z</time>
      </trkpt>
      <trkpt lat="52.170049" lon="5.003306">
        <ele>1.505878</ele>
        <time>2026-08-19T13:41:09.146Z</time>
      </trkpt>
      <trkpt lat="52.170120" lon="5.003230">
        <ele>1.530177</ele>
        <time>2026-08-19T13:41:10.634Z</time>
      </trkpt>
      <trkpt lat="52.170330" lon="5.003013">
        <ele>1.601306</ele>
        <time>2026-08-19T13:41:14.998Z</time>
      </trkpt>
      <trkpt lat="52.170611" lon="5.002788">
        <ele>1.722918</ele>
        <time>2026-08-19T13:41:20.416Z</time>
      </trkpt>
      <trkpt lat="52.170639" lon="5.002897">
        <ele>1.751387</ele>
        <time>2026-08-19T13:41:22.018Z</time>
      </trkpt>
      <trkpt lat="52.170662" lon="5.002992">
        <ele>1.775991</ele>
        <time>2026-08-19T13:41:23.430Z</time>
      </trkpt>
      <trkpt lat="52.170686" lon="5.003125">
        <ele>1.809390</ele>
        <time>2026-08-19T13:41:25.339Z</time>
      </trkpt>
      <trkpt lat="52.170740" lon="5.003443">
        <ele>1.888880</ele>
        <time>2026-08-19T13:41:29.915Z</time>
      </trkpt>
      <trkpt lat="52.170769" lon="5.003592">
        <ele>1.926539</ele>
        <time>2026-08-19T13:41:32.098Z</time>
      </trkpt>
      <trkpt lat="52.170841" lon="5.003746">
        <ele>1.973188</ele>
        <time>2026-08-19T13:41:34.772Z</time>
      </trkpt>
      <trkpt lat="52.171024" lon="5.004057">
        <ele>2.077016</ele>
        <time>2026-08-19T13:41:40.613Z</time>
      </trkpt>
      <trkpt lat="52.171099" lon="5.004079">
        <ele>2.106948</ele>
        <time>2026-08-19T13:41:42.275Z</time>
      </trkpt>
      <trkpt lat="52.171101" lon="5.004078">
        <ele>2.107770</ele>
        <time>2026-08-19T13:41:42.312Z</time>
      </trkpt>
      <trkpt lat="52.171301" lon="5.004009">
        <ele>2.188068</ele>
        <time>2026-08-19T13:41:46.566Z</time>
      </trkpt>
      <trkpt lat="52.171695" lon="5.003840">
        <ele>2.287054</ele>
        <time>2026-08-19T13:41:55.449Z</time>
      </trkpt>
      <trkpt lat="52.171708" lon="5.003832">
        <ele>2.283424</ele>
        <time>2026-08-19T13:41:55.717Z</time>
      </trkpt>
      <trkpt lat="52.171761" lon="5.003812">
        <ele>2.269213</ele>
        <time>2026-08-19T13:41:56.781Z</time>
      </trkpt>
      <trkpt lat="52.171971" lon="5.003684">
        <ele>2.210647</ele>
        <time>2026-08-19T13:42:01.108Z</time>
      </trkpt>
      <trkpt lat="52.172056" lon="5.004058">
        <ele>2.146746</ele>
        <time>2026-08-19T13:42:05.789Z</time>
      </trkpt>
      <trkpt lat="52.172283" lon="5.004811">
        <ele>2.012321</ele>
        <time>2026-08-19T13:42:15.436Z</time>
      </trkpt>
      <trkpt lat="52.172335" lon="5.004940">
        <ele>1.987589</ele>
        <time>2026-08-19T13:42:16.656Z</time>
      </trkpt>
      <trkpt lat="52.172366" lon="5.005050">
        <ele>1.968195</ele>
        <time>2026-08-19T13:42:18.007Z</time>
      </trkpt>
      <trkpt lat="52.172240" lon="5.005224">
        <ele>1.925061</ele>
        <time>2026-08-19T13:42:20.981Z</time>
      </trkpt>
      <trkpt lat="52.171129" lon="5.006909">
        <ele>1.495868</ele>
        <time>2026-08-19T13:42:42.055Z</time>
      </trkpt>
      <trkpt lat="52.170547" lon="5.007723">
        <ele>1.252991</ele>
        <time>2026-08-19T13:42:52.914Z</time>
      </trkpt>
      <trkpt lat="52.169961" lon="5.008483">
        <ele>0.939557</ele>
        <time>2026-08-19T13:43:02.834Z</time>
      </trkpt>
      <trkpt lat="52.169508" lon="5.008956">
        <ele>0.714382</ele>
        <time>2026-08-19T13:43:10.057Z</time>
      </trkpt>
      <trkpt lat="52.169080" lon="5.009350">
        <ele>0.557337</ele>
        <time>2026-08-19T13:43:16.624Z</time>
      </trkpt>
      <trkpt lat="52.168791" lon="5.009518">
        <ele>0.531639</ele>
        <time>2026-08-19T13:43:20.702Z</time>
      </trkpt>
      <trkpt lat="52.168112" lon="5.009873">
        <ele>0.471918</ele>
        <time>2026-08-19T13:43:31.094Z</time>
      </trkpt>
      <trkpt lat="52.167716" lon="5.009957">
        <ele>0.438472</ele>
        <time>2026-08-19T13:43:37.059Z</time>
      </trkpt>
      <trkpt lat="52.166850" lon="5.010060">
        <ele>0.482687</ele>
        <time>2026-08-19T13:43:50.942Z</time>
      </trkpt>
      <trkpt lat="52.165993" lon="5.010245">
        <ele>0.569656</ele>
        <time>2026-08-19T13:44:04.278Z</time>
      </trkpt>
      <trkpt lat="52.165072" lon="5.010443">
        <ele>0.529507</ele>
        <time>2026-08-19T13:44:17.470Z</time>
      </trkpt>
      <trkpt lat="52.164781" lon="5.010498">
        <ele>0.496765</ele>
        <time>2026-08-19T13:44:21.451Z</time>
      </trkpt>
      <trkpt lat="52.164598" lon="5.010535">
        <ele>0.476154</ele>
        <time>2026-08-19T13:44:24.005Z</time>
      </trkpt>
      <trkpt lat="52.164160" lon="5.010640">
        <ele>0.426674</ele>
        <time>2026-08-19T13:44:30.474Z</time>
      </trkpt>
      <trkpt lat="52.163140" lon="5.011021">
        <ele>0.244448</ele>
        <time>2026-08-19T13:44:46.039Z</time>
      </trkpt>
      <trkpt lat="52.162697" lon="5.011241">
        <ele>0.154763</ele>
        <time>2026-08-19T13:44:52.381Z</time>
      </trkpt>
      <trkpt lat="52.162210" lon="5.011540">
        <ele>0.053982</ele>
        <time>2026-08-19T13:44:59.412Z</time>
      </trkpt>
      <trkpt lat="52.161656" lon="5.011934">
        <ele>0.042268</ele>
        <time>2026-08-19T13:45:07.877Z</time>
      </trkpt>
      <trkpt lat="52.161428" lon="5.012146">
        <ele>0.038600</ele>
        <time>2026-08-19T13:45:11.743Z</time>
      </trkpt>
      <trkpt lat="52.160944" lon="5.012742">
        <ele>0.030124</ele>
        <time>2026-08-19T13:45:21.105Z</time>
      </trkpt>
      <trkpt lat="52.160775" lon="5.013074">
        <ele>0.026426</ele>
        <time>2026-08-19T13:45:25.247Z</time>
      </trkpt>
      <trkpt lat="52.160595" lon="5.013649">
        <ele>0.103493</ele>
        <time>2026-08-19T13:45:31.463Z</time>
      </trkpt>
      <trkpt lat="52.160193" lon="5.015018">
        <ele>0.332854</ele>
        <time>2026-08-19T13:45:46.205Z</time>
      </trkpt>
      <trkpt lat="52.160070" lon="5.015468">
        <ele>0.407303</ele>
        <time>2026-08-19T13:45:50.960Z</time>
      </trkpt>
      <trkpt lat="52.159764" lon="5.016426">
        <ele>0.473048</ele>
        <time>2026-08-19T13:46:01.523Z</time>
      </trkpt>
      <trkpt lat="52.159490" lon="5.017132">
        <ele>0.478786</ele>
        <time>2026-08-19T13:46:09.518Z</time>
      </trkpt>
      <trkpt lat="52.159024" lon="5.018097">
        <ele>0.487222</ele>
        <time>2026-08-19T13:46:20.189Z</time>
      </trkpt>
      <trkpt lat="52.158877" lon="5.018385">
        <ele>0.457232</ele>
        <time>2026-08-19T13:46:23.368Z</time>
      </trkpt>
      <trkpt lat="52.158925" lon="5.018893">
        <ele>0.368792</ele>
        <time>2026-08-19T13:46:27.702Z</time>
      </trkpt>
      <trkpt lat="52.159042" lon="5.019322">
        <ele>0.288010</ele>
        <time>2026-08-19T13:46:33.192Z</time>
      </trkpt>
      <trkpt lat="52.159764" lon="5.020923">
        <ele>-0.049739</ele>
        <time>2026-08-19T13:46:56.631Z</time>
      </trkpt>
      <trkpt lat="52.160030" lon="5.021357">
        <ele>-0.143759</ele>
        <time>2026-08-19T13:47:03.964Z</time>
      </trkpt>
      <trkpt lat="52.161250" lon="5.022883">
        <ele>-0.459984</ele>
        <time>2026-08-19T13:47:33.482Z</time>
      </trkpt>
      <trkpt lat="52.161384" lon="5.023050">
        <ele>-0.456429</ele>
        <time>2026-08-19T13:47:36.828Z</time>
      </trkpt>
      <trkpt lat="52.161668" lon="5.023541">
        <ele>-0.447705</ele>
        <time>2026-08-19T13:47:45.341Z</time>
      </trkpt>
      <trkpt lat="52.161765" lon="5.023791">
        <ele>-0.443881</ele>
        <time>2026-08-19T13:47:49.228Z</time>
      </trkpt>
      <trkpt lat="52.161895" lon="5.024306">
        <ele>-0.436682</ele>
        <time>2026-08-19T13:47:56.444Z</time>
      </trkpt>
      <trkpt lat="52.161934" lon="5.024825">
        <ele>-0.429922</ele>
        <time>2026-08-19T13:48:03.089Z</time>
      </trkpt>
      <trkpt lat="52.161922" lon="5.025083">
        <ele>-0.432938</ele>
        <time>2026-08-19T13:48:06.337Z</time>
      </trkpt>
      <trkpt lat="52.161853" lon="5.025462">
        <ele>-0.469129</ele>
        <time>2026-08-19T13:48:11.169Z</time>
      </trkpt>
      <trkpt lat="52.161392" lon="5.026783">
        <ele>-0.608259</ele>
        <time>2026-08-19T13:48:29.495Z</time>
      </trkpt>
      <trkpt lat="52.161354" lon="5.026948">
        <ele>-0.624394</ele>
        <time>2026-08-19T13:48:31.479Z</time>
      </trkpt>
      <trkpt lat="52.161336" lon="5.027059">
        <ele>-0.634904</ele>
        <time>2026-08-19T13:48:32.817Z</time>
      </trkpt>
      <trkpt lat="52.161326" lon="5.027226">
        <ele>-0.650265</ele>
        <time>2026-08-19T13:48:34.745Z</time>
      </trkpt>
      <trkpt lat="52.161347" lon="5.027564">
        <ele>-0.681366</ele>
        <time>2026-08-19T13:48:38.680Z</time>
      </trkpt>
      <trkpt lat="52.161416" lon="5.027903">
        <ele>-0.713327</ele>
        <time>2026-08-19T13:48:42.900Z</time>
      </trkpt>
      <trkpt lat="52.161635" lon="5.028954">
        <ele>-0.810850</ele>
        <time>2026-08-19T13:48:53.104Z</time>
      </trkpt>
      <trkpt lat="52.161603" lon="5.029147">
        <ele>-0.828416</ele>
        <time>2026-08-19T13:48:54.887Z</time>
      </trkpt>
      <trkpt lat="52.161363" lon="5.029648">
        <ele>-0.884265</ele>
        <time>2026-08-19T13:49:00.929Z</time>
      </trkpt>
      <trkpt lat="52.161328" lon="5.029843">
        <ele>-0.902116</ele>
        <time>2026-08-19T13:49:02.805Z</time>
      </trkpt>
      <trkpt lat="52.161323" lon="5.030027">
        <ele>-0.918298</ele>
        <time>2026-08-19T13:49:04.403Z</time>
      </trkpt>
      <trkpt lat="52.161425" lon="5.030577">
        <ele>-1.048087</ele>
        <time>2026-08-19T13:49:09.227Z</time>
      </trkpt>
      <trkpt lat="52.161538" lon="5.030879">
        <ele>-1.239340</ele>
        <time>2026-08-19T13:49:11.901Z</time>
      </trkpt>
      <trkpt lat="52.161717" lon="5.031102">
        <ele>-1.437896</ele>
        <time>2026-08-19T13:49:14.644Z</time>
      </trkpt>
      <trkpt lat="52.161746" lon="5.031122">
        <ele>-1.465648</ele>
        <time>2026-08-19T13:49:15.037Z</time>
      </trkpt>
      <trkpt lat="52.161804" lon="5.031154">
        <ele>-1.519615</ele>
        <time>2026-08-19T13:49:15.764Z</time>
      </trkpt>
      <trkpt lat="52.161993" lon="5.031265">
        <ele>-1.696669</ele>
        <time>2026-08-19T13:49:18.203Z</time>
      </trkpt>
      <trkpt lat="52.162197" lon="5.031414">
        <ele>-1.893686</ele>
        <time>2026-08-19T13:49:20.909Z</time>
      </trkpt>
      <trkpt lat="52.162283" lon="5.031541">
        <ele>-1.995957</ele>
        <time>2026-08-19T13:49:22.317Z</time>
      </trkpt>
      <trkpt lat="52.162318" lon="5.031629">
        <ele>-2.052658</ele>
        <time>2026-08-19T13:49:23.077Z</time>
      </trkpt>
      <trkpt lat="52.162357" lon="5.031774">
        <ele>-2.138256</ele>
        <time>2026-08-19T13:49:24.267Z</time>
      </trkpt>
      <trkpt lat="52.162320" lon="5.031878">
        <ele>-2.203255</ele>
        <time>2026-08-19T13:49:25.134Z</time>
      </trkpt>
      <trkpt lat="52.162426" lon="5.032407">
        <ele>-2.504125</ele>
        <time>2026-08-19T13:49:29.235Z</time>
      </trkpt>
      <trkpt lat="52.162659" lon="5.033321">
        <ele>-2.570398</ele>
        <time>2026-08-19T13:49:36.943Z</time>
      </trkpt>
      <trkpt lat="52.164426" lon="5.041028">
        <ele>-2.536302</ele>
        <time>2026-08-19T13:50:53.995Z</time>
      </trkpt>
      <trkpt lat="52.164506" lon="5.041265">
        <ele>-2.532488</ele>
        <time>2026-08-19T13:50:56.474Z</time>
      </trkpt>
      <trkpt lat="52.164601" lon="5.041670">
        <ele>-2.526376</ele>
        <time>2026-08-19T13:51:00.407Z</time>
      </trkpt>
      <trkpt lat="52.164649" lon="5.041971">
        <ele>-2.521991</ele>
        <time>2026-08-19T13:51:03.192Z</time>
      </trkpt>
      <trkpt lat="52.165314" lon="5.044839">
        <ele>-2.370803</ele>
        <time>2026-08-19T13:51:31.048Z</time>
      </trkpt>
      <trkpt lat="52.165355" lon="5.044945">
        <ele>-2.360053</ele>
        <time>2026-08-19T13:51:32.356Z</time>
      </trkpt>
      <trkpt lat="52.165432" lon="5.045026">
        <ele>-2.347237</ele>
        <time>2026-08-19T13:51:33.929Z</time>
      </trkpt>
      <trkpt lat="52.165518" lon="5.045394">
        <ele>-2.313455</ele>
        <time>2026-08-19T13:51:37.991Z</time>
      </trkpt>
      <trkpt lat="52.165763" lon="5.046443">
        <ele>-2.316640</ele>
        <time>2026-08-19T13:51:48.941Z</time>
      </trkpt>
      <trkpt lat="52.165824" lon="5.046711">
        <ele>-2.370086</ele>
        <time>2026-08-19T13:51:51.583Z</time>
      </trkpt>
      <trkpt lat="52.166335" lon="5.049073">
        <ele>-2.827065</ele>
        <time>2026-08-19T13:52:11.932Z</time>
      </trkpt>
      <trkpt lat="52.166301" lon="5.049270">
        <ele>-2.854955</ele>
        <time>2026-08-19T13:52:13.587Z</time>
      </trkpt>
      <trkpt lat="52.166336" lon="5.049479">
        <ele>-2.884481</ele>
        <time>2026-08-19T13:52:15.355Z</time>
      </trkpt>
      <trkpt lat="52.167996" lon="5.056884">
        <ele>-3.823711</ele>
        <time>2026-08-19T13:53:23.727Z</time>
      </trkpt>
      <trkpt lat="52.168836" lon="5.060691">
        <ele>-3.817079</ele>
        <time>2026-08-19T13:54:14.724Z</time>
      </trkpt>
      <trkpt lat="52.168823" lon="5.060939">
        <ele>-3.831605</ele>
        <time>2026-08-19T13:54:17.652Z</time>
      </trkpt>
      <trkpt lat="52.168754" lon="5.061329">
        <ele>-3.855294</ele>
        <time>2026-08-19T13:54:22.356Z</time>
      </trkpt>
      <trkpt lat="52.168737" lon="5.061464">
        <ele>-3.863337</ele>
        <time>2026-08-19T13:54:24.005Z</time>
      </trkpt>
      <trkpt lat="52.168719" lon="5.061598">
        <ele>-3.871343</ele>
        <time>2026-08-19T13:54:25.593Z</time>
      </trkpt>
      <trkpt lat="52.169353" lon="5.064427">
        <ele>-3.756388</ele>
        <time>2026-08-19T13:55:02.786Z</time>
      </trkpt>
      <trkpt lat="52.169404" lon="5.064491">
        <ele>-3.746052</ele>
        <time>2026-08-19T13:55:04.201Z</time>
      </trkpt>
      <trkpt lat="52.169600" lon="5.064582">
        <ele>-3.713321</ele>
        <time>2026-08-19T13:55:08.692Z</time>
      </trkpt>
      <trkpt lat="52.169695" lon="5.064705">
        <ele>-3.693838</ele>
        <time>2026-08-19T13:55:11.361Z</time>
      </trkpt>
      <trkpt lat="52.169900" lon="5.065623">
        <ele>-3.502436</ele>
        <time>2026-08-19T13:55:24.556Z</time>
      </trkpt>
      <trkpt lat="52.170768" lon="5.069732">
        <ele>-2.436514</ele>
        <time>2026-08-19T13:56:23.145Z</time>
      </trkpt>
      <trkpt lat="52.170894" lon="5.069978">
        <ele>-2.370500</ele>
        <time>2026-08-19T13:56:27.520Z</time>
      </trkpt>
      <trkpt lat="52.170937" lon="5.070243">
        <ele>-2.314040</ele>
        <time>2026-08-19T13:56:31.189Z</time>
      </trkpt>
      <trkpt lat="52.171024" lon="5.070615">
        <ele>-2.234382</ele>
        <time>2026-08-19T13:56:36.355Z</time>
      </trkpt>
      <trkpt lat="52.171043" lon="5.071027">
        <ele>-2.308559</ele>
        <time>2026-08-19T13:56:41.553Z</time>
      </trkpt>
      <trkpt lat="52.171619" lon="5.073466">
        <ele>-2.737783</ele>
        <time>2026-08-19T13:57:11.263Z</time>
      </trkpt>
      <trkpt lat="52.171829" lon="5.074356">
        <ele>-2.527965</ele>
        <time>2026-08-19T13:57:23.118Z</time>
      </trkpt>
      <trkpt lat="52.172595" lon="5.077720">
        <ele>-1.453265</ele>
        <time>2026-08-19T13:58:13.543Z</time>
      </trkpt>
      <trkpt lat="52.172685" lon="5.078033">
        <ele>-1.319533</ele>
        <time>2026-08-19T13:58:18.446Z</time>
      </trkpt>
      <trkpt lat="52.172762" lon="5.078130">
        <ele>-1.258156</ele>
        <time>2026-08-19T13:58:20.659Z</time>
      </trkpt>
      <trkpt lat="52.172886" lon="5.078671">
        <ele>-1.034732</ele>
        <time>2026-08-19T13:58:26.832Z</time>
      </trkpt>
      <trkpt lat="52.172875" lon="5.078777">
        <ele>-0.993143</ele>
        <time>2026-08-19T13:58:27.960Z</time>
      </trkpt>
      <trkpt lat="52.172799" lon="5.078900">
        <ele>-0.964847</ele>
        <time>2026-08-19T13:58:29.802Z</time>
      </trkpt>
      <trkpt lat="52.172117" lon="5.079277">
        <ele>-0.838528</ele>
        <time>2026-08-19T13:58:41.695Z</time>
      </trkpt>
      <trkpt lat="52.172054" lon="5.079313">
        <ele>-0.826818</ele>
        <time>2026-08-19T13:58:42.729Z</time>
      </trkpt>
      <trkpt lat="52.171515" lon="5.079703">
        <ele>-0.723379</ele>
        <time>2026-08-19T13:58:51.226Z</time>
      </trkpt>
      <trkpt lat="52.171110" lon="5.079966">
        <ele>-0.673377</ele>
        <time>2026-08-19T13:58:57.284Z</time>
      </trkpt>
      <trkpt lat="52.170384" lon="5.080412">
        <ele>-0.742516</ele>
        <time>2026-08-19T13:59:08.591Z</time>
      </trkpt>
      <trkpt lat="52.170307" lon="5.080461">
        <ele>-0.749882</ele>
        <time>2026-08-19T13:59:09.785Z</time>
      </trkpt>
      <trkpt lat="52.169844" lon="5.080781">
        <ele>-0.794697</ele>
        <time>2026-08-19T13:59:17.008Z</time>
      </trkpt>
      <trkpt lat="52.169792" lon="5.080817">
        <ele>-0.799732</ele>
        <time>2026-08-19T13:59:17.829Z</time>
      </trkpt>
      <trkpt lat="52.169734" lon="5.080857">
        <ele>-0.805344</ele>
        <time>2026-08-19T13:59:18.753Z</time>
      </trkpt>
      <trkpt lat="52.169390" lon="5.081103">
        <ele>-0.826475</ele>
        <time>2026-08-19T13:59:24.407Z</time>
      </trkpt>
      <trkpt lat="52.167854" lon="5.082106">
        <ele>-0.842350</ele>
        <time>2026-08-19T13:59:48.722Z</time>
      </trkpt>
      <trkpt lat="52.165926" lon="5.083448">
        <ele>-0.581064</ele>
        <time>2026-08-19T14:00:21.203Z</time>
      </trkpt>
      <trkpt lat="52.165705" lon="5.083571">
        <ele>-0.583533</ele>
        <time>2026-08-19T14:00:24.693Z</time>
      </trkpt>
      <trkpt lat="52.165475" lon="5.083743">
        <ele>-0.586207</ele>
        <time>2026-08-19T14:00:28.415Z</time>
      </trkpt>
      <trkpt lat="52.165368" lon="5.083823">
        <ele>-0.587451</ele>
        <time>2026-08-19T14:00:30.127Z</time>
      </trkpt>
      <trkpt lat="52.165293" lon="5.083880">
        <ele>-0.588326</ele>
        <time>2026-08-19T14:00:31.327Z</time>
      </trkpt>
      <trkpt lat="52.165167" lon="5.083963">
        <ele>-0.589762</ele>
        <time>2026-08-19T14:00:33.289Z</time>
      </trkpt>
      <trkpt lat="52.164277" lon="5.084612">
        <ele>-0.597338</ele>
        <time>2026-08-19T14:00:47.484Z</time>
      </trkpt>
      <trkpt lat="52.163678" lon="5.085180">
        <ele>-0.598578</ele>
        <time>2026-08-19T14:00:57.834Z</time>
      </trkpt>
      <trkpt lat="52.162309" lon="5.086616">
        <ele>-0.614002</ele>
        <time>2026-08-19T14:01:22.153Z</time>
      </trkpt>
      <trkpt lat="52.161775" lon="5.087108">
        <ele>-0.624311</ele>
        <time>2026-08-19T14:01:31.006Z</time>
      </trkpt>
      <trkpt lat="52.160555" lon="5.088356">
        <ele>-0.669059</ele>
        <time>2026-08-19T14:01:52.076Z</time>
      </trkpt>
      <trkpt lat="52.159940" lon="5.088954">
        <ele>-0.693802</ele>
        <time>2026-08-19T14:02:02.463Z</time>
      </trkpt>
      <trkpt lat="52.159863" lon="5.089027">
        <ele>-0.683990</ele>
        <time>2026-08-19T14:02:03.864Z</time>
      </trkpt>
      <trkpt lat="52.159780" lon="5.089110">
        <ele>-0.673264</ele>
        <time>2026-08-19T14:02:05.418Z</time>
      </trkpt>
      <trkpt lat="52.159408" lon="5.089472">
        <ele>-0.625542</ele>
        <time>2026-08-19T14:02:12.269Z</time>
      </trkpt>
      <trkpt lat="52.159353" lon="5.089525">
        <ele>-0.618505</ele>
        <time>2026-08-19T14:02:13.281Z</time>
      </trkpt>
      <trkpt lat="52.159308" lon="5.089573">
        <ele>-0.612581</ele>
        <time>2026-08-19T14:02:14.091Z</time>
      </trkpt>
      <trkpt lat="52.158885" lon="5.090088">
        <ele>-0.554426</ele>
        <time>2026-08-19T14:02:22.085Z</time>
      </trkpt>
      <trkpt lat="52.158430" lon="5.090556">
        <ele>-0.498925</ele>
        <time>2026-08-19T14:02:30.518Z</time>
      </trkpt>
      <trkpt lat="52.157627" lon="5.091132">
        <ele>-0.724023</ele>
        <time>2026-08-19T14:02:43.121Z</time>
      </trkpt>
      <trkpt lat="52.157055" lon="5.091622">
        <ele>-0.889819</ele>
        <time>2026-08-19T14:02:51.602Z</time>
      </trkpt>
      <trkpt lat="52.156894" lon="5.091804">
        <ele>-0.940090</ele>
        <time>2026-08-19T14:02:54.215Z</time>
      </trkpt>
      <trkpt lat="52.156597" lon="5.092226">
        <ele>-0.968077</ele>
        <time>2026-08-19T14:02:59.573Z</time>
      </trkpt>
      <trkpt lat="52.156520" lon="5.092344">
        <ele>-0.971424</ele>
        <time>2026-08-19T14:03:01.048Z</time>
      </trkpt>
      <trkpt lat="52.156431" lon="5.092487">
        <ele>-0.975381</ele>
        <time>2026-08-19T14:03:02.826Z</time>
      </trkpt>
      <trkpt lat="52.156410" lon="5.092528">
        <ele>-0.976418</ele>
        <time>2026-08-19T14:03:03.311Z</time>
      </trkpt>
      <trkpt lat="52.155981" lon="5.093333">
        <ele>-0.997133</ele>
        <time>2026-08-19T14:03:13.541Z</time>
      </trkpt>
      <trkpt lat="52.155309" lon="5.094731">
        <ele>-1.107773</ele>
        <time>2026-08-19T14:03:30.217Z</time>
      </trkpt>
      <trkpt lat="52.155087" lon="5.095150">
        <ele>-1.166992</ele>
        <time>2026-08-19T14:03:34.976Z</time>
      </trkpt>
      <trkpt lat="52.154960" lon="5.095453">
        <ele>-1.206245</ele>
        <time>2026-08-19T14:03:38.019Z</time>
      </trkpt>
      <trkpt lat="52.154885" lon="5.095326">
        <ele>-1.225101</ele>
        <time>2026-08-19T14:03:39.467Z</time>
      </trkpt>
      <trkpt lat="52.154337" lon="5.094493">
        <ele>-1.316713</ele>
        <time>2026-08-19T14:03:49.451Z</time>
      </trkpt>
      <trkpt lat="52.154091" lon="5.094247">
        <ele>-1.295387</ele>
        <time>2026-08-19T14:03:53.646Z</time>
      </trkpt>
      <trkpt lat="52.153764" lon="5.093991">
        <ele>-1.268580</ele>
        <time>2026-08-19T14:03:59.316Z</time>
      </trkpt>
      <trkpt lat="52.153516" lon="5.093796">
        <ele>-1.248233</ele>
        <time>2026-08-19T14:04:03.655Z</time>
      </trkpt>
      <trkpt lat="52.151947" lon="5.091463">
        <ele>-0.901616</ele>
        <time>2026-08-19T14:04:37.315Z</time>
      </trkpt>
      <trkpt lat="52.151918" lon="5.091420">
        <ele>-0.893442</ele>
        <time>2026-08-19T14:04:37.911Z</time>
      </trkpt>
      <trkpt lat="52.150927" lon="5.090150">
        <ele>-0.833640</ele>
        <time>2026-08-19T14:04:56.728Z</time>
      </trkpt>
      <trkpt lat="52.149469" lon="5.088143">
        <ele>-0.913648</ele>
        <time>2026-08-19T14:05:24.530Z</time>
      </trkpt>
      <trkpt lat="52.149300" lon="5.087823">
        <ele>-0.930688</ele>
        <time>2026-08-19T14:05:28.216Z</time>
      </trkpt>
      <trkpt lat="52.149281" lon="5.087718">
        <ele>-0.935106</ele>
        <time>2026-08-19T14:05:29.174Z</time>
      </trkpt>
      <trkpt lat="52.149271" lon="5.087591">
        <ele>-0.940274</ele>
        <time>2026-08-19T14:05:30.302Z</time>
      </trkpt>
      <trkpt lat="52.149336" lon="5.087088">
        <ele>-0.961020</ele>
        <time>2026-08-19T14:05:34.854Z</time>
      </trkpt>
      <trkpt lat="52.149341" lon="5.086894">
        <ele>-0.954239</ele>
        <time>2026-08-19T14:05:36.584Z</time>
      </trkpt>
      <trkpt lat="52.149311" lon="5.086743">
        <ele>-0.937298</ele>
        <time>2026-08-19T14:05:38.002Z</time>
      </trkpt>
      <trkpt lat="52.149203" lon="5.086503">
        <ele>-0.905532</ele>
        <time>2026-08-19T14:05:40.672Z</time>
      </trkpt>
      <trkpt lat="52.147649" lon="5.084295">
        <ele>-0.541453</ele>
        <time>2026-08-19T14:06:13.293Z</time>
      </trkpt>
      <trkpt lat="52.147568" lon="5.084174">
        <ele>-0.521346</ele>
        <time>2026-08-19T14:06:15.061Z</time>
      </trkpt>
      <trkpt lat="52.147486" lon="5.084028">
        <ele>-0.499123</ele>
        <time>2026-08-19T14:06:17.027Z</time>
      </trkpt>
      <trkpt lat="52.147702" lon="5.083709">
        <ele>-0.445785</ele>
        <time>2026-08-19T14:06:21.639Z</time>
      </trkpt>
      <trkpt lat="52.147843" lon="5.083502">
        <ele>-0.411059</ele>
        <time>2026-08-19T14:06:24.581Z</time>
      </trkpt>
      <trkpt lat="52.148269" lon="5.082897">
        <ele>-0.322265</ele>
        <time>2026-08-19T14:06:33.261Z</time>
      </trkpt>
      <trkpt lat="52.148550" lon="5.082523">
        <ele>-0.319642</ele>
        <time>2026-08-19T14:06:38.644Z</time>
      </trkpt>
      <trkpt lat="52.148886" lon="5.082164">
        <ele>-0.316738</ele>
        <time>2026-08-19T14:06:44.543Z</time>
      </trkpt>
      <trkpt lat="52.149880" lon="5.081179">
        <ele>-0.340573</ele>
        <time>2026-08-19T14:07:01.650Z</time>
      </trkpt>
      <trkpt lat="52.150075" lon="5.080930">
        <ele>-0.376400</ele>
        <time>2026-08-19T14:07:05.235Z</time>
      </trkpt>
      <trkpt lat="52.150861" lon="5.079705">
        <ele>-0.533686</ele>
        <time>2026-08-19T14:07:20.627Z</time>
      </trkpt>
      <trkpt lat="52.151038" lon="5.079428">
        <ele>-0.569175</ele>
        <time>2026-08-19T14:07:24.077Z</time>
      </trkpt>
      <trkpt lat="52.152418" lon="5.077094">
        <ele>-0.995233</ele>
        <time>2026-08-19T14:07:52.295Z</time>
      </trkpt>
      <trkpt lat="52.152740" lon="5.076656">
        <ele>-1.163655</ele>
        <time>2026-08-19T14:07:57.917Z</time>
      </trkpt>
      <trkpt lat="52.153287" lon="5.075993">
        <ele>-1.437394</ele>
        <time>2026-08-19T14:08:06.949Z</time>
      </trkpt>
      <trkpt lat="52.153330" lon="5.075942">
        <ele>-1.458749</ele>
        <time>2026-08-19T14:08:07.634Z</time>
      </trkpt>
      <trkpt lat="52.152020" lon="5.073178">
        <ele>-2.088429</ele>
        <time>2026-08-19T14:08:48.398Z</time>
      </trkpt>
      <trkpt lat="52.148538" lon="5.065876">
        <ele>-1.630487</ele>
        <time>2026-08-19T14:10:14.589Z</time>
      </trkpt>
      <trkpt lat="52.147757" lon="5.064340">
        <ele>-1.270644</ele>
        <time>2026-08-19T14:10:34.442Z</time>
      </trkpt>
      <trkpt lat="52.147378" lon="5.063588">
        <ele>-1.119598</ele>
        <time>2026-08-19T14:10:44.247Z</time>
      </trkpt>
      <trkpt lat="52.147155" lon="5.062986">
        <ele>-1.049757</ele>
        <time>2026-08-19T14:10:51.193Z</time>
      </trkpt>
      <trkpt lat="52.146829" lon="5.062260">
        <ele>-0.960406</ele>
        <time>2026-08-19T14:10:59.791Z</time>
      </trkpt>
      <trkpt lat="52.145363" lon="5.059224">
        <ele>-0.970318</ele>
        <time>2026-08-19T14:11:34.122Z</time>
      </trkpt>
      <trkpt lat="52.145328" lon="5.059144">
        <ele>-0.973756</ele>
        <time>2026-08-19T14:11:35.044Z</time>
      </trkpt>
      <trkpt lat="52.145068" lon="5.058606">
        <ele>-0.931528</ele>
        <time>2026-08-19T14:11:41.421Z</time>
      </trkpt>
      <trkpt lat="52.144653" lon="5.057741">
        <ele>-0.863821</ele>
        <time>2026-08-19T14:11:51.779Z</time>
      </trkpt>
      <trkpt lat="52.144556" lon="5.057538">
        <ele>-0.847956</ele>
        <time>2026-08-19T14:11:54.264Z</time>
      </trkpt>
      <trkpt lat="52.144391" lon="5.057176">
        <ele>-0.820149</ele>
        <time>2026-08-19T14:11:58.620Z</time>
      </trkpt>
      <trkpt lat="52.144029" lon="5.056451">
        <ele>-0.749057</ele>
        <time>2026-08-19T14:12:07.460Z</time>
      </trkpt>
      <trkpt lat="52.143934" lon="5.056250">
        <ele>-0.726571</ele>
        <time>2026-08-19T14:12:09.703Z</time>
      </trkpt>
      <trkpt lat="52.143818" lon="5.056012">
        <ele>-0.699633</ele>
        <time>2026-08-19T14:12:12.343Z</time>
      </trkpt>
      <trkpt lat="52.143632" lon="5.055644">
        <ele>-0.657378</ele>
        <time>2026-08-19T14:12:16.717Z</time>
      </trkpt>
      <trkpt lat="52.143585" lon="5.055547">
        <ele>-0.646424</ele>
        <time>2026-08-19T14:12:17.891Z</time>
      </trkpt>
      <trkpt lat="52.143470" lon="5.055314">
        <ele>-0.619923</ele>
        <time>2026-08-19T14:12:20.680Z</time>
      </trkpt>
      <trkpt lat="52.143385" lon="5.055139">
        <ele>-0.600142</ele>
        <time>2026-08-19T14:12:22.788Z</time>
      </trkpt>
      <trkpt lat="52.143362" lon="5.055093">
        <ele>-0.594883</ele>
        <time>2026-08-19T14:12:23.340Z</time>
      </trkpt>
      <trkpt lat="52.142780" lon="5.053886">
        <ele>-0.314299</ele>
        <time>2026-08-19T14:12:38.454Z</time>
      </trkpt>
      <trkpt lat="52.142629" lon="5.053708">
        <ele>-0.235290</ele>
        <time>2026-08-19T14:12:41.702Z</time>
      </trkpt>
      <trkpt lat="52.142674" lon="5.053573">
        <ele>-0.195321</ele>
        <time>2026-08-19T14:12:43.880Z</time>
      </trkpt>
      <trkpt lat="52.142724" lon="5.053421">
        <ele>-0.150453</ele>
        <time>2026-08-19T14:12:46.285Z</time>
      </trkpt>
      <trkpt lat="52.142673" lon="5.053376">
        <ele>-0.125865</ele>
        <time>2026-08-19T14:12:47.621Z</time>
      </trkpt>
      <trkpt lat="52.142492" lon="5.053211">
        <ele>-0.037941</ele>
        <time>2026-08-19T14:12:52.193Z</time>
      </trkpt>
      <trkpt lat="52.142390" lon="5.052695">
        <ele>0.103099</ele>
        <time>2026-08-19T14:12:59.521Z</time>
      </trkpt>
      <trkpt lat="52.142355" lon="5.052503">
        <ele>0.155209</ele>
        <time>2026-08-19T14:13:02.238Z</time>
      </trkpt>
      <trkpt lat="52.142313" lon="5.052266">
        <ele>0.219388</ele>
        <time>2026-08-19T14:13:05.554Z</time>
      </trkpt>
      <trkpt lat="52.142287" lon="5.052124">
        <ele>0.243607</ele>
        <time>2026-08-19T14:13:07.525Z</time>
      </trkpt>
      <trkpt lat="52.142274" lon="5.052054">
        <ele>0.253211</ele>
        <time>2026-08-19T14:13:08.478Z</time>
      </trkpt>
      <trkpt lat="52.142239" lon="5.051857">
        <ele>0.280141</ele>
        <time>2026-08-19T14:13:11.218Z</time>
      </trkpt>
      <trkpt lat="52.142197" lon="5.051626">
        <ele>0.311777</ele>
        <time>2026-08-19T14:13:14.421Z</time>
      </trkpt>
      <trkpt lat="52.142253" lon="5.051602">
        <ele>0.324167</ele>
        <time>2026-08-19T14:13:20.908Z</time>
      </trkpt>
      <trkpt lat="52.142197" lon="5.051626">
        <ele>0.336556</ele>
        <time>2026-08-19T14:13:27.407Z</time>
      </trkpt>
      <trkpt lat="52.141975" lon="5.050392">
        <ele>0.505413</ele>
        <time>2026-08-19T14:13:43.701Z</time>
      </trkpt>
      <trkpt lat="52.141801" lon="5.049343">
        <ele>0.623943</ele>
        <time>2026-08-19T14:13:57.764Z</time>
      </trkpt>
      <trkpt lat="52.141686" lon="5.049281">
        <ele>0.631582</ele>
        <time>2026-08-19T14:14:00.335Z</time>
      </trkpt>
      <trkpt lat="52.141679" lon="5.049226">
        <ele>0.633756</ele>
        <time>2026-08-19T14:14:04.206Z</time>
      </trkpt>
      <trkpt lat="52.141802" lon="5.049281">
        <ele>0.641799</ele>
        <time>2026-08-19T14:14:06.875Z</time>
      </trkpt>
      <trkpt lat="52.141679" lon="5.049226">
        <ele>0.649842</ele>
        <time>2026-08-19T14:14:09.455Z</time>
      </trkpt>
      <trkpt lat="52.141686" lon="5.049281">
        <ele>0.652016</ele>
        <time>2026-08-19T14:14:13.350Z</time>
      </trkpt>
      <trkpt lat="52.141570" lon="5.049370">
        <ele>0.660102</ele>
        <time>2026-08-19T14:14:15.919Z</time>
      </trkpt>
      <trkpt lat="52.141531" lon="5.049410">
        <ele>0.663008</ele>
        <time>2026-08-19T14:14:16.886Z</time>
      </trkpt>
      <trkpt lat="52.141519" lon="5.049361">
        <ele>0.665049</ele>
        <time>2026-08-19T14:14:17.494Z</time>
      </trkpt>
      <trkpt lat="52.141437" lon="5.049094">
        <ele>0.676605</ele>
        <time>2026-08-19T14:14:21.182Z</time>
      </trkpt>
      <trkpt lat="52.141408" lon="5.049003">
        <ele>0.680573</ele>
        <time>2026-08-19T14:14:22.492Z</time>
      </trkpt>
      <trkpt lat="52.141372" lon="5.048894">
        <ele>0.685363</ele>
        <time>2026-08-19T14:14:23.961Z</time>
      </trkpt>
      <trkpt lat="52.141323" lon="5.048919">
        <ele>0.688601</ele>
        <time>2026-08-19T14:14:24.995Z</time>
      </trkpt>
      <trkpt lat="52.141210" lon="5.048884">
        <ele>0.695855</ele>
        <time>2026-08-19T14:14:27.266Z</time>
      </trkpt>
      <trkpt lat="52.141174" lon="5.048826">
        <ele>0.699048</ele>
        <time>2026-08-19T14:14:28.293Z</time>
      </trkpt>
      <trkpt lat="52.140988" lon="5.048502">
        <ele>0.716218</ele>
        <time>2026-08-19T14:14:33.806Z</time>
      </trkpt>
      <trkpt lat="52.140626" lon="5.046677">
        <ele>0.992186</ele>
        <time>2026-08-19T14:14:57.984Z</time>
      </trkpt>
      <trkpt lat="52.140347" lon="5.045263">
        <ele>1.253363</ele>
        <time>2026-08-19T14:15:18.265Z</time>
      </trkpt>
      <trkpt lat="52.140214" lon="5.044397">
        <ele>1.494374</ele>
        <time>2026-08-19T14:15:30.166Z</time>
      </trkpt>
      <trkpt lat="52.140199" lon="5.044297">
        <ele>1.522167</ele>
        <time>2026-08-19T14:15:31.530Z</time>
      </trkpt>
      <trkpt lat="52.140170" lon="5.044137">
        <ele>1.567208</ele>
        <time>2026-08-19T14:15:33.771Z</time>
      </trkpt>
      <trkpt lat="52.140130" lon="5.043849">
        <ele>1.646929</ele>
        <time>2026-08-19T14:15:37.894Z</time>
      </trkpt>
      <trkpt lat="52.140108" lon="5.043701">
        <ele>1.688041</ele>
        <time>2026-08-19T14:15:40.019Z</time>
      </trkpt>
      <trkpt lat="52.140180" lon="5.043394">
        <ele>1.776770</ele>
        <time>2026-08-19T14:15:44.607Z</time>
      </trkpt>
      <trkpt lat="52.140177" lon="5.043314">
        <ele>1.798409</ele>
        <time>2026-08-19T14:15:45.704Z</time>
      </trkpt>
      <trkpt lat="52.140107" lon="5.043143">
        <ele>1.853903</ele>
        <time>2026-08-19T14:15:48.542Z</time>
      </trkpt>
      <trkpt lat="52.140034" lon="5.043087">
        <ele>1.889396</ele>
        <time>2026-08-19T14:15:50.330Z</time>
      </trkpt>
      <trkpt lat="52.140003" lon="5.043058">
        <ele>1.905121</ele>
        <time>2026-08-19T14:15:51.086Z</time>
      </trkpt>
      <trkpt lat="52.139808" lon="5.043226">
        <ele>1.998085</ele>
        <time>2026-08-19T14:15:54.606Z</time>
      </trkpt>
      <trkpt lat="52.139733" lon="5.043244">
        <ele>2.014537</ele>
        <time>2026-08-19T14:15:55.778Z</time>
      </trkpt>
      <trkpt lat="52.139567" lon="5.043291">
        <ele>2.051102</ele>
        <time>2026-08-19T14:15:58.362Z</time>
      </trkpt>
      <trkpt lat="52.139323" lon="5.043357">
        <ele>2.104780</ele>
        <time>2026-08-19T14:16:02.185Z</time>
      </trkpt>
      <trkpt lat="52.139109" lon="5.043472">
        <ele>2.153683</ele>
        <time>2026-08-19T14:16:05.770Z</time>
      </trkpt>
      <trkpt lat="52.138620" lon="5.043915">
        <ele>2.275106</ele>
        <time>2026-08-19T14:16:15.041Z</time>
      </trkpt>
      <trkpt lat="52.138452" lon="5.043077">
        <ele>2.381553</ele>
        <time>2026-08-19T14:16:23.019Z</time>
      </trkpt>
      <trkpt lat="52.138434" lon="5.042974">
        <ele>2.376405</ele>
        <time>2026-08-19T14:16:23.947Z</time>
      </trkpt>
      <trkpt lat="52.138303" lon="5.042206">
        <ele>2.338090</ele>
        <time>2026-08-19T14:16:31.049Z</time>
      </trkpt>
      <trkpt lat="52.138249" lon="5.041673">
        <ele>2.312124</ele>
        <time>2026-08-19T14:16:35.913Z</time>
      </trkpt>
      <trkpt lat="52.138233" lon="5.040414">
        <ele>2.251595</ele>
        <time>2026-08-19T14:16:47.076Z</time>
      </trkpt>
      <trkpt lat="52.138229" lon="5.040265">
        <ele>2.244426</ele>
        <time>2026-08-19T14:16:48.362Z</time>
      </trkpt>
      <trkpt lat="52.138213" lon="5.039705">
        <ele>2.154502</ele>
        <time>2026-08-19T14:16:53.136Z</time>
      </trkpt>
      <trkpt lat="52.138194" lon="5.038982">
        <ele>2.035854</ele>
        <time>2026-08-19T14:16:59.188Z</time>
      </trkpt>
      <trkpt lat="52.138219" lon="5.038924">
        <ele>2.024234</ele>
        <time>2026-08-19T14:16:59.845Z</time>
      </trkpt>
      <trkpt lat="52.138179" lon="5.038851">
        <ele>2.008190</ele>
        <time>2026-08-19T14:17:00.988Z</time>
      </trkpt>
      <trkpt lat="52.138103" lon="5.038833">
        <ele>1.987674</ele>
        <time>2026-08-19T14:17:02.570Z</time>
      </trkpt>
      <trkpt lat="52.137805" lon="5.038565">
        <ele>1.896748</ele>
        <time>2026-08-19T14:17:09.445Z</time>
      </trkpt>
      <trkpt lat="52.137788" lon="5.038528">
        <ele>1.889170</ele>
        <time>2026-08-19T14:17:09.958Z</time>
      </trkpt>
      <trkpt lat="52.137781" lon="5.038386">
        <ele>1.865813</ele>
        <time>2026-08-19T14:17:11.650Z</time>
      </trkpt>
      <trkpt lat="52.137830" lon="5.038283">
        <ele>1.844447</ele>
        <time>2026-08-19T14:17:13.112Z</time>
      </trkpt>
      <trkpt lat="52.137766" lon="5.038152">
        <ele>1.816995</ele>
        <time>2026-08-19T14:17:15.055Z</time>
      </trkpt>
      <trkpt lat="52.137722" lon="5.038062">
        <ele>1.798130</ele>
        <time>2026-08-19T14:17:16.301Z</time>
      </trkpt>
      <trkpt lat="52.137625" lon="5.038028">
        <ele>1.771626</ele>
        <time>2026-08-19T14:17:18.179Z</time>
      </trkpt>
      <trkpt lat="52.137553" lon="5.038046">
        <ele>1.763257</ele>
        <time>2026-08-19T14:17:19.498Z</time>
      </trkpt>
      <trkpt lat="52.137491" lon="5.038103">
        <ele>1.763481</ele>
        <time>2026-08-19T14:17:20.851Z</time>
      </trkpt>
      <trkpt lat="52.137426" lon="5.038259">
        <ele>1.763844</ele>
        <time>2026-08-19T14:17:22.973Z</time>
      </trkpt>
      <trkpt lat="52.137416" lon="5.038333">
        <ele>1.763991</ele>
        <time>2026-08-19T14:17:23.858Z</time>
      </trkpt>
      <trkpt lat="52.137436" lon="5.038405">
        <ele>1.764143</ele>
        <time>2026-08-19T14:17:24.732Z</time>
      </trkpt>
      <trkpt lat="52.137447" lon="5.038471">
        <ele>1.764275</ele>
        <time>2026-08-19T14:17:25.558Z</time>
      </trkpt>
      <trkpt lat="52.137429" lon="5.038553">
        <ele>1.764443</ele>
        <time>2026-08-19T14:17:26.588Z</time>
      </trkpt>
      <trkpt lat="52.137253" lon="5.038964">
        <ele>1.765409</ele>
        <time>2026-08-19T14:17:32.539Z</time>
      </trkpt>
      <trkpt lat="52.137098" lon="5.039197">
        <ele>1.766072</ele>
        <time>2026-08-19T14:17:36.966Z</time>
      </trkpt>
      <trkpt lat="52.136921" lon="5.039398">
        <ele>1.766750</ele>
        <time>2026-08-19T14:17:41.494Z</time>
      </trkpt>
      <trkpt lat="52.136389" lon="5.039996">
        <ele>1.768865</ele>
        <time>2026-08-19T14:17:54.865Z</time>
      </trkpt>
      <trkpt lat="52.135540" lon="5.040906">
        <ele>2.047409</ele>
        <time>2026-08-19T14:18:18.227Z</time>
      </trkpt>
      <trkpt lat="52.135303" lon="5.040999">
        <ele>2.114225</ele>
        <time>2026-08-19T14:18:23.434Z</time>
      </trkpt>
      <trkpt lat="52.135147" lon="5.040973">
        <ele>2.157206</ele>
        <time>2026-08-19T14:18:26.674Z</time>
      </trkpt>
      <trkpt lat="52.135020" lon="5.040905">
        <ele>2.193847</ele>
        <time>2026-08-19T14:18:29.298Z</time>
      </trkpt>
      <trkpt lat="52.135002" lon="5.040894">
        <ele>2.199117</ele>
        <time>2026-08-19T14:18:29.666Z</time>
      </trkpt>
      <trkpt lat="52.134739" lon="5.040629">
        <ele>2.245554</ele>
        <time>2026-08-19T14:18:35.529Z</time>
      </trkpt>
      <trkpt lat="52.134210" lon="5.039892">
        <ele>2.105648</ele>
        <time>2026-08-19T14:18:48.480Z</time>
      </trkpt>
      <trkpt lat="52.134090" lon="5.039720">
        <ele>2.073522</ele>
        <time>2026-08-19T14:18:51.409Z</time>
      </trkpt>
      <trkpt lat="52.132954" lon="5.038144">
        <ele>1.881339</ele>
        <time>2026-08-19T14:19:21.713Z</time>
      </trkpt>
      <trkpt lat="52.132691" lon="5.037777">
        <ele>1.870950</ele>
        <time>2026-08-19T14:19:28.741Z</time>
      </trkpt>
      <trkpt lat="52.132501" lon="5.037508">
        <ele>1.863397</ele>
        <time>2026-08-19T14:19:33.821Z</time>
      </trkpt>
      <trkpt lat="52.132105" lon="5.036862">
        <ele>1.846583</ele>
        <time>2026-08-19T14:19:45.035Z</time>
      </trkpt>
      <trkpt lat="52.132064" lon="5.036773">
        <ele>1.833840</ele>
        <time>2026-08-19T14:19:46.384Z</time>
      </trkpt>
      <trkpt lat="52.131620" lon="5.035838">
        <ele>1.678464</ele>
        <time>2026-08-19T14:20:00.512Z</time>
      </trkpt>
      <trkpt lat="52.131395" lon="5.034746">
        <ele>1.527062</ele>
        <time>2026-08-19T14:20:14.410Z</time>
      </trkpt>
      <trkpt lat="52.131309" lon="5.034191">
        <ele>1.437208</ele>
        <time>2026-08-19T14:20:21.114Z</time>
      </trkpt>
      <trkpt lat="52.131333" lon="5.033996">
        <ele>1.370072</ele>
        <time>2026-08-19T14:20:23.409Z</time>
      </trkpt>
      <trkpt lat="52.131318" lon="5.033911">
        <ele>1.340216</ele>
        <time>2026-08-19T14:20:24.433Z</time>
      </trkpt>
      <trkpt lat="52.131269" lon="5.033826">
        <ele>1.300854</ele>
        <time>2026-08-19T14:20:25.762Z</time>
      </trkpt>
      <trkpt lat="52.131220" lon="5.033688">
        <ele>1.247037</ele>
        <time>2026-08-19T14:20:27.581Z</time>
      </trkpt>
      <trkpt lat="52.130964" lon="5.032957">
        <ele>0.962939</ele>
        <time>2026-08-19T14:20:37.001Z</time>
      </trkpt>
      <trkpt lat="52.130948" lon="5.032784">
        <ele>0.903880</ele>
        <time>2026-08-19T14:20:38.948Z</time>
      </trkpt>
      <trkpt lat="52.130972" lon="5.032716">
        <ele>0.877401</ele>
        <time>2026-08-19T14:20:39.813Z</time>
      </trkpt>
      <trkpt lat="52.131397" lon="5.032114">
        <ele>0.567691</ele>
        <time>2026-08-19T14:20:49.942Z</time>
      </trkpt>
      <trkpt lat="52.131781" lon="5.031656">
        <ele>0.382099</ele>
        <time>2026-08-19T14:20:58.766Z</time>
      </trkpt>
      <trkpt lat="52.131810" lon="5.031630">
        <ele>0.372240</ele>
        <time>2026-08-19T14:20:59.401Z</time>
      </trkpt>
      <trkpt lat="52.131790" lon="5.031589">
        <ele>0.362666</ele>
        <time>2026-08-19T14:21:00.019Z</time>
      </trkpt>
      <trkpt lat="52.131755" lon="5.031498">
        <ele>0.343033</ele>
        <time>2026-08-19T14:21:01.268Z</time>
      </trkpt>
      <trkpt lat="52.131499" lon="5.030913">
        <ele>0.211686</ele>
        <time>2026-08-19T14:21:09.682Z</time>
      </trkpt>
      <trkpt lat="52.131301" lon="5.030473">
        <ele>0.111942</ele>
        <time>2026-08-19T14:21:16.089Z</time>
      </trkpt>
      <trkpt lat="52.130973" lon="5.030096">
        <ele>-0.007615</ele>
        <time>2026-08-19T14:21:23.919Z</time>
      </trkpt>
      <trkpt lat="52.130773" lon="5.029638">
        <ele>-0.045183</ele>
        <time>2026-08-19T14:21:30.794Z</time>
      </trkpt>
      <trkpt lat="52.130750" lon="5.029584">
        <ele>-0.040431</ele>
        <time>2026-08-19T14:21:31.635Z</time>
      </trkpt>
      <trkpt lat="52.130692" lon="5.029432">
        <ele>-0.027491</ele>
        <time>2026-08-19T14:21:33.886Z</time>
      </trkpt>
      <trkpt lat="52.130541" lon="5.029215">
        <ele>-0.003776</ele>
        <time>2026-08-19T14:21:38.008Z</time>
      </trkpt>
      <trkpt lat="52.130491" lon="5.029088">
        <ele>0.007133</ele>
        <time>2026-08-19T14:21:39.917Z</time>
      </trkpt>
      <trkpt lat="52.130471" lon="5.029041">
        <ele>0.011267</ele>
        <time>2026-08-19T14:21:40.631Z</time>
      </trkpt>
      <trkpt lat="52.130345" lon="5.028729">
        <ele>0.038269</ele>
        <time>2026-08-19T14:21:45.278Z</time>
      </trkpt>
      <trkpt lat="52.130290" lon="5.028596">
        <ele>0.049863</ele>
        <time>2026-08-19T14:21:47.263Z</time>
      </trkpt>
      <trkpt lat="52.130241" lon="5.028479">
        <ele>0.060104</ele>
        <time>2026-08-19T14:21:48.554Z</time>
      </trkpt>
      <trkpt lat="52.130041" lon="5.028053">
        <ele>0.098879</ele>
        <time>2026-08-19T14:21:53.693Z</time>
      </trkpt>
      <trkpt lat="52.129898" lon="5.027713">
        <ele>0.128678</ele>
        <time>2026-08-19T14:21:57.779Z</time>
      </trkpt>
      <trkpt lat="52.129866" lon="5.027686">
        <ele>0.132922</ele>
        <time>2026-08-19T14:21:58.367Z</time>
      </trkpt>
      <trkpt lat="52.129631" lon="5.027581">
        <ele>0.192312</ele>
        <time>2026-08-19T14:22:02.361Z</time>
      </trkpt>
      <trkpt lat="52.129598" lon="5.027506">
        <ele>0.214221</ele>
        <time>2026-08-19T14:22:03.289Z</time>
      </trkpt>
      <trkpt lat="52.129277" lon="5.026727">
        <ele>0.436981</ele>
        <time>2026-08-19T14:22:12.649Z</time>
      </trkpt>
      <trkpt lat="52.129207" lon="5.026561">
        <ele>0.484797</ele>
        <time>2026-08-19T14:22:14.558Z</time>
      </trkpt>
      <trkpt lat="52.128923" lon="5.025889">
        <ele>0.678503</ele>
        <time>2026-08-19T14:22:22.746Z</time>
      </trkpt>
      <trkpt lat="52.128861" lon="5.025745">
        <ele>0.720264</ele>
        <time>2026-08-19T14:22:24.580Z</time>
      </trkpt>
      <trkpt lat="52.128752" lon="5.025519">
        <ele>0.788503</ele>
        <time>2026-08-19T14:22:27.596Z</time>
      </trkpt>
      <trkpt lat="52.128545" lon="5.025301">
        <ele>0.883657</ele>
        <time>2026-08-19T14:22:31.792Z</time>
      </trkpt>
      <trkpt lat="52.128457" lon="5.025207">
        <ele>0.924173</ele>
        <time>2026-08-19T14:22:33.568Z</time>
      </trkpt>
      <trkpt lat="52.128422" lon="5.025173">
        <ele>0.939862</ele>
        <time>2026-08-19T14:22:34.260Z</time>
      </trkpt>
      <trkpt lat="52.128393" lon="5.025146">
        <ele>0.952723</ele>
        <time>2026-08-19T14:22:34.827Z</time>
      </trkpt>
      <trkpt lat="52.128340" lon="5.025105">
        <ele>0.975313</ele>
        <time>2026-08-19T14:22:36.131Z</time>
      </trkpt>
      <trkpt lat="52.128193" lon="5.025111">
        <ele>1.031928</ele>
        <time>2026-08-19T14:22:39.327Z</time>
      </trkpt>
      <trkpt lat="52.127688" lon="5.025646">
        <ele>1.263863</ele>
        <time>2026-08-19T14:22:52.297Z</time>
      </trkpt>
      <trkpt lat="52.127579" lon="5.025774">
        <ele>1.315598</ele>
        <time>2026-08-19T14:22:54.553Z</time>
      </trkpt>
      <trkpt lat="52.127310" lon="5.026059">
        <ele>1.439146</ele>
        <time>2026-08-19T14:22:59.955Z</time>
      </trkpt>
      <trkpt lat="52.127209" lon="5.026172">
        <ele>1.486322</ele>
        <time>2026-08-19T14:23:01.893Z</time>
      </trkpt>
      <trkpt lat="52.126632" lon="5.026801">
        <ele>1.532430</ele>
        <time>2026-08-19T14:23:16.298Z</time>
      </trkpt>
      <trkpt lat="52.126596" lon="5.026759">
        <ele>1.532124</ele>
        <time>2026-08-19T14:23:16.947Z</time>
      </trkpt>
      <trkpt lat="52.126586" lon="5.026662">
        <ele>1.531705</ele>
        <time>2026-08-19T14:23:17.827Z</time>
      </trkpt>
      <trkpt lat="52.127044" lon="5.026131">
        <ele>1.527813</ele>
        <time>2026-08-19T14:23:26.049Z</time>
      </trkpt>
      <trkpt lat="52.127072" lon="5.025958">
        <ele>1.527053</ele>
        <time>2026-08-19T14:23:27.643Z</time>
      </trkpt>
      <trkpt lat="52.127045" lon="5.025812">
        <ele>1.526405</ele>
        <time>2026-08-19T14:23:28.990Z</time>
      </trkpt>
      <trkpt lat="52.126396" lon="5.024224">
        <ele>1.282403</ele>
        <time>2026-08-19T14:23:45.730Z</time>
      </trkpt>
      <trkpt lat="52.125816" lon="5.023028">
        <ele>1.002476</ele>
        <time>2026-08-19T14:23:58.514Z</time>
      </trkpt>
      <trkpt lat="52.124855" lon="5.021639">
        <ele>0.196012</ele>
        <time>2026-08-19T14:24:14.896Z</time>
      </trkpt>
      <trkpt lat="52.124148" lon="5.020661">
        <ele>-0.229840</ele>
        <time>2026-08-19T14:24:26.730Z</time>
      </trkpt>
      <trkpt lat="52.123935" lon="5.020364">
        <ele>-0.276704</ele>
        <time>2026-08-19T14:24:32.270Z</time>
      </trkpt>
      <trkpt lat="52.123730" lon="5.020097">
        <ele>-0.320574</ele>
        <time>2026-08-19T14:24:36.073Z</time>
      </trkpt>
      <trkpt lat="52.123445" lon="5.019769">
        <ele>-0.378900</ele>
        <time>2026-08-19T14:24:41.238Z</time>
      </trkpt>
      <trkpt lat="52.123256" lon="5.019638">
        <ele>-0.413230</ele>
        <time>2026-08-19T14:24:44.331Z</time>
      </trkpt>
      <trkpt lat="52.123070" lon="5.019613">
        <ele>-0.444423</ele>
        <time>2026-08-19T14:24:47.169Z</time>
      </trkpt>
      <trkpt lat="52.122928" lon="5.019655">
        <ele>-0.468544</ele>
        <time>2026-08-19T14:24:49.390Z</time>
      </trkpt>
      <trkpt lat="52.122711" lon="5.019832">
        <ele>-0.518795</ele>
        <time>2026-08-19T14:24:53.196Z</time>
      </trkpt>
      <trkpt lat="52.122551" lon="5.020101">
        <ele>-0.566905</ele>
        <time>2026-08-19T14:24:56.719Z</time>
      </trkpt>
      <trkpt lat="52.122145" lon="5.021100">
        <ele>-0.720798</ele>
        <time>2026-08-19T14:25:07.038Z</time>
      </trkpt>
      <trkpt lat="52.122088" lon="5.021037">
        <ele>-0.735210</ele>
        <time>2026-08-19T14:25:08.008Z</time>
      </trkpt>
      <trkpt lat="52.122039" lon="5.020981">
        <ele>-0.747734</ele>
        <time>2026-08-19T14:25:08.834Z</time>
      </trkpt>
      <trkpt lat="52.121981" lon="5.020924">
        <ele>-0.761906</ele>
        <time>2026-08-19T14:25:09.787Z</time>
      </trkpt>
      <trkpt lat="52.121845" lon="5.020922">
        <ele>-0.790361</ele>
        <time>2026-08-19T14:25:11.715Z</time>
      </trkpt>
      <trkpt lat="52.121804" lon="5.020991">
        <ele>-0.802696</ele>
        <time>2026-08-19T14:25:12.531Z</time>
      </trkpt>
      <trkpt lat="52.121765" lon="5.021067">
        <ele>-0.815420</ele>
        <time>2026-08-19T14:25:13.369Z</time>
      </trkpt>
      <trkpt lat="52.121718" lon="5.021161">
        <ele>-0.830992</ele>
        <time>2026-08-19T14:25:14.384Z</time>
      </trkpt>
      <trkpt lat="52.121415" lon="5.020684">
        <ele>-1.021178</ele>
        <time>2026-08-19T14:25:19.883Z</time>
      </trkpt>
      <trkpt lat="52.121134" lon="5.020121">
        <ele>-1.246047</ele>
        <time>2026-08-19T14:25:25.434Z</time>
      </trkpt>
      <trkpt lat="52.120881" lon="5.019394">
        <ele>-1.505042</ele>
        <time>2026-08-19T14:25:32.223Z</time>
      </trkpt>
      <trkpt lat="52.120686" lon="5.019018">
        <ele>-1.657583</ele>
        <time>2026-08-19T14:25:36.278Z</time>
      </trkpt>
      <trkpt lat="52.120556" lon="5.018858">
        <ele>-1.739834</ele>
        <time>2026-08-19T14:25:38.460Z</time>
      </trkpt>
      <trkpt lat="52.120211" lon="5.018709">
        <ele>-1.742062</ele>
        <time>2026-08-19T14:25:43.293Z</time>
      </trkpt>
      <trkpt lat="52.120131" lon="5.018669">
        <ele>-1.738791</ele>
        <time>2026-08-19T14:25:44.492Z</time>
      </trkpt>
      <trkpt lat="52.116785" lon="5.016892">
        <ele>-1.046100</ele>
        <time>2026-08-19T14:26:39.675Z</time>
      </trkpt>
      <trkpt lat="52.116584" lon="5.016776">
        <ele>-0.920203</ele>
        <time>2026-08-19T14:26:43.359Z</time>
      </trkpt>
      <trkpt lat="52.116474" lon="5.016718">
        <ele>-0.851943</ele>
        <time>2026-08-19T14:26:45.394Z</time>
      </trkpt>
      <trkpt lat="52.114099" lon="5.015458">
        <ele>0.542959</ele>
        <time>2026-08-19T14:27:29.663Z</time>
      </trkpt>
      <trkpt lat="52.113857" lon="5.015427">
        <ele>0.672044</ele>
        <time>2026-08-19T14:27:33.430Z</time>
      </trkpt>
      <trkpt lat="52.113815" lon="5.015398">
        <ele>0.696303</ele>
        <time>2026-08-19T14:27:34.130Z</time>
      </trkpt>
      <trkpt lat="52.113778" lon="5.015281">
        <ele>0.739278</ele>
        <time>2026-08-19T14:27:35.344Z</time>
      </trkpt>
      <trkpt lat="52.113775" lon="5.015161">
        <ele>0.774420</ele>
        <time>2026-08-19T14:27:36.459Z</time>
      </trkpt>
      <trkpt lat="52.113821" lon="5.015023">
        <ele>0.752408</ele>
        <time>2026-08-19T14:27:37.875Z</time>
      </trkpt>
      <trkpt lat="52.113905" lon="5.014931">
        <ele>0.729299</ele>
        <time>2026-08-19T14:27:39.362Z</time>
      </trkpt>
      <trkpt lat="52.113929" lon="5.014905">
        <ele>0.722719</ele>
        <time>2026-08-19T14:27:39.783Z</time>
      </trkpt>
      <trkpt lat="52.113961" lon="5.014787">
        <ele>0.704637</ele>
        <time>2026-08-19T14:27:40.932Z</time>
      </trkpt>
      <trkpt lat="52.114255" lon="5.013961">
        <ele>0.570802</ele>
        <time>2026-08-19T14:27:48.905Z</time>
      </trkpt>
      <trkpt lat="52.114465" lon="5.013183">
        <ele>0.451670</ele>
        <time>2026-08-19T14:27:55.841Z</time>
      </trkpt>
      <trkpt lat="52.114514" lon="5.013129">
        <ele>0.438164</ele>
        <time>2026-08-19T14:27:56.655Z</time>
      </trkpt>
      <trkpt lat="52.114542" lon="5.013099">
        <ele>0.430513</ele>
        <time>2026-08-19T14:27:57.124Z</time>
      </trkpt>
      <trkpt lat="52.114595" lon="5.013003">
        <ele>0.412417</ele>
        <time>2026-08-19T14:27:58.211Z</time>
      </trkpt>
      <trkpt lat="52.114659" lon="5.012773">
        <ele>0.377020</ele>
        <time>2026-08-19T14:28:00.407Z</time>
      </trkpt>
      <trkpt lat="52.115005" lon="5.011261">
        <ele>0.408145</ele>
        <time>2026-08-19T14:28:15.057Z</time>
      </trkpt>
      <trkpt lat="52.115125" lon="5.010881">
        <ele>0.420192</ele>
        <time>2026-08-19T14:28:19.193Z</time>
      </trkpt>
      <trkpt lat="52.115194" lon="5.010655">
        <ele>0.427308</ele>
        <time>2026-08-19T14:28:21.656Z</time>
      </trkpt>
      <trkpt lat="52.115244" lon="5.010501">
        <ele>0.432220</ele>
        <time>2026-08-19T14:28:23.334Z</time>
      </trkpt>
      <trkpt lat="52.115381" lon="5.010232">
        <ele>0.442073</ele>
        <time>2026-08-19T14:28:26.683Z</time>
      </trkpt>
      <trkpt lat="52.115498" lon="5.010090">
        <ele>0.443146</ele>
        <time>2026-08-19T14:28:28.968Z</time>
      </trkpt>
      <trkpt lat="52.115842" lon="5.009796">
        <ele>0.372475</ele>
        <time>2026-08-19T14:28:34.820Z</time>
      </trkpt>
      <trkpt lat="52.116002" lon="5.009590">
        <ele>0.335372</ele>
        <time>2026-08-19T14:28:37.729Z</time>
      </trkpt>
      <trkpt lat="52.116273" lon="5.009121">
        <ele>0.263436</ele>
        <time>2026-08-19T14:28:43.266Z</time>
      </trkpt>
      <trkpt lat="52.116341" lon="5.008987">
        <ele>0.244018</ele>
        <time>2026-08-19T14:28:44.729Z</time>
      </trkpt>
      <trkpt lat="52.117301" lon="5.007143">
        <ele>-0.030252</ele>
        <time>2026-08-19T14:29:04.759Z</time>
      </trkpt>
      <trkpt lat="52.117395" lon="5.006914">
        <ele>-0.061908</ele>
        <time>2026-08-19T14:29:07.102Z</time>
      </trkpt>
      <trkpt lat="52.117520" lon="5.006488">
        <ele>-0.116168</ele>
        <time>2026-08-19T14:29:11.278Z</time>
      </trkpt>
      <trkpt lat="52.117658" lon="5.005421">
        <ele>-0.226314</ele>
        <time>2026-08-19T14:29:21.604Z</time>
      </trkpt>
      <trkpt lat="52.117801" lon="5.004265">
        <ele>-0.280592</ele>
        <time>2026-08-19T14:29:32.671Z</time>
      </trkpt>
      <trkpt lat="52.117821" lon="5.004139">
        <ele>-0.286582</ele>
        <time>2026-08-19T14:29:33.811Z</time>
      </trkpt>
      <trkpt lat="52.117837" lon="5.004035">
        <ele>-0.291517</ele>
        <time>2026-08-19T14:29:34.770Z</time>
      </trkpt>
      <trkpt lat="52.117866" lon="5.003825">
        <ele>-0.301425</ele>
        <time>2026-08-19T14:29:36.654Z</time>
      </trkpt>
      <trkpt lat="52.117816" lon="5.003806">
        <ele>-0.305273</ele>
        <time>2026-08-19T14:29:37.373Z</time>
      </trkpt>
      <trkpt lat="52.117919" lon="5.003186">
        <ele>-0.334837</ele>
        <time>2026-08-19T14:29:42.826Z</time>
      </trkpt>
      <trkpt lat="52.118107" lon="5.002376">
        <ele>-0.227385</ele>
        <time>2026-08-19T14:29:50.153Z</time>
      </trkpt>
      <trkpt lat="52.118238" lon="5.001426">
        <ele>0.006504</ele>
        <time>2026-08-19T14:29:59.412Z</time>
      </trkpt>
      <trkpt lat="52.118257" lon="5.001319">
        <ele>0.033260</ele>
        <time>2026-08-19T14:30:00.590Z</time>
      </trkpt>
      <trkpt lat="52.118326" lon="5.000950">
        <ele>0.125919</ele>
        <time>2026-08-19T14:30:04.577Z</time>
      </trkpt>
      <trkpt lat="52.118592" lon="4.999657">
        <ele>0.450549</ele>
        <time>2026-08-19T14:30:20.180Z</time>
      </trkpt>
      <trkpt lat="52.118736" lon="4.998962">
        <ele>0.621617</ele>
        <time>2026-08-19T14:30:28.652Z</time>
      </trkpt>
      <trkpt lat="52.119006" lon="4.997660">
        <ele>0.942119</ele>
        <time>2026-08-19T14:30:41.888Z</time>
      </trkpt>
      <trkpt lat="52.119055" lon="4.997520">
        <ele>0.979702</ele>
        <time>2026-08-19T14:30:43.266Z</time>
      </trkpt>
      <trkpt lat="52.118941" lon="4.997291">
        <ele>1.022630</ele>
        <time>2026-08-19T14:30:46.656Z</time>
      </trkpt>
      <trkpt lat="52.118854" lon="4.997208">
        <ele>0.982771</ele>
        <time>2026-08-19T14:30:48.577Z</time>
      </trkpt>
      <trkpt lat="52.117927" lon="4.996685">
        <ele>0.594945</ele>
        <time>2026-08-19T14:31:06.841Z</time>
      </trkpt>
      <trkpt lat="52.117667" lon="4.996539">
        <ele>0.486225</ele>
        <time>2026-08-19T14:31:11.897Z</time>
      </trkpt>
      <trkpt lat="52.118122" lon="4.994783">
        <ele>0.144071</ele>
        <time>2026-08-19T14:31:33.987Z</time>
      </trkpt>
      <trkpt lat="52.118756" lon="4.992191">
        <ele>0.492387</ele>
        <time>2026-08-19T14:32:07.994Z</time>
      </trkpt>
      <trkpt lat="52.118857" lon="4.991845">
        <ele>0.699022</ele>
        <time>2026-08-19T14:32:12.352Z</time>
      </trkpt>
      <trkpt lat="52.119466" lon="4.989312">
        <ele>2.222879</ele>
        <time>2026-08-19T14:32:47.793Z</time>
      </trkpt>
      <trkpt lat="52.119731" lon="4.988494">
        <ele>2.762791</ele>
        <time>2026-08-19T14:32:58.287Z</time>
      </trkpt>
      <trkpt lat="52.119778" lon="4.988304">
        <ele>2.882370</ele>
        <time>2026-08-19T14:33:01.083Z</time>
      </trkpt>
      <trkpt lat="52.119788" lon="4.988237">
        <ele>2.922621</ele>
        <time>2026-08-19T14:33:02.011Z</time>
      </trkpt>
      <trkpt lat="52.119810" lon="4.988077">
        <ele>3.018337</ele>
        <time>2026-08-19T14:33:04.164Z</time>
      </trkpt>
      <trkpt lat="52.119802" lon="4.987571">
        <ele>3.124050</ele>
        <time>2026-08-19T14:33:08.848Z</time>
      </trkpt>
      <trkpt lat="52.119591" lon="4.984536">
        <ele>2.085156</ele>
        <time>2026-08-19T14:33:33.301Z</time>
      </trkpt>
      <trkpt lat="52.119587" lon="4.984482">
        <ele>2.048325</ele>
        <time>2026-08-19T14:33:33.703Z</time>
      </trkpt>
      <trkpt lat="52.119578" lon="4.984376">
        <ele>1.975865</ele>
        <time>2026-08-19T14:33:34.475Z</time>
      </trkpt>
      <trkpt lat="52.119560" lon="4.984151">
        <ele>1.822222</ele>
        <time>2026-08-19T14:33:36.119Z</time>
      </trkpt>
      <trkpt lat="52.119431" lon="4.983405">
        <ele>1.297426</ele>
        <time>2026-08-19T14:33:41.706Z</time>
      </trkpt>
      <trkpt lat="52.119450" lon="4.983074">
        <ele>1.072315</ele>
        <time>2026-08-19T14:33:44.082Z</time>
      </trkpt>
      <trkpt lat="52.119498" lon="4.982869">
        <ele>0.923751</ele>
        <time>2026-08-19T14:33:45.649Z</time>
      </trkpt>
      <trkpt lat="52.119529" lon="4.982776">
        <ele>0.852096</ele>
        <time>2026-08-19T14:33:46.400Z</time>
      </trkpt>
      <trkpt lat="52.119210" lon="4.982583">
        <ele>0.476812</ele>
        <time>2026-08-19T14:33:52.055Z</time>
      </trkpt>
      <trkpt lat="52.116231" lon="4.980697">
        <ele>-1.337100</ele>
        <time>2026-08-19T14:34:49.831Z</time>
      </trkpt>
      <trkpt lat="52.115959" lon="4.980525">
        <ele>-1.408234</ele>
        <time>2026-08-19T14:34:56.260Z</time>
      </trkpt>
      <trkpt lat="52.114941" lon="4.979869">
        <ele>-0.941996</ele>
        <time>2026-08-19T14:35:21.915Z</time>
      </trkpt>
      <trkpt lat="52.114874" lon="4.979875">
        <ele>-0.900764</ele>
        <time>2026-08-19T14:35:23.528Z</time>
      </trkpt>
      <trkpt lat="52.114851" lon="4.979940">
        <ele>-0.872457</ele>
        <time>2026-08-19T14:35:24.643Z</time>
      </trkpt>
      <trkpt lat="52.114828" lon="4.980030">
        <ele>-0.835674</ele>
        <time>2026-08-19T14:35:26.073Z</time>
      </trkpt>
      <trkpt lat="52.114022" lon="4.979511">
        <ele>-0.358922</ele>
        <time>2026-08-19T14:35:45.469Z</time>
      </trkpt>
      <trkpt lat="52.113168" lon="4.978780">
        <ele>-0.330999</ele>
        <time>2026-08-19T14:36:05.094Z</time>
      </trkpt>
      <trkpt lat="52.113060" lon="4.978639">
        <ele>-0.326993</ele>
        <time>2026-08-19T14:36:07.855Z</time>
      </trkpt>
      <trkpt lat="52.112787" lon="4.978383">
        <ele>-0.317875</ele>
        <time>2026-08-19T14:36:14.093Z</time>
      </trkpt>
      <trkpt lat="52.110905" lon="4.976744">
        <ele>-0.645476</ele>
        <time>2026-08-19T14:36:43.865Z</time>
      </trkpt>
      <trkpt lat="52.109237" lon="4.975223">
        <ele>-0.331041</ele>
        <time>2026-08-19T14:37:14.866Z</time>
      </trkpt>
      <trkpt lat="52.108374" lon="4.974448">
        <ele>-0.662039</ele>
        <time>2026-08-19T14:37:28.173Z</time>
      </trkpt>
      <trkpt lat="52.108294" lon="4.974377">
        <ele>-0.692639</ele>
        <time>2026-08-19T14:37:29.334Z</time>
      </trkpt>
      <trkpt lat="52.107943" lon="4.974058">
        <ele>-0.827643</ele>
        <time>2026-08-19T14:37:34.332Z</time>
      </trkpt>
      <trkpt lat="52.107141" lon="4.973130">
        <ele>-0.793695</ele>
        <time>2026-08-19T14:37:47.901Z</time>
      </trkpt>
      <trkpt lat="52.106977" lon="4.973000">
        <ele>-0.774640</ele>
        <time>2026-08-19T14:37:50.869Z</time>
      </trkpt>
      <trkpt lat="52.106809" lon="4.972827">
        <ele>-0.753875</ele>
        <time>2026-08-19T14:37:55.329Z</time>
      </trkpt>
      <trkpt lat="52.106678" lon="4.972611">
        <ele>-0.734399</ele>
        <time>2026-08-19T14:37:59.529Z</time>
      </trkpt>
      <trkpt lat="52.106036" lon="4.971908">
        <ele>-0.649992</ele>
        <time>2026-08-19T14:38:17.254Z</time>
      </trkpt>
      <trkpt lat="52.105745" lon="4.971589">
        <ele>-0.609949</ele>
        <time>2026-08-19T14:38:24.587Z</time>
      </trkpt>
      <trkpt lat="52.105088" lon="4.970888">
        <ele>-0.520287</ele>
        <time>2026-08-19T14:38:35.881Z</time>
      </trkpt>
      <trkpt lat="52.104831" lon="4.970709">
        <ele>-0.488381</ele>
        <time>2026-08-19T14:38:40.004Z</time>
      </trkpt>
      <trkpt lat="52.104707" lon="4.970805">
        <ele>-0.477723</ele>
        <time>2026-08-19T14:38:42.014Z</time>
      </trkpt>
      <trkpt lat="52.104599" lon="4.971009">
        <ele>-0.465490</ele>
        <time>2026-08-19T14:38:44.463Z</time>
      </trkpt>
      <trkpt lat="52.104302" lon="4.971777">
        <ele>-0.424268</ele>
        <time>2026-08-19T14:38:52.597Z</time>
      </trkpt>
      <trkpt lat="52.104258" lon="4.971848">
        <ele>-0.419686</ele>
        <time>2026-08-19T14:38:53.505Z</time>
      </trkpt>
      <trkpt lat="52.104098" lon="4.971922">
        <ele>-0.407386</ele>
        <time>2026-08-19T14:38:55.973Z</time>
      </trkpt>
      <trkpt lat="52.103594" lon="4.971788">
        <ele>-0.369621</ele>
        <time>2026-08-19T14:39:04.039Z</time>
      </trkpt>
      <trkpt lat="52.103077" lon="4.971515">
        <ele>-0.247718</ele>
        <time>2026-08-19T14:39:12.446Z</time>
      </trkpt>
      <trkpt lat="52.102988" lon="4.971447">
        <ele>-0.216211</ele>
        <time>2026-08-19T14:39:13.968Z</time>
      </trkpt>
      <trkpt lat="52.100854" lon="4.969814">
        <ele>0.403065</ele>
        <time>2026-08-19T14:39:52.246Z</time>
      </trkpt>
      <trkpt lat="52.100701" lon="4.969671">
        <ele>0.435276</ele>
        <time>2026-08-19T14:39:54.879Z</time>
      </trkpt>
      <trkpt lat="52.100713" lon="4.969628">
        <ele>0.440573</ele>
        <time>2026-08-19T14:39:55.278Z</time>
      </trkpt>
      <trkpt lat="52.098343" lon="4.967876">
        <ele>0.521861</ele>
        <time>2026-08-19T14:40:33.444Z</time>
      </trkpt>
      <trkpt lat="52.097654" lon="4.967359">
        <ele>0.682209</ele>
        <time>2026-08-19T14:40:45.910Z</time>
      </trkpt>
      <trkpt lat="52.096639" lon="4.966596">
        <ele>0.805519</ele>
        <time>2026-08-19T14:41:03.332Z</time>
      </trkpt>
      <trkpt lat="52.096410" lon="4.966332">
        <ele>0.750875</ele>
        <time>2026-08-19T14:41:07.267Z</time>
      </trkpt>
      <trkpt lat="52.096325" lon="4.966187">
        <ele>0.726898</ele>
        <time>2026-08-19T14:41:08.961Z</time>
      </trkpt>
      <trkpt lat="52.096275" lon="4.966088">
        <ele>0.711566</ele>
        <time>2026-08-19T14:41:10.036Z</time>
      </trkpt>
      <trkpt lat="52.096225" lon="4.965928">
        <ele>0.690091</ele>
        <time>2026-08-19T14:41:11.558Z</time>
      </trkpt>
      <trkpt lat="52.096141" lon="4.965649">
        <ele>0.652922</ele>
        <time>2026-08-19T14:41:14.153Z</time>
      </trkpt>
      <trkpt lat="52.095851" lon="4.964753">
        <ele>0.531766</ele>
        <time>2026-08-19T14:41:22.562Z</time>
      </trkpt>
      <trkpt lat="52.095634" lon="4.964338">
        <ele>0.510382</ele>
        <time>2026-08-19T14:41:27.286Z</time>
      </trkpt>
      <trkpt lat="52.095258" lon="4.963886">
        <ele>0.512370</ele>
        <time>2026-08-19T14:41:34.199Z</time>
      </trkpt>
      <trkpt lat="52.094832" lon="4.963517">
        <ele>0.514423</ele>
        <time>2026-08-19T14:41:41.454Z</time>
      </trkpt>
      <trkpt lat="52.094069" lon="4.963033">
        <ele>0.614834</ele>
        <time>2026-08-19T14:41:53.993Z</time>
      </trkpt>
      <trkpt lat="52.093570" lon="4.962802">
        <ele>0.881120</ele>
        <time>2026-08-19T14:42:02.348Z</time>
      </trkpt>
      <trkpt lat="52.093172" lon="4.962662">
        <ele>1.090123</ele>
        <time>2026-08-19T14:42:09.189Z</time>
      </trkpt>
      <trkpt lat="52.092689" lon="4.962651">
        <ele>1.338064</ele>
        <time>2026-08-19T14:42:17.886Z</time>
      </trkpt>
      <trkpt lat="52.092212" lon="4.962748">
        <ele>1.494219</ele>
        <time>2026-08-19T14:42:26.585Z</time>
      </trkpt>
      <trkpt lat="52.091844" lon="4.962820">
        <ele>1.565199</ele>
        <time>2026-08-19T14:42:33.060Z</time>
      </trkpt>
      <trkpt lat="52.091703" lon="4.962792">
        <ele>1.592401</ele>
        <time>2026-08-19T14:42:35.417Z</time>
      </trkpt>
      <trkpt lat="52.091661" lon="4.963035">
        <ele>1.622101</ele>
        <time>2026-08-19T14:42:38.783Z</time>
      </trkpt>
      <trkpt lat="52.091640" lon="4.963170">
        <ele>1.638487</ele>
        <time>2026-08-19T14:42:40.103Z</time>
      </trkpt>
      <trkpt lat="52.091637" lon="4.963198">
        <ele>1.641831</ele>
        <time>2026-08-19T14:42:40.361Z</time>
      </trkpt>
      <trkpt lat="52.091596" lon="4.963484">
        <ele>1.676385</ele>
        <time>2026-08-19T14:42:43.996Z</time>
      </trkpt>
      <trkpt lat="52.091534" lon="4.963882">
        <ele>1.724694</ele>
        <time>2026-08-19T14:42:48.791Z</time>
      </trkpt>
      <trkpt lat="52.091566" lon="4.964306">
        <ele>1.774957</ele>
        <time>2026-08-19T14:42:53.653Z</time>
      </trkpt>
      <trkpt lat="52.091585" lon="4.964549">
        <ele>1.728539</ele>
        <time>2026-08-19T14:42:56.421Z</time>
      </trkpt>
      <trkpt lat="52.091574" lon="4.964781">
        <ele>1.647651</ele>
        <time>2026-08-19T14:42:59.141Z</time>
      </trkpt>
      <trkpt lat="52.091036" lon="4.964947">
        <ele>1.337834</ele>
        <time>2026-08-19T14:43:09.251Z</time>
      </trkpt>
      <trkpt lat="52.090962" lon="4.964376">
        <ele>1.134971</ele>
        <time>2026-08-19T14:43:15.699Z</time>
      </trkpt>
      <trkpt lat="52.090961" lon="4.964069">
        <ele>1.028248</ele>
        <time>2026-08-19T14:43:19.103Z</time>
      </trkpt>
      <trkpt lat="52.090980" lon="4.963946">
        <ele>0.984159</ele>
        <time>2026-08-19T14:43:20.473Z</time>
      </trkpt>
      <trkpt lat="52.091031" lon="4.963603">
        <ele>0.861481</ele>
        <time>2026-08-19T14:43:24.441Z</time>
      </trkpt>
      <trkpt lat="52.090572" lon="4.963299">
        <ele>0.704462</ele>
        <time>2026-08-19T14:43:33.825Z</time>
      </trkpt>
      <trkpt lat="52.089850" lon="4.963571">
        <ele>0.563259</ele>
        <time>2026-08-19T14:43:47.635Z</time>
      </trkpt>
      <trkpt lat="52.089782" lon="4.963597">
        <ele>0.549950</ele>
        <time>2026-08-19T14:43:48.972Z</time>
      </trkpt>
      <trkpt lat="52.089733" lon="4.963618">
        <ele>0.540296</ele>
        <time>2026-08-19T14:43:49.687Z</time>
      </trkpt>
      <trkpt lat="52.089316" lon="4.963796">
        <ele>0.458156</ele>
        <time>2026-08-19T14:43:56.143Z</time>
      </trkpt>
      <trkpt lat="52.089216" lon="4.963882">
        <ele>0.436606</ele>
        <time>2026-08-19T14:43:57.965Z</time>
      </trkpt>
      <trkpt lat="52.088831" lon="4.964019">
        <ele>0.435574</ele>
        <time>2026-08-19T14:44:04.366Z</time>
      </trkpt>
      <trkpt lat="52.088343" lon="4.964131">
        <ele>0.452271</ele>
        <time>2026-08-19T14:44:12.463Z</time>
      </trkpt>
      <trkpt lat="52.088256" lon="4.964319">
        <ele>0.457170</ele>
        <time>2026-08-19T14:44:14.732Z</time>
      </trkpt>
      <trkpt lat="52.088123" lon="4.964293">
        <ele>0.461708</ele>
        <time>2026-08-19T14:44:16.763Z</time>
      </trkpt>
      <trkpt lat="52.087720" lon="4.964440">
        <ele>0.475701</ele>
        <time>2026-08-19T14:44:22.702Z</time>
      </trkpt>
      <trkpt lat="52.087659" lon="4.964463">
        <ele>0.477822</ele>
        <time>2026-08-19T14:44:23.590Z</time>
      </trkpt>
      <trkpt lat="52.087370" lon="4.964600">
        <ele>0.471365</ele>
        <time>2026-08-19T14:44:27.711Z</time>
      </trkpt>
      <trkpt lat="52.086956" lon="4.964925">
        <ele>0.390492</ele>
        <time>2026-08-19T14:44:33.782Z</time>
      </trkpt>
      <trkpt lat="52.086363" lon="4.965142">
        <ele>0.283552</ele>
        <time>2026-08-19T14:44:41.848Z</time>
      </trkpt>
      <trkpt lat="52.085360" lon="4.965479">
        <ele>0.258868</ele>
        <time>2026-08-19T14:44:57.907Z</time>
      </trkpt>
      <trkpt lat="52.085231" lon="4.965462">
        <ele>0.290151</ele>
        <time>2026-08-19T14:45:00.136Z</time>
      </trkpt>
      <trkpt lat="52.084952" lon="4.965522">
        <ele>0.358174</ele>
        <time>2026-08-19T14:45:04.896Z</time>
      </trkpt>
      <trkpt lat="52.084899" lon="4.965502">
        <ele>0.371325</ele>
        <time>2026-08-19T14:45:05.798Z</time>
      </trkpt>
      <trkpt lat="52.084849" lon="4.965421">
        <ele>0.388378</ele>
        <time>2026-08-19T14:45:06.980Z</time>
      </trkpt>
      <trkpt lat="52.084739" lon="4.964692">
        <ele>0.499873</ele>
        <time>2026-08-19T14:45:14.479Z</time>
      </trkpt>
      <trkpt lat="52.084654" lon="4.964713">
        <ele>0.520654</ele>
        <time>2026-08-19T14:45:15.823Z</time>
      </trkpt>
      <trkpt lat="52.084465" lon="4.964771">
        <ele>0.567143</ele>
        <time>2026-08-19T14:45:18.845Z</time>
      </trkpt>
      <trkpt lat="52.083199" lon="4.965372">
        <ele>0.365439</ele>
        <time>2026-08-19T14:45:37.217Z</time>
      </trkpt>
      <trkpt lat="52.083146" lon="4.965401">
        <ele>0.354035</ele>
        <time>2026-08-19T14:45:37.981Z</time>
      </trkpt>
      <trkpt lat="52.083091" lon="4.965428">
        <ele>0.342318</ele>
        <time>2026-08-19T14:45:39.062Z</time>
      </trkpt>
      <trkpt lat="52.082643" lon="4.965656">
        <ele>0.246585</ele>
        <time>2026-08-19T14:45:48.100Z</time>
      </trkpt>
      <trkpt lat="52.082358" lon="4.965797">
        <ele>0.227826</ele>
        <time>2026-08-19T14:45:53.957Z</time>
      </trkpt>
      <trkpt lat="52.081851" lon="4.965976">
        <ele>0.209214</ele>
        <time>2026-08-19T14:46:04.256Z</time>
      </trkpt>
      <trkpt lat="52.081485" lon="4.966065">
        <ele>0.195938</ele>
        <time>2026-08-19T14:46:11.670Z</time>
      </trkpt>
      <trkpt lat="52.080967" lon="4.966117">
        <ele>0.177320</ele>
        <time>2026-08-19T14:46:22.460Z</time>
      </trkpt>
      <trkpt lat="52.080030" lon="4.966118">
        <ele>0.111123</ele>
        <time>2026-08-19T14:46:41.627Z</time>
      </trkpt>
      <trkpt lat="52.079864" lon="4.966091">
        <ele>0.098309</ele>
        <time>2026-08-19T14:46:44.077Z</time>
      </trkpt>
      <trkpt lat="52.079676" lon="4.965991">
        <ele>0.083118</ele>
        <time>2026-08-19T14:46:46.966Z</time>
      </trkpt>
      <trkpt lat="52.079463" lon="4.965757">
        <ele>0.063379</ele>
        <time>2026-08-19T14:46:50.652Z</time>
      </trkpt>
      <trkpt lat="52.079317" lon="4.965497">
        <ele>0.046755</ele>
        <time>2026-08-19T14:46:53.698Z</time>
      </trkpt>
      <trkpt lat="52.079260" lon="4.965334">
        <ele>0.037903</ele>
        <time>2026-08-19T14:46:55.300Z</time>
      </trkpt>
      <trkpt lat="52.079183" lon="4.964968">
        <ele>-0.034706</ele>
        <time>2026-08-19T14:46:58.560Z</time>
      </trkpt>
      <trkpt lat="52.078902" lon="4.962925">
        <ele>-0.504533</ele>
        <time>2026-08-19T14:47:15.834Z</time>
      </trkpt>
      <trkpt lat="52.078790" lon="4.962530">
        <ele>-0.602159</ele>
        <time>2026-08-19T14:47:19.425Z</time>
      </trkpt>
      <trkpt lat="52.078492" lon="4.961970">
        <ele>-0.719916</ele>
        <time>2026-08-19T14:47:25.693Z</time>
      </trkpt>
      <trkpt lat="52.078292" lon="4.961427">
        <ele>-0.814720</ele>
        <time>2026-08-19T14:47:31.128Z</time>
      </trkpt>
      <trkpt lat="52.078238" lon="4.961081">
        <ele>-0.868181</ele>
        <time>2026-08-19T14:47:34.282Z</time>
      </trkpt>
      <trkpt lat="52.078196" lon="4.960819">
        <ele>-0.908730</ele>
        <time>2026-08-19T14:47:36.650Z</time>
      </trkpt>
      <trkpt lat="52.078045" lon="4.959682">
        <ele>-1.077536</ele>
        <time>2026-08-19T14:47:46.719Z</time>
      </trkpt>
      <trkpt lat="52.077989" lon="4.959313">
        <ele>-1.120476</ele>
        <time>2026-08-19T14:47:50.040Z</time>
      </trkpt>
      <trkpt lat="52.077907" lon="4.959002">
        <ele>-1.158708</ele>
        <time>2026-08-19T14:47:52.928Z</time>
      </trkpt>
      <trkpt lat="52.077787" lon="4.958796">
        <ele>-1.190773</ele>
        <time>2026-08-19T14:47:55.352Z</time>
      </trkpt>
      <trkpt lat="52.077598" lon="4.958661">
        <ele>-1.228716</ele>
        <time>2026-08-19T14:47:58.195Z</time>
      </trkpt>
      <trkpt lat="52.077323" lon="4.958640">
        <ele>-1.279322</ele>
        <time>2026-08-19T14:48:01.996Z</time>
      </trkpt>
      <trkpt lat="52.066716" lon="4.961536">
        <ele>-1.279844</ele>
        <time>2026-08-19T14:50:41.226Z</time>
      </trkpt>
      <trkpt lat="52.066511" lon="4.961560">
        <ele>-1.258396</ele>
        <time>2026-08-19T14:50:44.422Z</time>
      </trkpt>
      <trkpt lat="52.066351" lon="4.961563">
        <ele>-1.241698</ele>
        <time>2026-08-19T14:50:46.978Z</time>
      </trkpt>
      <trkpt lat="52.065816" lon="4.961351">
        <ele>-1.145275</ele>
        <time>2026-08-19T14:50:55.997Z</time>
      </trkpt>
      <trkpt lat="52.065186" lon="4.961063">
        <ele>-0.982186</ele>
        <time>2026-08-19T14:51:06.347Z</time>
      </trkpt>
      <trkpt lat="52.064891" lon="4.960953">
        <ele>-0.906760</ele>
        <time>2026-08-19T14:51:11.135Z</time>
      </trkpt>
      <trkpt lat="52.064662" lon="4.960938">
        <ele>-0.849644</ele>
        <time>2026-08-19T14:51:14.846Z</time>
      </trkpt>
      <trkpt lat="52.064424" lon="4.960952">
        <ele>-0.790291</ele>
        <time>2026-08-19T14:51:18.625Z</time>
      </trkpt>
      <trkpt lat="52.060839" lon="4.961562">
        <ele>-0.607253</ele>
        <time>2026-08-19T14:52:12.563Z</time>
      </trkpt>
      <trkpt lat="52.059768" lon="4.961798">
        <ele>-0.505346</ele>
        <time>2026-08-19T14:52:28.784Z</time>
      </trkpt>
      <trkpt lat="52.057469" lon="4.962084">
        <ele>-0.092696</ele>
        <time>2026-08-19T14:53:04.811Z</time>
      </trkpt>
      <trkpt lat="52.056994" lon="4.962112">
        <ele>-0.003377</ele>
        <time>2026-08-19T14:53:12.380Z</time>
      </trkpt>
      <trkpt lat="52.056691" lon="4.962000">
        <ele>0.035678</ele>
        <time>2026-08-19T14:53:17.330Z</time>
      </trkpt>
      <trkpt lat="52.056621" lon="4.961967">
        <ele>0.044838</ele>
        <time>2026-08-19T14:53:18.453Z</time>
      </trkpt>
      <trkpt lat="52.056347" lon="4.961714">
        <ele>0.084440</ele>
        <time>2026-08-19T14:53:23.363Z</time>
      </trkpt>
      <trkpt lat="52.056185" lon="4.961493">
        <ele>0.111016</ele>
        <time>2026-08-19T14:53:26.627Z</time>
      </trkpt>
      <trkpt lat="52.056075" lon="4.961284">
        <ele>0.132278</ele>
        <time>2026-08-19T14:53:29.189Z</time>
      </trkpt>
      <trkpt lat="52.055398" lon="4.959620">
        <ele>0.254238</ele>
        <time>2026-08-19T14:53:47.369Z</time>
      </trkpt>
      <trkpt lat="52.054995" lon="4.958495">
        <ele>0.316566</ele>
        <time>2026-08-19T14:53:59.476Z</time>
      </trkpt>
      <trkpt lat="52.054639" lon="4.957262">
        <ele>0.351917</ele>
        <time>2026-08-19T14:54:12.405Z</time>
      </trkpt>
      <trkpt lat="52.054626" lon="4.957215">
        <ele>0.352541</ele>
        <time>2026-08-19T14:54:12.886Z</time>
      </trkpt>
      <trkpt lat="52.054627" lon="4.957029">
        <ele>0.354796</ele>
        <time>2026-08-19T14:54:14.645Z</time>
      </trkpt>
      <trkpt lat="52.054586" lon="4.956758">
        <ele>0.358180</ele>
        <time>2026-08-19T14:54:17.265Z</time>
      </trkpt>
      <trkpt lat="52.054529" lon="4.956499">
        <ele>0.361514</ele>
        <time>2026-08-19T14:54:19.832Z</time>
      </trkpt>
      <trkpt lat="52.054468" lon="4.956415">
        <ele>0.363090</ele>
        <time>2026-08-19T14:54:21.027Z</time>
      </trkpt>
      <trkpt lat="52.054349" lon="4.956016">
        <ele>0.368466</ele>
        <time>2026-08-19T14:54:25.040Z</time>
      </trkpt>
      <trkpt lat="52.054266" lon="4.955746">
        <ele>0.372126</ele>
        <time>2026-08-19T14:54:27.719Z</time>
      </trkpt>
      <trkpt lat="52.054044" lon="4.955042">
        <ele>0.366254</ele>
        <time>2026-08-19T14:54:34.564Z</time>
      </trkpt>
      <trkpt lat="52.053725" lon="4.954309">
        <ele>0.339445</ele>
        <time>2026-08-19T14:54:42.423Z</time>
      </trkpt>
      <trkpt lat="52.053606" lon="4.954082">
        <ele>0.330540</ele>
        <time>2026-08-19T14:54:45.079Z</time>
      </trkpt>
      <trkpt lat="52.053344" lon="4.953682">
        <ele>0.313093</ele>
        <time>2026-08-19T14:54:50.335Z</time>
      </trkpt>
      <trkpt lat="52.051885" lon="4.952056">
        <ele>0.488103</ele>
        <time>2026-08-19T14:55:17.793Z</time>
      </trkpt>
      <trkpt lat="52.051764" lon="4.951863">
        <ele>0.514108</ele>
        <time>2026-08-19T14:55:20.435Z</time>
      </trkpt>
      <trkpt lat="52.051675" lon="4.951564">
        <ele>0.545451</ele>
        <time>2026-08-19T14:55:23.571Z</time>
      </trkpt>
      <trkpt lat="52.051567" lon="4.950951">
        <ele>0.526609</ele>
        <time>2026-08-19T14:55:29.494Z</time>
      </trkpt>
      <trkpt lat="52.051582" lon="4.950783">
        <ele>0.510766</ele>
        <time>2026-08-19T14:55:31.067Z</time>
      </trkpt>
      <trkpt lat="52.051562" lon="4.950645">
        <ele>0.497534</ele>
        <time>2026-08-19T14:55:32.358Z</time>
      </trkpt>
      <trkpt lat="52.051474" lon="4.950303">
        <ele>0.462935</ele>
        <time>2026-08-19T14:55:35.740Z</time>
      </trkpt>
      <trkpt lat="52.051374" lon="4.950099">
        <ele>0.438588</ele>
        <time>2026-08-19T14:55:38.096Z</time>
      </trkpt>
      <trkpt lat="52.050725" lon="4.948362">
        <ele>0.279390</ele>
        <time>2026-08-19T14:55:55.171Z</time>
      </trkpt>
      <trkpt lat="52.050694" lon="4.948281">
        <ele>0.276652</ele>
        <time>2026-08-19T14:55:55.970Z</time>
      </trkpt>
      <trkpt lat="52.050436" lon="4.947572">
        <ele>0.253005</ele>
        <time>2026-08-19T14:56:02.962Z</time>
      </trkpt>
      <trkpt lat="52.049552" lon="4.945011">
        <ele>0.435754</ele>
        <time>2026-08-19T14:56:31.201Z</time>
      </trkpt>
      <trkpt lat="52.049343" lon="4.944342">
        <ele>0.557037</ele>
        <time>2026-08-19T14:56:38.962Z</time>
      </trkpt>
      <trkpt lat="52.048807" lon="4.943267">
        <ele>0.612449</ele>
        <time>2026-08-19T14:56:52.428Z</time>
      </trkpt>
      <trkpt lat="52.048959" lon="4.943140">
        <ele>0.581037</ele>
        <time>2026-08-19T14:56:55.019Z</time>
      </trkpt>
      <trkpt lat="52.049127" lon="4.943097">
        <ele>0.549776</ele>
        <time>2026-08-19T14:56:57.554Z</time>
      </trkpt>
      <trkpt lat="52.059328" lon="4.941055">
        <ele>-1.335793</ele>
        <time>2026-08-19T14:59:21.887Z</time>
      </trkpt>
      <trkpt lat="52.059499" lon="4.941009">
        <ele>-1.342771</ele>
        <time>2026-08-19T14:59:24.421Z</time>
      </trkpt>
      <trkpt lat="52.059528" lon="4.940986">
        <ele>-1.344070</ele>
        <time>2026-08-19T14:59:24.894Z</time>
      </trkpt>
      <trkpt lat="52.059622" lon="4.940915">
        <ele>-1.348242</ele>
        <time>2026-08-19T14:59:26.415Z</time>
      </trkpt>
      <trkpt lat="52.059892" lon="4.940602">
        <ele>-1.361591</ele>
        <time>2026-08-19T14:59:31.302Z</time>
      </trkpt>
      <trkpt lat="52.060040" lon="4.940505">
        <ele>-1.368016</ele>
        <time>2026-08-19T14:59:33.658Z</time>
      </trkpt>
      <trkpt lat="52.060175" lon="4.940470">
        <ele>-1.373519</ele>
        <time>2026-08-19T14:59:35.698Z</time>
      </trkpt>
      <trkpt lat="52.062140" lon="4.940101">
        <ele>-1.400000</ele>
        <time>2026-08-19T15:00:05.217Z</time>
      </trkpt>
      <trkpt lat="52.062717" lon="4.939930">
        <ele>-1.398491</ele>
        <time>2026-08-19T15:00:13.808Z</time>
      </trkpt>
      <trkpt lat="52.063639" lon="4.939785">
        <ele>-1.385570</ele>
        <time>2026-08-19T15:00:27.744Z</time>
      </trkpt>
      <trkpt lat="52.064009" lon="4.939683">
        <ele>-1.380336</ele>
        <time>2026-08-19T15:00:33.337Z</time>
      </trkpt>
      <trkpt lat="52.064131" lon="4.939579">
        <ele>-1.378414</ele>
        <time>2026-08-19T15:00:35.389Z</time>
      </trkpt>
      <trkpt lat="52.064235" lon="4.939399">
        <ele>-1.376296</ele>
        <time>2026-08-19T15:00:37.652Z</time>
      </trkpt>
      <trkpt lat="52.064897" lon="4.937960">
        <ele>-1.401647</ele>
        <time>2026-08-19T15:00:54.106Z</time>
      </trkpt>
      <trkpt lat="52.065230" lon="4.937300">
        <ele>-1.415602</ele>
        <time>2026-08-19T15:01:01.680Z</time>
      </trkpt>
      <trkpt lat="52.066386" lon="4.935132">
        <ele>-1.533145</ele>
        <time>2026-08-19T15:01:27.207Z</time>
      </trkpt>
      <trkpt lat="52.067158" lon="4.933626">
        <ele>-1.548805</ele>
        <time>2026-08-19T15:01:45.485Z</time>
      </trkpt>
      <trkpt lat="52.068537" lon="4.931001">
        <ele>-1.617500</ele>
        <time>2026-08-19T15:02:16.440Z</time>
      </trkpt>
      <trkpt lat="52.068716" lon="4.930533">
        <ele>-1.638295</ele>
        <time>2026-08-19T15:02:21.412Z</time>
      </trkpt>
      <trkpt lat="52.068759" lon="4.930418">
        <ele>-1.643374</ele>
        <time>2026-08-19T15:02:22.597Z</time>
      </trkpt>
      <trkpt lat="52.069076" lon="4.929774">
        <ele>-1.687169</ele>
        <time>2026-08-19T15:02:29.861Z</time>
      </trkpt>
      <trkpt lat="52.069617" lon="4.928731">
        <ele>-1.768422</ele>
        <time>2026-08-19T15:02:41.699Z</time>
      </trkpt>
      <trkpt lat="52.069880" lon="4.928221">
        <ele>-1.808056</ele>
        <time>2026-08-19T15:02:47.635Z</time>
      </trkpt>
      <trkpt lat="52.070021" lon="4.927878">
        <ele>-1.820796</ele>
        <time>2026-08-19T15:02:51.432Z</time>
      </trkpt>
      <trkpt lat="52.070471" lon="4.926567">
        <ele>-1.728676</ele>
        <time>2026-08-19T15:03:05.819Z</time>
      </trkpt>
      <trkpt lat="52.071047" lon="4.925023">
        <ele>-1.679917</ele>
        <time>2026-08-19T15:03:22.601Z</time>
      </trkpt>
      <trkpt lat="52.071145" lon="4.924765">
        <ele>-1.700563</ele>
        <time>2026-08-19T15:03:25.263Z</time>
      </trkpt>
      <trkpt lat="52.071629" lon="4.923613">
        <ele>-1.795553</ele>
        <time>2026-08-19T15:03:37.464Z</time>
      </trkpt>
      <trkpt lat="52.072175" lon="4.922551">
        <ele>-1.886056</ele>
        <time>2026-08-19T15:03:49.553Z</time>
      </trkpt>
      <trkpt lat="52.073467" lon="4.920015">
        <ele>-1.904826</ele>
        <time>2026-08-19T15:04:18.860Z</time>
      </trkpt>
      <trkpt lat="52.073803" lon="4.919354">
        <ele>-1.799218</ele>
        <time>2026-08-19T15:04:27.427Z</time>
      </trkpt>
      <trkpt lat="52.073907" lon="4.919065">
        <ele>-1.757987</ele>
        <time>2026-08-19T15:04:30.771Z</time>
      </trkpt>
      <trkpt lat="52.073936" lon="4.918923">
        <ele>-1.739564</ele>
        <time>2026-08-19T15:04:32.373Z</time>
      </trkpt>
      <trkpt lat="52.073851" lon="4.918877">
        <ele>-1.721620</ele>
        <time>2026-08-19T15:04:33.813Z</time>
      </trkpt>
      <trkpt lat="52.073792" lon="4.918789">
        <ele>-1.705587</ele>
        <time>2026-08-19T15:04:35.202Z</time>
      </trkpt>
      <trkpt lat="52.073764" lon="4.918660">
        <ele>-1.688743</ele>
        <time>2026-08-19T15:04:36.590Z</time>
      </trkpt>
      <trkpt lat="52.073790" lon="4.918422">
        <ele>-1.659947</ele>
        <time>2026-08-19T15:04:39.114Z</time>
      </trkpt>
      <trkpt lat="52.074049" lon="4.917227">
        <ele>-1.520341</ele>
        <time>2026-08-19T15:04:51.421Z</time>
      </trkpt>
      <trkpt lat="52.074062" lon="4.917106">
        <ele>-1.506808</ele>
        <time>2026-08-19T15:04:52.540Z</time>
      </trkpt>
      <trkpt lat="52.074043" lon="4.916969">
        <ele>-1.491334</ele>
        <time>2026-08-19T15:04:53.856Z</time>
      </trkpt>
      <trkpt lat="52.069633" lon="4.904193">
        <ele>-0.622009</ele>
        <time>2026-08-19T15:07:09.966Z</time>
      </trkpt>
      <trkpt lat="52.069590" lon="4.904059">
        <ele>-0.599278</ele>
        <time>2026-08-19T15:07:11.523Z</time>
      </trkpt>
      <trkpt lat="52.069479" lon="4.903613">
        <ele>-0.526921</ele>
        <time>2026-08-19T15:07:16.377Z</time>
      </trkpt>
      <trkpt lat="52.070183" lon="4.903286">
        <ele>-0.354549</ele>
        <time>2026-08-19T15:07:28.397Z</time>
      </trkpt>
      <trkpt lat="52.070216" lon="4.903217">
        <ele>-0.342525</ele>
        <time>2026-08-19T15:07:29.322Z</time>
      </trkpt>
      <trkpt lat="52.070201" lon="4.903143">
        <ele>-0.331809</ele>
        <time>2026-08-19T15:07:30.100Z</time>
      </trkpt>
      <trkpt lat="52.070174" lon="4.903002">
        <ele>-0.311499</ele>
        <time>2026-08-19T15:07:31.602Z</time>
      </trkpt>
      <trkpt lat="52.070177" lon="4.902881">
        <ele>-0.294845</ele>
        <time>2026-08-19T15:07:32.820Z</time>
      </trkpt>
      <trkpt lat="52.070505" lon="4.902718">
        <ele>-0.218114</ele>
        <time>2026-08-19T15:07:38.453Z</time>
      </trkpt>
      <trkpt lat="52.071440" lon="4.902168">
        <ele>-0.029563</ele>
        <time>2026-08-19T15:07:53.405Z</time>
      </trkpt>
      <trkpt lat="52.072094" lon="4.901867">
        <ele>-0.058207</ele>
        <time>2026-08-19T15:08:02.967Z</time>
      </trkpt>
      <trkpt lat="52.072544" lon="4.901715">
        <ele>-0.077577</ele>
        <time>2026-08-19T15:08:09.984Z</time>
      </trkpt>
      <trkpt lat="52.072885" lon="4.901702">
        <ele>-0.091952</ele>
        <time>2026-08-19T15:08:14.944Z</time>
      </trkpt>
      <trkpt lat="52.072900" lon="4.901528">
        <ele>-0.096504</ele>
        <time>2026-08-19T15:08:16.525Z</time>
      </trkpt>
      <trkpt lat="52.072927" lon="4.901451">
        <ele>-0.098800</ele>
        <time>2026-08-19T15:08:17.302Z</time>
      </trkpt>
      <trkpt lat="52.073090" lon="4.901240">
        <ele>-0.119394</ele>
        <time>2026-08-19T15:08:21.451Z</time>
      </trkpt>
      <trkpt lat="52.073229" lon="4.900971">
        <ele>-0.142678</ele>
        <time>2026-08-19T15:08:25.792Z</time>
      </trkpt>
      <trkpt lat="52.073207" lon="4.900938">
        <ele>-0.145903</ele>
        <time>2026-08-19T15:08:26.401Z</time>
      </trkpt>
      <trkpt lat="52.073144" lon="4.900843">
        <ele>-0.155163</ele>
        <time>2026-08-19T15:08:28.178Z</time>
      </trkpt>
      <trkpt lat="52.073128" lon="4.900817">
        <ele>-0.157600</ele>
        <time>2026-08-19T15:08:28.633Z</time>
      </trkpt>
      <trkpt lat="52.073372" lon="4.900393">
        <ele>-0.196083</ele>
        <time>2026-08-19T15:08:36.120Z</time>
      </trkpt>
      <trkpt lat="52.073598" lon="4.900090">
        <ele>-0.227651</ele>
        <time>2026-08-19T15:08:42.130Z</time>
      </trkpt>
      <trkpt lat="52.073626" lon="4.900052">
        <ele>-0.231581</ele>
        <time>2026-08-19T15:08:42.844Z</time>
      </trkpt>
      <trkpt lat="52.073742" lon="4.899892">
        <ele>-0.247974</ele>
        <time>2026-08-19T15:08:45.709Z</time>
      </trkpt>
      <trkpt lat="52.073887" lon="4.899607">
        <ele>-0.272486</ele>
        <time>2026-08-19T15:08:49.952Z</time>
      </trkpt>
      <trkpt lat="52.074219" lon="4.898593">
        <ele>-0.379759</ele>
        <time>2026-08-19T15:09:03.290Z</time>
      </trkpt>
      <trkpt lat="52.074287" lon="4.898000">
        <ele>-0.442476</ele>
        <time>2026-08-19T15:09:10.497Z</time>
      </trkpt>
      <trkpt lat="52.074282" lon="4.897153">
        <ele>-0.530541</ele>
        <time>2026-08-19T15:09:20.770Z</time>
      </trkpt>
      <trkpt lat="52.074423" lon="4.896174">
        <ele>-0.569681</ele>
        <time>2026-08-19T15:09:33.238Z</time>
      </trkpt>
      <trkpt lat="52.074416" lon="4.895928">
        <ele>-0.549981</ele>
        <time>2026-08-19T15:09:36.349Z</time>
      </trkpt>
      <trkpt lat="52.074377" lon="4.895746">
        <ele>-0.534562</ele>
        <time>2026-08-19T15:09:38.796Z</time>
      </trkpt>
      <trkpt lat="52.074245" lon="4.895430">
        <ele>-0.503997</ele>
        <time>2026-08-19T15:09:43.671Z</time>
      </trkpt>
      <trkpt lat="52.073933" lon="4.894882">
        <ele>-0.444240</ele>
        <time>2026-08-19T15:09:53.296Z</time>
      </trkpt>
      <trkpt lat="52.073880" lon="4.894671">
        <ele>-0.426005</ele>
        <time>2026-08-19T15:09:56.260Z</time>
      </trkpt>
      <trkpt lat="52.073788" lon="4.893471">
        <ele>-0.308501</ele>
        <time>2026-08-19T15:10:11.962Z</time>
      </trkpt>
      <trkpt lat="52.073740" lon="4.892235">
        <ele>-0.150247</ele>
        <time>2026-08-19T15:10:28.053Z</time>
      </trkpt>
      <trkpt lat="52.073698" lon="4.891641">
        <ele>-0.073843</ele>
        <time>2026-08-19T15:10:35.886Z</time>
      </trkpt>
      <trkpt lat="52.073491" lon="4.890496">
        <ele>-0.007568</ele>
        <time>2026-08-19T15:10:51.092Z</time>
      </trkpt>
      <trkpt lat="52.073434" lon="4.890030">
        <ele>-0.023003</ele>
        <time>2026-08-19T15:10:56.892Z</time>
      </trkpt>
      <trkpt lat="52.073417" lon="4.889812">
        <ele>-0.030142</ele>
        <time>2026-08-19T15:10:59.590Z</time>
      </trkpt>
      <trkpt lat="52.073436" lon="4.889479">
        <ele>-0.041006</ele>
        <time>2026-08-19T15:11:03.676Z</time>
      </trkpt>
      <trkpt lat="52.073454" lon="4.889054">
        <ele>-0.054846</ele>
        <time>2026-08-19T15:11:08.808Z</time>
      </trkpt>
      <trkpt lat="52.073646" lon="4.886775">
        <ele>-0.104130</ele>
        <time>2026-08-19T15:11:36.599Z</time>
      </trkpt>
      <trkpt lat="52.073764" lon="4.885360">
        <ele>-0.123948</ele>
        <time>2026-08-19T15:11:54.580Z</time>
      </trkpt>
      <trkpt lat="52.073836" lon="4.884896">
        <ele>-0.103773</ele>
        <time>2026-08-19T15:12:00.885Z</time>
      </trkpt>
      <trkpt lat="52.073958" lon="4.884334">
        <ele>-0.066065</ele>
        <time>2026-08-19T15:12:08.564Z</time>
      </trkpt>
      <trkpt lat="52.073983" lon="4.884350">
        <ele>-0.063300</ele>
        <time>2026-08-19T15:12:09.114Z</time>
      </trkpt>
      <trkpt lat="52.074065" lon="4.884393">
        <ele>-0.054432</ele>
        <time>2026-08-19T15:12:10.898Z</time>
      </trkpt>
      <trkpt lat="52.074076" lon="4.884400">
        <ele>-0.053216</ele>
        <time>2026-08-19T15:12:11.138Z</time>
      </trkpt>
      <trkpt lat="52.074094" lon="4.884411">
        <ele>-0.051237</ele>
        <time>2026-08-19T15:12:11.537Z</time>
      </trkpt>
      <trkpt lat="52.074376" lon="4.883802">
        <ele>-0.002999</ele>
        <time>2026-08-19T15:12:21.078Z</time>
      </trkpt>
      <trkpt lat="52.074411" lon="4.883686">
        <ele>0.005177</ele>
        <time>2026-08-19T15:12:22.693Z</time>
      </trkpt>
      <trkpt lat="52.074523" lon="4.883301">
        <ele>0.032124</ele>
        <time>2026-08-19T15:12:28.061Z</time>
      </trkpt>
      <trkpt lat="52.074546" lon="4.883077">
        <ele>0.046492</ele>
        <time>2026-08-19T15:12:30.990Z</time>
      </trkpt>
      <trkpt lat="52.074869" lon="4.881763">
        <ele>0.032887</ele>
        <time>2026-08-19T15:12:48.815Z</time>
      </trkpt>
      <trkpt lat="52.075133" lon="4.881164">
        <ele>0.016777</ele>
        <time>2026-08-19T15:12:55.222Z</time>
      </trkpt>
      <trkpt lat="52.075398" lon="4.880610">
        <ele>0.001433</ele>
        <time>2026-08-19T15:13:01.413Z</time>
      </trkpt>
      <trkpt lat="52.075579" lon="4.880480">
        <ele>-0.004835</ele>
        <time>2026-08-19T15:13:04.267Z</time>
      </trkpt>
      <trkpt lat="52.075623" lon="4.880416">
        <ele>-0.005340</ele>
        <time>2026-08-19T15:13:05.110Z</time>
      </trkpt>
      <trkpt lat="52.075657" lon="4.880300">
        <ele>-0.006015</ele>
        <time>2026-08-19T15:13:06.264Z</time>
      </trkpt>
      <trkpt lat="52.076251" lon="4.878086">
        <ele>-0.018713</ele>
        <time>2026-08-19T15:13:28.019Z</time>
      </trkpt>
      <trkpt lat="52.076263" lon="4.878042">
        <ele>-0.018966</ele>
        <time>2026-08-19T15:13:28.493Z</time>
      </trkpt>
      <trkpt lat="52.077067" lon="4.875685">
        <ele>0.230291</ele>
        <time>2026-08-19T15:13:54.744Z</time>
      </trkpt>
      <trkpt lat="52.077085" lon="4.875574">
        <ele>0.241765</ele>
        <time>2026-08-19T15:13:55.830Z</time>
      </trkpt>
      <trkpt lat="52.077069" lon="4.875469">
        <ele>0.252578</ele>
        <time>2026-08-19T15:13:56.855Z</time>
      </trkpt>
      <trkpt lat="52.076949" lon="4.875285">
        <ele>0.263830</ele>
        <time>2026-08-19T15:13:59.346Z</time>
      </trkpt>
      <trkpt lat="52.076321" lon="4.874363">
        <ele>0.089498</ele>
        <time>2026-08-19T15:14:11.564Z</time>
      </trkpt>
      <trkpt lat="52.075306" lon="4.872905">
        <ele>-0.261081</ele>
        <time>2026-08-19T15:14:29.868Z</time>
      </trkpt>
      <trkpt lat="52.075262" lon="4.872844">
        <ele>-0.282320</ele>
        <time>2026-08-19T15:14:30.635Z</time>
      </trkpt>
      <trkpt lat="52.074594" lon="4.871938">
        <ele>-0.601845</ele>
        <time>2026-08-19T15:14:42.367Z</time>
      </trkpt>
      <trkpt lat="52.074480" lon="4.871703">
        <ele>-0.669452</ele>
        <time>2026-08-19T15:14:44.900Z</time>
      </trkpt>
      <trkpt lat="52.073839" lon="4.869209">
        <ele>-1.003275</ele>
        <time>2026-08-19T15:15:08.306Z</time>
      </trkpt>
      <trkpt lat="52.073780" lon="4.868989">
        <ele>-1.028692</ele>
        <time>2026-08-19T15:15:10.426Z</time>
      </trkpt>
      <trkpt lat="52.073703" lon="4.868694">
        <ele>-1.062631</ele>
        <time>2026-08-19T15:15:13.259Z</time>
      </trkpt>
      <trkpt lat="52.072954" lon="4.865933">
        <ele>-1.032826</ele>
        <time>2026-08-19T15:15:41.045Z</time>
      </trkpt>
      <trkpt lat="52.072491" lon="4.864172">
        <ele>-1.144780</ele>
        <time>2026-08-19T15:15:58.113Z</time>
      </trkpt>
      <trkpt lat="52.072328" lon="4.863376">
        <ele>-1.193822</ele>
        <time>2026-08-19T15:16:08.291Z</time>
      </trkpt>
      <trkpt lat="52.072296" lon="4.863222">
        <ele>-1.204184</ele>
        <time>2026-08-19T15:16:10.287Z</time>
      </trkpt>
      <trkpt lat="52.072122" lon="4.862417">
        <ele>-1.285644</ele>
        <time>2026-08-19T15:16:20.602Z</time>
      </trkpt>
      <trkpt lat="52.072018" lon="4.861967">
        <ele>-1.331538</ele>
        <time>2026-08-19T15:16:26.361Z</time>
      </trkpt>
      <trkpt lat="52.071882" lon="4.861449">
        <ele>-1.385309</ele>
        <time>2026-08-19T15:16:33.107Z</time>
      </trkpt>
      <trkpt lat="52.071853" lon="4.861367">
        <ele>-1.394340</ele>
        <time>2026-08-19T15:16:34.242Z</time>
      </trkpt>
      <trkpt lat="52.071706" lon="4.860910">
        <ele>-1.443579</ele>
        <time>2026-08-19T15:16:40.470Z</time>
      </trkpt>
      <trkpt lat="52.071399" lon="4.859981">
        <ele>-1.443051</ele>
        <time>2026-08-19T15:16:53.251Z</time>
      </trkpt>
      <trkpt lat="52.071328" lon="4.859780">
        <ele>-1.429605</ele>
        <time>2026-08-19T15:16:56.074Z</time>
      </trkpt>
      <trkpt lat="52.070490" lon="4.857407">
        <ele>-1.296129</ele>
        <time>2026-08-19T15:17:31.400Z</time>
      </trkpt>
      <trkpt lat="52.070455" lon="4.857226">
        <ele>-1.291952</ele>
        <time>2026-08-19T15:17:33.927Z</time>
      </trkpt>
      <trkpt lat="52.070442" lon="4.856209">
        <ele>-1.269556</ele>
        <time>2026-08-19T15:17:46.872Z</time>
      </trkpt>
      <trkpt lat="52.070445" lon="4.855912">
        <ele>-1.263016</ele>
        <time>2026-08-19T15:17:49.537Z</time>
      </trkpt>
      <trkpt lat="52.070455" lon="4.855711">
        <ele>-1.258576</ele>
        <time>2026-08-19T15:17:51.975Z</time>
      </trkpt>
      <trkpt lat="52.070490" lon="4.855617">
        <ele>-1.256156</ele>
        <time>2026-08-19T15:17:53.315Z</time>
      </trkpt>
      <trkpt lat="52.070587" lon="4.855502">
        <ele>-1.251858</ele>
        <time>2026-08-19T15:17:55.650Z</time>
      </trkpt>
      <trkpt lat="52.070761" lon="4.855461">
        <ele>-1.252529</ele>
        <time>2026-08-19T15:17:59.029Z</time>
      </trkpt>
      <trkpt lat="52.070969" lon="4.855407">
        <ele>-1.277821</ele>
        <time>2026-08-19T15:18:03.003Z</time>
      </trkpt>
      <trkpt lat="52.071070" lon="4.855199">
        <ele>-1.297385</ele>
        <time>2026-08-19T15:18:06.041Z</time>
      </trkpt>
      <trkpt lat="52.071225" lon="4.853175">
        <ele>-1.447925</ele>
        <time>2026-08-19T15:18:30.488Z</time>
      </trkpt>
      <trkpt lat="52.071220" lon="4.852905">
        <ele>-1.449505</ele>
        <time>2026-08-19T15:18:34.152Z</time>
      </trkpt>
      <trkpt lat="52.071180" lon="4.852789">
        <ele>-1.421232</ele>
        <time>2026-08-19T15:18:35.948Z</time>
      </trkpt>
      <trkpt lat="52.071115" lon="4.852695">
        <ele>-1.391157</ele>
        <time>2026-08-19T15:18:37.826Z</time>
      </trkpt>
      <trkpt lat="52.070695" lon="4.852358">
        <ele>-1.229211</ele>
        <time>2026-08-19T15:18:48.022Z</time>
      </trkpt>
      <trkpt lat="52.070544" lon="4.852174">
        <ele>-1.163969</ele>
        <time>2026-08-19T15:18:52.223Z</time>
      </trkpt>
      <trkpt lat="52.070507" lon="4.852088">
        <ele>-1.141656</ele>
        <time>2026-08-19T15:18:53.681Z</time>
      </trkpt>
      <trkpt lat="52.070479" lon="4.851865">
        <ele>-1.093274</ele>
        <time>2026-08-19T15:18:56.854Z</time>
      </trkpt>
      <trkpt lat="52.070477" lon="4.851302">
        <ele>-0.973596</ele>
        <time>2026-08-19T15:19:04.588Z</time>
      </trkpt>
      <trkpt lat="52.070467" lon="4.847678">
        <ele>-0.498359</ele>
        <time>2026-08-19T15:19:51.621Z</time>
      </trkpt>
      <trkpt lat="52.070450" lon="4.846775">
        <ele>-0.578068</ele>
        <time>2026-08-19T15:20:02.567Z</time>
      </trkpt>
      <trkpt lat="52.070422" lon="4.845771">
        <ele>-0.666743</ele>
        <time>2026-08-19T15:20:14.452Z</time>
      </trkpt>
      <trkpt lat="52.070400" lon="4.845254">
        <ele>-0.712468</ele>
        <time>2026-08-19T15:20:20.582Z</time>
      </trkpt>
      <trkpt lat="52.070387" lon="4.844909">
        <ele>-0.742964</ele>
        <time>2026-08-19T15:20:24.730Z</time>
      </trkpt>
      <trkpt lat="52.070379" lon="4.844679">
        <ele>-0.752946</ele>
        <time>2026-08-19T15:20:27.522Z</time>
      </trkpt>
      <trkpt lat="52.070376" lon="4.844610">
        <ele>-0.754324</ele>
        <time>2026-08-19T15:20:28.356Z</time>
      </trkpt>
      <trkpt lat="52.070310" lon="4.843463">
        <ele>-0.777275</ele>
        <time>2026-08-19T15:20:42.284Z</time>
      </trkpt>
      <trkpt lat="52.070263" lon="4.842818">
        <ele>-0.790215</ele>
        <time>2026-08-19T15:20:50.568Z</time>
      </trkpt>
      <trkpt lat="52.070232" lon="4.842377">
        <ele>-0.799058</ele>
        <time>2026-08-19T15:20:56.182Z</time>
      </trkpt>
      <trkpt lat="52.070183" lon="4.841694">
        <ele>-0.813527</ele>
        <time>2026-08-19T15:21:04.884Z</time>
      </trkpt>
      <trkpt lat="52.070092" lon="4.840766">
        <ele>-0.835427</ele>
        <time>2026-08-19T15:21:16.558Z</time>
      </trkpt>
      <trkpt lat="52.069963" lon="4.839740">
        <ele>-0.859833</ele>
        <time>2026-08-19T15:21:29.466Z</time>
      </trkpt>
      <trkpt lat="52.069922" lon="4.839409">
        <ele>-0.867701</ele>
        <time>2026-08-19T15:21:33.566Z</time>
      </trkpt>
      <trkpt lat="52.069708" lon="4.837972">
        <ele>-0.947325</ele>
        <time>2026-08-19T15:21:46.446Z</time>
      </trkpt>
      <trkpt lat="52.069437" lon="4.836458">
        <ele>-1.048545</ele>
        <time>2026-08-19T15:22:00.297Z</time>
      </trkpt>
      <trkpt lat="52.068944" lon="4.834056">
        <ele>-0.974735</ele>
        <time>2026-08-19T15:22:23.863Z</time>
      </trkpt>
      <trkpt lat="52.068728" lon="4.833126">
        <ele>-0.946391</ele>
        <time>2026-08-19T15:22:33.223Z</time>
      </trkpt>
      <trkpt lat="52.068264" lon="4.830763">
        <ele>-0.922834</ele>
        <time>2026-08-19T15:22:55.929Z</time>
      </trkpt>
      <trkpt lat="52.067983" lon="4.828947">
        <ele>-1.052752</ele>
        <time>2026-08-19T15:23:12.560Z</time>
      </trkpt>
      <trkpt lat="52.067864" lon="4.827910">
        <ele>-1.130102</ele>
        <time>2026-08-19T15:23:21.719Z</time>
      </trkpt>
      <trkpt lat="52.067745" lon="4.826065">
        <ele>-1.325762</ele>
        <time>2026-08-19T15:23:37.662Z</time>
      </trkpt>
      <trkpt lat="52.067741" lon="4.825031">
        <ele>-1.436467</ele>
        <time>2026-08-19T15:23:46.710Z</time>
      </trkpt>
      <trkpt lat="52.067799" lon="4.824478">
        <ele>-1.404224</ele>
        <time>2026-08-19T15:23:51.792Z</time>
      </trkpt>
      <trkpt lat="52.067841" lon="4.824413">
        <ele>-1.394383</ele>
        <time>2026-08-19T15:23:52.673Z</time>
      </trkpt>
      <trkpt lat="52.067917" lon="4.824391">
        <ele>-1.381279</ele>
        <time>2026-08-19T15:23:53.868Z</time>
      </trkpt>
      <trkpt lat="52.068218" lon="4.824478">
        <ele>-1.329382</ele>
        <time>2026-08-19T15:23:58.732Z</time>
      </trkpt>
      <trkpt lat="52.068241" lon="4.824344">
        <ele>-1.314863</ele>
        <time>2026-08-19T15:24:00.114Z</time>
      </trkpt>
      <trkpt lat="52.068257" lon="4.824245">
        <ele>-1.304181</ele>
        <time>2026-08-19T15:24:01.147Z</time>
      </trkpt>
      <trkpt lat="52.068258" lon="4.824091">
        <ele>-1.288110</ele>
        <time>2026-08-19T15:24:02.702Z</time>
      </trkpt>
      <trkpt lat="52.068220" lon="4.824024">
        <ele>-1.278597</ele>
        <time>2026-08-19T15:24:03.619Z</time>
      </trkpt>
      <trkpt lat="52.067929" lon="4.823906">
        <ele>-1.227686</ele>
        <time>2026-08-19T15:24:08.581Z</time>
      </trkpt>
      <trkpt lat="52.067734" lon="4.823698">
        <ele>-1.188102</ele>
        <time>2026-08-19T15:24:12.356Z</time>
      </trkpt>
      <trkpt lat="52.067606" lon="4.823414">
        <ele>-1.151353</ele>
        <time>2026-08-19T15:24:15.740Z</time>
      </trkpt>
      <trkpt lat="52.067485" lon="4.823004">
        <ele>-1.156908</ele>
        <time>2026-08-19T15:24:19.859Z</time>
      </trkpt>
      <trkpt lat="52.067328" lon="4.822686">
        <ele>-1.169979</ele>
        <time>2026-08-19T15:24:23.549Z</time>
      </trkpt>
      <trkpt lat="52.067126" lon="4.822442">
        <ele>-1.183095</ele>
        <time>2026-08-19T15:24:27.186Z</time>
      </trkpt>
      <trkpt lat="52.066941" lon="4.822312">
        <ele>-1.193601</ele>
        <time>2026-08-19T15:24:30.035Z</time>
      </trkpt>
      <trkpt lat="52.066884" lon="4.822261">
        <ele>-1.196992</ele>
        <time>2026-08-19T15:24:30.961Z</time>
      </trkpt>
      <trkpt lat="52.066860" lon="4.822199">
        <ele>-1.199340</ele>
        <time>2026-08-19T15:24:31.599Z</time>
      </trkpt>
      <trkpt lat="52.066846" lon="4.822148">
        <ele>-1.201130</ele>
        <time>2026-08-19T15:24:32.266Z</time>
      </trkpt>
      <trkpt lat="52.066823" lon="4.822051">
        <ele>-1.204462</ele>
        <time>2026-08-19T15:24:33.499Z</time>
      </trkpt>
      <trkpt lat="52.066725" lon="4.821670">
        <ele>-1.217698</ele>
        <time>2026-08-19T15:24:38.412Z</time>
      </trkpt>
      <trkpt lat="52.066310" lon="4.820035">
        <ele>-1.300111</ele>
        <time>2026-08-19T15:25:00.121Z</time>
      </trkpt>
      <trkpt lat="52.065735" lon="4.817794">
        <ele>-1.559993</ele>
        <time>2026-08-19T15:25:30.078Z</time>
      </trkpt>
      <trkpt lat="52.065698" lon="4.817599">
        <ele>-1.612156</ele>
        <time>2026-08-19T15:25:32.413Z</time>
      </trkpt>
      <trkpt lat="52.065735" lon="4.817432">
        <ele>-1.657529</ele>
        <time>2026-08-19T15:25:34.455Z</time>
      </trkpt>
      <trkpt lat="52.065779" lon="4.817361">
        <ele>-1.683298</ele>
        <time>2026-08-19T15:25:35.586Z</time>
      </trkpt>
      <trkpt lat="52.065861" lon="4.817347">
        <ele>-1.717579</ele>
        <time>2026-08-19T15:25:37.143Z</time>
      </trkpt>
      <trkpt lat="52.066188" lon="4.817440">
        <ele>-1.855601</ele>
        <time>2026-08-19T15:25:43.222Z</time>
      </trkpt>
      <trkpt lat="52.066273" lon="4.817419">
        <ele>-1.891348</ele>
        <time>2026-08-19T15:25:44.795Z</time>
      </trkpt>
      <trkpt lat="52.066340" lon="4.817332">
        <ele>-1.926992</ele>
        <time>2026-08-19T15:25:46.340Z</time>
      </trkpt>
      <trkpt lat="52.066468" lon="4.816397">
        <ele>-2.156172</ele>
        <time>2026-08-19T15:25:56.906Z</time>
      </trkpt>
      <trkpt lat="52.066586" lon="4.815424">
        <ele>-2.252864</ele>
        <time>2026-08-19T15:26:08.911Z</time>
      </trkpt>
      <trkpt lat="52.066789" lon="4.813760">
        <ele>-2.418261</ele>
        <time>2026-08-19T15:26:29.909Z</time>
      </trkpt>
      <trkpt lat="52.066948" lon="4.812435">
        <ele>-2.598083</ele>
        <time>2026-08-19T15:26:46.294Z</time>
      </trkpt>
      <trkpt lat="52.066972" lon="4.812235">
        <ele>-2.626058</ele>
        <time>2026-08-19T15:26:48.670Z</time>
      </trkpt>
      <trkpt lat="52.067101" lon="4.811159">
        <ele>-2.776560</ele>
        <time>2026-08-19T15:27:01.452Z</time>
      </trkpt>
      <trkpt lat="52.067202" lon="4.810323">
        <ele>-2.884778</ele>
        <time>2026-08-19T15:27:11.720Z</time>
      </trkpt>
      <trkpt lat="52.067268" lon="4.809769">
        <ele>-2.950970</ele>
        <time>2026-08-19T15:27:18.190Z</time>
      </trkpt>
      <trkpt lat="52.067355" lon="4.809046">
        <ele>-3.037384</ele>
        <time>2026-08-19T15:27:26.691Z</time>
      </trkpt>
      <trkpt lat="52.067446" lon="4.808255">
        <ele>-3.131776</ele>
        <time>2026-08-19T15:27:36.287Z</time>
      </trkpt>
      <trkpt lat="52.067418" lon="4.808097">
        <ele>-3.151063</ele>
        <time>2026-08-19T15:27:38.316Z</time>
      </trkpt>
      <trkpt lat="52.067375" lon="4.808048">
        <ele>-3.161081</ele>
        <time>2026-08-19T15:27:39.339Z</time>
      </trkpt>
      <trkpt lat="52.066302" lon="4.807606">
        <ele>-2.758023</ele>
        <time>2026-08-19T15:28:03.495Z</time>
      </trkpt>
      <trkpt lat="52.066241" lon="4.807554">
        <ele>-2.729904</ele>
        <time>2026-08-19T15:28:05.146Z</time>
      </trkpt>
      <trkpt lat="52.066196" lon="4.807495">
        <ele>-2.706306</ele>
        <time>2026-08-19T15:28:06.497Z</time>
      </trkpt>
      <trkpt lat="52.066138" lon="4.807276">
        <ele>-2.646454</ele>
        <time>2026-08-19T15:28:09.908Z</time>
      </trkpt>
      <trkpt lat="52.066138" lon="4.807142">
        <ele>-2.612820</ele>
        <time>2026-08-19T15:28:11.807Z</time>
      </trkpt>
      <trkpt lat="52.066205" lon="4.806723">
        <ele>-2.504153</ele>
        <time>2026-08-19T15:28:17.803Z</time>
      </trkpt>
      <trkpt lat="52.066209" lon="4.806697">
        <ele>-2.497426</ele>
        <time>2026-08-19T15:28:18.180Z</time>
      </trkpt>
      <trkpt lat="52.066288" lon="4.806202">
        <ele>-2.423681</ele>
        <time>2026-08-19T15:28:25.171Z</time>
      </trkpt>
      <trkpt lat="52.066355" lon="4.805757">
        <ele>-2.394474</ele>
        <time>2026-08-19T15:28:31.390Z</time>
      </trkpt>
      <trkpt lat="52.066438" lon="4.805398">
        <ele>-2.370024</ele>
        <time>2026-08-19T15:28:36.348Z</time>
      </trkpt>
      <trkpt lat="52.066775" lon="4.804042">
        <ele>-2.276785</ele>
        <time>2026-08-19T15:28:53.700Z</time>
      </trkpt>
      <trkpt lat="52.067658" lon="4.800462">
        <ele>-2.180116</ele>
        <time>2026-08-19T15:29:42.184Z</time>
      </trkpt>
      <trkpt lat="52.068233" lon="4.798108">
        <ele>-2.089129</ele>
        <time>2026-08-19T15:30:14.372Z</time>
      </trkpt>
      <trkpt lat="52.068620" lon="4.796511">
        <ele>-2.254389</ele>
        <time>2026-08-19T15:30:35.001Z</time>
      </trkpt>
      <trkpt lat="52.069825" lon="4.791529">
        <ele>-3.092177</ele>
        <time>2026-08-19T15:31:38.719Z</time>
      </trkpt>
      <trkpt lat="52.069878" lon="4.791382">
        <ele>-3.128652</ele>
        <time>2026-08-19T15:31:40.865Z</time>
      </trkpt>
      <trkpt lat="52.070255" lon="4.791570">
        <ele>-3.265948</ele>
        <time>2026-08-19T15:31:45.903Z</time>
      </trkpt>
      <trkpt lat="52.070512" lon="4.791720">
        <ele>-3.361017</ele>
        <time>2026-08-19T15:31:49.400Z</time>
      </trkpt>
      <trkpt lat="52.070903" lon="4.791846">
        <ele>-3.343767</ele>
        <time>2026-08-19T15:31:54.807Z</time>
      </trkpt>
      <trkpt lat="52.071191" lon="4.791928">
        <ele>-3.262642</ele>
        <time>2026-08-19T15:31:59.137Z</time>
      </trkpt>
      <trkpt lat="52.072999" lon="4.792471">
        <ele>-2.653863</ele>
        <time>2026-08-19T15:32:30.330Z</time>
      </trkpt>
      <trkpt lat="52.073311" lon="4.792556">
        <ele>-2.512441</ele>
        <time>2026-08-19T15:32:36.005Z</time>
      </trkpt>
      <trkpt lat="52.073904" lon="4.792742">
        <ele>-2.242459</ele>
        <time>2026-08-19T15:32:45.926Z</time>
      </trkpt>
      <trkpt lat="52.074310" lon="4.792827">
        <ele>-2.090133</ele>
        <time>2026-08-19T15:32:52.106Z</time>
      </trkpt>
      <trkpt lat="52.075163" lon="4.792801">
        <ele>-1.941038</ele>
        <time>2026-08-19T15:33:05.557Z</time>
      </trkpt>
      <trkpt lat="52.075193" lon="4.792794">
        <ele>-1.935741</ele>
        <time>2026-08-19T15:33:06.030Z</time>
      </trkpt>
      <trkpt lat="52.075581" lon="4.792788">
        <ele>-1.867932</ele>
        <time>2026-08-19T15:33:12.026Z</time>
      </trkpt>
      <trkpt lat="52.075716" lon="4.792751">
        <ele>-1.844007</ele>
        <time>2026-08-19T15:33:14.135Z</time>
      </trkpt>
      <trkpt lat="52.077551" lon="4.792621">
        <ele>-1.565630</ele>
        <time>2026-08-19T15:33:41.991Z</time>
      </trkpt>
      <trkpt lat="52.077822" lon="4.792596">
        <ele>-1.523602</ele>
        <time>2026-08-19T15:33:46.488Z</time>
      </trkpt>
      <trkpt lat="52.078101" lon="4.792572">
        <ele>-1.464805</ele>
        <time>2026-08-19T15:33:51.084Z</time>
      </trkpt>
      <trkpt lat="52.078287" lon="4.792518">
        <ele>-1.425043</ele>
        <time>2026-08-19T15:33:54.198Z</time>
      </trkpt>
      <trkpt lat="52.078421" lon="4.792403">
        <ele>-1.393161</ele>
        <time>2026-08-19T15:33:56.692Z</time>
      </trkpt>
      <trkpt lat="52.078617" lon="4.792099">
        <ele>-1.336175</ele>
        <time>2026-08-19T15:34:01.120Z</time>
      </trkpt>
      <trkpt lat="52.079135" lon="4.791217">
        <ele>-1.178388</ele>
        <time>2026-08-19T15:34:12.708Z</time>
      </trkpt>
      <trkpt lat="52.079281" lon="4.791033">
        <ele>-1.150667</ele>
        <time>2026-08-19T15:34:15.360Z</time>
      </trkpt>
      <trkpt lat="52.079490" lon="4.790940">
        <ele>-1.146471</ele>
        <time>2026-08-19T15:34:18.382Z</time>
      </trkpt>
      <trkpt lat="52.079873" lon="4.790904">
        <ele>-1.139041</ele>
        <time>2026-08-19T15:34:23.715Z</time>
      </trkpt>
      <trkpt lat="52.080162" lon="4.790875">
        <ele>-1.133434</ele>
        <time>2026-08-19T15:34:27.821Z</time>
      </trkpt>
      <trkpt lat="52.082021" lon="4.790693">
        <ele>-0.886207</ele>
        <time>2026-08-19T15:34:57.013Z</time>
      </trkpt>
      <trkpt lat="52.082354" lon="4.790659">
        <ele>-0.810118</ele>
        <time>2026-08-19T15:35:02.515Z</time>
      </trkpt>
      <trkpt lat="52.084208" lon="4.790477">
        <ele>-0.532277</ele>
        <time>2026-08-19T15:35:31.571Z</time>
      </trkpt>
      <trkpt lat="52.084559" lon="4.790442">
        <ele>-0.488575</ele>
        <time>2026-08-19T15:35:36.696Z</time>
      </trkpt>
      <trkpt lat="52.084576" lon="4.790440">
        <ele>-0.486457</ele>
        <time>2026-08-19T15:35:36.922Z</time>
      </trkpt>
      <trkpt lat="52.084839" lon="4.790417">
        <ele>-0.508777</ele>
        <time>2026-08-19T15:35:40.626Z</time>
      </trkpt>
      <trkpt lat="52.085005" lon="4.790340">
        <ele>-0.527300</ele>
        <time>2026-08-19T15:35:42.986Z</time>
      </trkpt>
      <trkpt lat="52.084740" lon="4.789544">
        <ele>-0.586999</ele>
        <time>2026-08-19T15:35:50.716Z</time>
      </trkpt>
      <trkpt lat="52.084713" lon="4.789459">
        <ele>-0.593309</ele>
        <time>2026-08-19T15:35:51.581Z</time>
      </trkpt>
      <trkpt lat="52.084487" lon="4.788701">
        <ele>-0.648867</ele>
        <time>2026-08-19T15:35:59.408Z</time>
      </trkpt>
      <trkpt lat="52.084150" lon="4.787608">
        <ele>-0.730550</ele>
        <time>2026-08-19T15:36:10.170Z</time>
      </trkpt>
      <trkpt lat="52.083979" lon="4.787066">
        <ele>-0.771515</ele>
        <time>2026-08-19T15:36:15.545Z</time>
      </trkpt>
      <trkpt lat="52.083694" lon="4.786104">
        <ele>-0.843322</ele>
        <time>2026-08-19T15:36:25.148Z</time>
      </trkpt>
      <trkpt lat="52.083668" lon="4.785948">
        <ele>-0.854190</ele>
        <time>2026-08-19T15:36:26.544Z</time>
      </trkpt>
      <trkpt lat="52.083648" lon="4.785778">
        <ele>-0.865828</ele>
        <time>2026-08-19T15:36:28.031Z</time>
      </trkpt>
      <trkpt lat="52.083619" lon="4.785174">
        <ele>-0.866389</ele>
        <time>2026-08-19T15:36:33.308Z</time>
      </trkpt>
      <trkpt lat="52.083564" lon="4.784829">
        <ele>-0.861595</ele>
        <time>2026-08-19T15:36:36.496Z</time>
      </trkpt>
      <trkpt lat="52.083405" lon="4.784281">
        <ele>-0.853444</ele>
        <time>2026-08-19T15:36:42.190Z</time>
      </trkpt>
      <trkpt lat="52.082886" lon="4.782490">
        <ele>-0.794944</ele>
        <time>2026-08-19T15:37:00.495Z</time>
      </trkpt>
      <trkpt lat="52.082563" lon="4.781032">
        <ele>-0.677922</ele>
        <time>2026-08-19T15:37:14.878Z</time>
      </trkpt>
      <trkpt lat="52.082476" lon="4.780640">
        <ele>-0.646452</ele>
        <time>2026-08-19T15:37:18.935Z</time>
      </trkpt>
      <trkpt lat="52.082392" lon="4.780380">
        <ele>-0.624273</ele>
        <time>2026-08-19T15:37:21.799Z</time>
      </trkpt>
      <trkpt lat="52.082268" lon="4.780130">
        <ele>-0.580053</ele>
        <time>2026-08-19T15:37:24.970Z</time>
      </trkpt>
      <trkpt lat="52.082157" lon="4.779916">
        <ele>-0.525694</ele>
        <time>2026-08-19T15:37:27.758Z</time>
      </trkpt>
      <trkpt lat="52.082137" lon="4.779866">
        <ele>-0.514114</ele>
        <time>2026-08-19T15:37:28.355Z</time>
      </trkpt>
      <trkpt lat="52.082056" lon="4.779606">
        <ele>-0.457530</ele>
        <time>2026-08-19T15:37:31.307Z</time>
      </trkpt>
      <trkpt lat="52.081847" lon="4.778484">
        <ele>-0.229950</ele>
        <time>2026-08-19T15:37:43.447Z</time>
      </trkpt>
      <trkpt lat="52.081815" lon="4.778310">
        <ele>-0.194694</ele>
        <time>2026-08-19T15:37:45.266Z</time>
      </trkpt>
      <trkpt lat="52.081707" lon="4.777726">
        <ele>-0.076310</ele>
        <time>2026-08-19T15:37:51.004Z</time>
      </trkpt>
      <trkpt lat="52.081498" lon="4.776676">
        <ele>-0.011726</ele>
        <time>2026-08-19T15:38:01.279Z</time>
      </trkpt>
      <trkpt lat="52.081294" lon="4.775687">
        <ele>0.024733</ele>
        <time>2026-08-19T15:38:11.052Z</time>
      </trkpt>
      <trkpt lat="52.081221" lon="4.775356">
        <ele>0.037023</ele>
        <time>2026-08-19T15:38:14.335Z</time>
      </trkpt>
      <trkpt lat="52.081207" lon="4.775289">
        <ele>0.039496</ele>
        <time>2026-08-19T15:38:14.992Z</time>
      </trkpt>
      <trkpt lat="52.081138" lon="4.774970">
        <ele>0.051315</ele>
        <time>2026-08-19T15:38:18.064Z</time>
      </trkpt>
      <trkpt lat="52.080925" lon="4.773952">
        <ele>-0.011767</ele>
        <time>2026-08-19T15:38:27.529Z</time>
      </trkpt>
      <trkpt lat="52.080837" lon="4.773523">
        <ele>-0.046961</ele>
        <time>2026-08-19T15:38:31.459Z</time>
      </trkpt>
      <trkpt lat="52.080833" lon="4.773494">
        <ele>-0.049274</ele>
        <time>2026-08-19T15:38:31.727Z</time>
      </trkpt>
      <trkpt lat="52.080806" lon="4.773331">
        <ele>-0.062411</ele>
        <time>2026-08-19T15:38:33.181Z</time>
      </trkpt>
      <trkpt lat="52.080799" lon="4.773290">
        <ele>-0.065722</ele>
        <time>2026-08-19T15:38:33.536Z</time>
      </trkpt>
      <trkpt lat="52.080725" lon="4.772804">
        <ele>-0.104685</ele>
        <time>2026-08-19T15:38:37.846Z</time>
      </trkpt>
      <trkpt lat="52.080683" lon="4.772569">
        <ele>-0.123730</ele>
        <time>2026-08-19T15:38:39.996Z</time>
      </trkpt>
      <trkpt lat="52.080637" lon="4.772307">
        <ele>-0.144934</ele>
        <time>2026-08-19T15:38:42.398Z</time>
      </trkpt>
      <trkpt lat="52.080613" lon="4.772172">
        <ele>-0.155870</ele>
        <time>2026-08-19T15:38:43.636Z</time>
      </trkpt>
      <trkpt lat="52.080504" lon="4.771422">
        <ele>-0.184613</ele>
        <time>2026-08-19T15:38:50.379Z</time>
      </trkpt>
      <trkpt lat="52.080412" lon="4.770689">
        <ele>-0.203125</ele>
        <time>2026-08-19T15:38:56.902Z</time>
      </trkpt>
      <trkpt lat="52.080299" lon="4.769563">
        <ele>-0.231355</ele>
        <time>2026-08-19T15:39:07.352Z</time>
      </trkpt>
      <trkpt lat="52.080233" lon="4.768904">
        <ele>-0.225595</ele>
        <time>2026-08-19T15:39:13.757Z</time>
      </trkpt>
      <trkpt lat="52.080223" lon="4.768791">
        <ele>-0.216773</ele>
        <time>2026-08-19T15:39:14.812Z</time>
      </trkpt>
      <trkpt lat="52.080157" lon="4.767955">
        <ele>-0.151645</ele>
        <time>2026-08-19T15:39:22.605Z</time>
      </trkpt>
      <trkpt lat="52.080132" lon="4.767562">
        <ele>-0.121116</ele>
        <time>2026-08-19T15:39:26.410Z</time>
      </trkpt>
      <trkpt lat="52.080123" lon="4.767422">
        <ele>-0.110240</ele>
        <time>2026-08-19T15:39:27.758Z</time>
      </trkpt>
      <trkpt lat="52.080093" lon="4.766926">
        <ele>-0.071729</ele>
        <time>2026-08-19T15:39:32.813Z</time>
      </trkpt>
      <trkpt lat="52.080064" lon="4.766154">
        <ele>-0.017817</ele>
        <time>2026-08-19T15:39:40.182Z</time>
      </trkpt>
      <trkpt lat="52.080043" lon="4.765572">
        <ele>-0.033221</ele>
        <time>2026-08-19T15:39:45.154Z</time>
      </trkpt>
      <trkpt lat="52.080036" lon="4.765213">
        <ele>-0.042711</ele>
        <time>2026-08-19T15:39:48.159Z</time>
      </trkpt>
      <trkpt lat="52.080030" lon="4.764250">
        <ele>-0.068157</ele>
        <time>2026-08-19T15:39:56.843Z</time>
      </trkpt>
      <trkpt lat="52.080042" lon="4.763637">
        <ele>-0.084362</ele>
        <time>2026-08-19T15:40:02.485Z</time>
      </trkpt>
      <trkpt lat="52.080102" lon="4.762698">
        <ele>-0.043479</ele>
        <time>2026-08-19T15:40:11.263Z</time>
      </trkpt>
      <trkpt lat="52.080168" lon="4.762253">
        <ele>-0.004699</ele>
        <time>2026-08-19T15:40:15.454Z</time>
      </trkpt>
      <trkpt lat="52.080301" lon="4.761359">
        <ele>0.073221</ele>
        <time>2026-08-19T15:40:24.349Z</time>
      </trkpt>
      <trkpt lat="52.080318" lon="4.761258">
        <ele>0.082092</ele>
        <time>2026-08-19T15:40:25.362Z</time>
      </trkpt>
      <trkpt lat="52.080329" lon="4.761152">
        <ele>0.091199</ele>
        <time>2026-08-19T15:40:26.764Z</time>
      </trkpt>
      <trkpt lat="52.080458" lon="4.761199">
        <ele>0.109421</ele>
        <time>2026-08-19T15:40:28.797Z</time>
      </trkpt>
      <trkpt lat="52.080498" lon="4.761228">
        <ele>0.115457</ele>
        <time>2026-08-19T15:40:29.468Z</time>
      </trkpt>
      <trkpt lat="52.080522" lon="4.761252">
        <ele>0.119340</ele>
        <time>2026-08-19T15:40:30.021Z</time>
      </trkpt>
      <trkpt lat="52.080576" lon="4.761324">
        <ele>0.128963</ele>
        <time>2026-08-19T15:40:31.456Z</time>
      </trkpt>
      <trkpt lat="52.080842" lon="4.761441">
        <ele>0.165101</ele>
        <time>2026-08-19T15:40:37.122Z</time>
      </trkpt>
      <trkpt lat="52.081309" lon="4.761566">
        <ele>0.220845</ele>
        <time>2026-08-19T15:40:47.003Z</time>
      </trkpt>
      <trkpt lat="52.081392" lon="4.761554">
        <ele>0.230659</ele>
        <time>2026-08-19T15:40:48.756Z</time>
      </trkpt>
      <trkpt lat="52.081449" lon="4.761427">
        <ele>0.242042</ele>
        <time>2026-08-19T15:40:50.757Z</time>
      </trkpt>
      <trkpt lat="52.081533" lon="4.761426">
        <ele>0.251936</ele>
        <time>2026-08-19T15:40:52.473Z</time>
      </trkpt>
      <trkpt lat="52.081624" lon="4.761435">
        <ele>0.262674</ele>
        <time>2026-08-19T15:40:54.336Z</time>
      </trkpt>
      <trkpt lat="52.081574" lon="4.760783">
        <ele>0.310233</ele>
        <time>2026-08-19T15:41:02.707Z</time>
      </trkpt>
      <trkpt lat="52.081712" lon="4.760226">
        <ele>0.353702</ele>
        <time>2026-08-19T15:41:08.458Z</time>
      </trkpt>
      <trkpt lat="52.081742" lon="4.760104">
        <ele>0.363214</ele>
        <time>2026-08-19T15:41:09.678Z</time>
      </trkpt>
      <trkpt lat="52.081859" lon="4.759636">
        <ele>0.373263</ele>
        <time>2026-08-19T15:41:14.404Z</time>
      </trkpt>
      <trkpt lat="52.081907" lon="4.759443">
        <ele>0.376460</ele>
        <time>2026-08-19T15:41:16.343Z</time>
      </trkpt>
      <trkpt lat="52.082142" lon="4.758693">
        <ele>0.389387</ele>
        <time>2026-08-19T15:41:24.011Z</time>
      </trkpt>
      <trkpt lat="52.082237" lon="4.758389">
        <ele>0.394624</ele>
        <time>2026-08-19T15:41:27.028Z</time>
      </trkpt>
      <trkpt lat="52.082352" lon="4.758037">
        <ele>0.400745</ele>
        <time>2026-08-19T15:41:30.754Z</time>
      </trkpt>
      <trkpt lat="52.082453" lon="4.757739">
        <ele>0.405971</ele>
        <time>2026-08-19T15:41:34.004Z</time>
      </trkpt>
      <trkpt lat="52.082593" lon="4.757613">
        <ele>0.409969</ele>
        <time>2026-08-19T15:41:37.297Z</time>
      </trkpt>
      <trkpt lat="52.082762" lon="4.757689">
        <ele>0.362672</ele>
        <time>2026-08-19T15:41:40.794Z</time>
      </trkpt>
      <trkpt lat="52.082795" lon="4.757567">
        <ele>0.332522</ele>
        <time>2026-08-19T15:41:42.400Z</time>
      </trkpt>
      <trkpt lat="52.082841" lon="4.757387">
        <ele>0.288428</ele>
        <time>2026-08-19T15:41:44.699Z</time>
      </trkpt>
      <trkpt lat="52.083214" lon="4.757626">
        <ele>0.140878</ele>
        <time>2026-08-19T15:41:52.320Z</time>
      </trkpt>
      <trkpt lat="52.083302" lon="4.757683">
        <ele>0.106017</ele>
        <time>2026-08-19T15:41:54.120Z</time>
      </trkpt>
      <trkpt lat="52.084120" lon="4.758205">
        <ele>-0.217387</ele>
        <time>2026-08-19T15:42:10.221Z</time>
      </trkpt>
      <trkpt lat="52.084352" lon="4.758280">
        <ele>-0.260267</ele>
        <time>2026-08-19T15:42:14.607Z</time>
      </trkpt>
      <trkpt lat="52.084832" lon="4.758533">
        <ele>-0.292572</ele>
        <time>2026-08-19T15:42:21.596Z</time>
      </trkpt>
      <trkpt lat="52.085937" lon="4.759209">
        <ele>-0.362987</ele>
        <time>2026-08-19T15:42:39.582Z</time>
      </trkpt>
      <trkpt lat="52.086203" lon="4.759236">
        <ele>-0.336615</ele>
        <time>2026-08-19T15:42:43.882Z</time>
      </trkpt>
      <trkpt lat="52.086327" lon="4.759209">
        <ele>-0.324235</ele>
        <time>2026-08-19T15:42:45.869Z</time>
      </trkpt>
      <trkpt lat="52.086425" lon="4.759147">
        <ele>-0.313831</ele>
        <time>2026-08-19T15:42:47.533Z</time>
      </trkpt>
      <trkpt lat="52.086624" lon="4.758881">
        <ele>-0.288348</ele>
        <time>2026-08-19T15:42:51.544Z</time>
      </trkpt>
      <trkpt lat="52.086794" lon="4.758512">
        <ele>-0.260306</ele>
        <time>2026-08-19T15:42:55.865Z</time>
      </trkpt>
      <trkpt lat="52.087401" lon="4.756984">
        <ele>-0.084324</ele>
        <time>2026-08-19T15:43:12.460Z</time>
      </trkpt>
      <trkpt lat="52.087480" lon="4.756680">
        <ele>-0.030164</ele>
        <time>2026-08-19T15:43:15.493Z</time>
      </trkpt>
      <trkpt lat="52.087554" lon="4.756397">
        <ele>0.020302</ele>
        <time>2026-08-19T15:43:18.394Z</time>
      </trkpt>
      <trkpt lat="52.087733" lon="4.756022">
        <ele>0.098219</ele>
        <time>2026-08-19T15:43:24.601Z</time>
      </trkpt>
      <trkpt lat="52.088073" lon="4.755160">
        <ele>0.266294</ele>
        <time>2026-08-19T15:43:38.428Z</time>
      </trkpt>
      <trkpt lat="52.088374" lon="4.754393">
        <ele>0.414363</ele>
        <time>2026-08-19T15:43:51.138Z</time>
      </trkpt>
      <trkpt lat="52.088850" lon="4.752733">
        <ele>0.711869</ele>
        <time>2026-08-19T15:44:15.174Z</time>
      </trkpt>
      <trkpt lat="52.089070" lon="4.752081">
        <ele>0.652069</ele>
        <time>2026-08-19T15:44:24.058Z</time>
      </trkpt>
      <trkpt lat="52.089245" lon="4.751579">
        <ele>0.485748</ele>
        <time>2026-08-19T15:44:30.744Z</time>
      </trkpt>
      <trkpt lat="52.089436" lon="4.751121">
        <ele>0.326239</ele>
        <time>2026-08-19T15:44:36.805Z</time>
      </trkpt>
      <trkpt lat="52.089497" lon="4.750863">
        <ele>0.246578</ele>
        <time>2026-08-19T15:44:39.841Z</time>
      </trkpt>
      <trkpt lat="52.089510" lon="4.750535">
        <ele>0.151863</ele>
        <time>2026-08-19T15:44:43.500Z</time>
      </trkpt>
      <trkpt lat="52.089590" lon="4.750399">
        <ele>0.097608</ele>
        <time>2026-08-19T15:44:45.630Z</time>
      </trkpt>
      <trkpt lat="52.089644" lon="4.750305">
        <ele>0.060525</ele>
        <time>2026-08-19T15:44:47.091Z</time>
      </trkpt>
      <trkpt lat="52.089691" lon="4.750283">
        <ele>0.037589</ele>
        <time>2026-08-19T15:44:47.994Z</time>
      </trkpt>
      <trkpt lat="52.089786" lon="4.750369">
        <ele>-0.013394</ele>
        <time>2026-08-19T15:44:50.028Z</time>
      </trkpt>
      <trkpt lat="52.089889" lon="4.750335">
        <ele>-0.062684</ele>
        <time>2026-08-19T15:44:51.991Z</time>
      </trkpt>
      <trkpt lat="52.089915" lon="4.750326">
        <ele>-0.075151</ele>
        <time>2026-08-19T15:44:52.496Z</time>
      </trkpt>
      <trkpt lat="52.090849" lon="4.748943">
        <ele>-0.389570</ele>
        <time>2026-08-19T15:45:16.475Z</time>
      </trkpt>
      <trkpt lat="52.091318" lon="4.748252">
        <ele>-0.513651</ele>
        <time>2026-08-19T15:45:29.355Z</time>
      </trkpt>
      <trkpt lat="52.091322" lon="4.748244">
        <ele>-0.513007</ele>
        <time>2026-08-19T15:45:29.476Z</time>
      </trkpt>
      <trkpt lat="52.091532" lon="4.747826">
        <ele>-0.479290</ele>
        <time>2026-08-19T15:45:36.181Z</time>
      </trkpt>
      <trkpt lat="52.091603" lon="4.747397">
        <ele>-0.451546</ele>
        <time>2026-08-19T15:45:41.769Z</time>
      </trkpt>
      <trkpt lat="52.091591" lon="4.746927">
        <ele>-0.422172</ele>
        <time>2026-08-19T15:45:47.729Z</time>
      </trkpt>
      <trkpt lat="52.091544" lon="4.746669">
        <ele>-0.405368</ele>
        <time>2026-08-19T15:45:51.140Z</time>
      </trkpt>
      <trkpt lat="52.091447" lon="4.746425">
        <ele>-0.387220</ele>
        <time>2026-08-19T15:45:54.856Z</time>
      </trkpt>
      <trkpt lat="52.090690" lon="4.744700">
        <ele>-0.139456</ele>
        <time>2026-08-19T15:46:22.363Z</time>
      </trkpt>
      <trkpt lat="52.090264" lon="4.743887">
        <ele>0.017166</ele>
        <time>2026-08-19T15:46:36.188Z</time>
      </trkpt>
      <trkpt lat="52.090034" lon="4.743360">
        <ele>0.096605</ele>
        <time>2026-08-19T15:46:44.680Z</time>
      </trkpt>
      <trkpt lat="52.090116" lon="4.743244">
        <ele>0.105495</ele>
        <time>2026-08-19T15:46:47.003Z</time>
      </trkpt>
      <trkpt lat="52.090168" lon="4.743167">
        <ele>0.111248</ele>
        <time>2026-08-19T15:46:48.516Z</time>
      </trkpt>
      <trkpt lat="52.090240" lon="4.743025">
        <ele>0.120504</ele>
        <time>2026-08-19T15:46:50.991Z</time>
      </trkpt>
      <trkpt lat="52.090219" lon="4.742768">
        <ele>0.133538</ele>
        <time>2026-08-19T15:46:54.494Z</time>
      </trkpt>
      <trkpt lat="52.090331" lon="4.742455">
        <ele>0.151749</ele>
        <time>2026-08-19T15:46:59.259Z</time>
      </trkpt>
      <trkpt lat="52.090332" lon="4.742209">
        <ele>0.164117</ele>
        <time>2026-08-19T15:47:02.431Z</time>
      </trkpt>
      <trkpt lat="52.090221" lon="4.741927">
        <ele>0.180954</ele>
        <time>2026-08-19T15:47:06.615Z</time>
      </trkpt>
      <trkpt lat="52.090113" lon="4.741770">
        <ele>0.192803</ele>
        <time>2026-08-19T15:47:09.459Z</time>
      </trkpt>
      <trkpt lat="52.089974" lon="4.741306">
        <ele>0.218756</ele>
        <time>2026-08-19T15:47:14.052Z</time>
      </trkpt>
      <trkpt lat="52.089790" lon="4.740432">
        <ele>0.028111</ele>
        <time>2026-08-19T15:47:21.990Z</time>
      </trkpt>
      <trkpt lat="52.089773" lon="4.740343">
        <ele>-0.004967</ele>
        <time>2026-08-19T15:47:22.737Z</time>
      </trkpt>
      <trkpt lat="52.089723" lon="4.740088">
        <ele>-0.099965</ele>
        <time>2026-08-19T15:47:24.872Z</time>
      </trkpt>
      <trkpt lat="52.089716" lon="4.739994">
        <ele>-0.133571</ele>
        <time>2026-08-19T15:47:25.631Z</time>
      </trkpt>
      <trkpt lat="52.089759" lon="4.739864">
        <ele>-0.185970</ele>
        <time>2026-08-19T15:47:26.775Z</time>
      </trkpt>
      <trkpt lat="52.089833" lon="4.739791">
        <ele>-0.235953</ele>
        <time>2026-08-19T15:47:27.864Z</time>
      </trkpt>
      <trkpt lat="52.089970" lon="4.739712">
        <ele>-0.319908</ele>
        <time>2026-08-19T15:47:29.651Z</time>
      </trkpt>
      <trkpt lat="52.090177" lon="4.739621">
        <ele>-0.443762</ele>
        <time>2026-08-19T15:47:32.259Z</time>
      </trkpt>
      <trkpt lat="52.090680" lon="4.739467">
        <ele>-0.739405</ele>
        <time>2026-08-19T15:47:38.781Z</time>
      </trkpt>
      <trkpt lat="52.091221" lon="4.739324">
        <ele>-0.836020</ele>
        <time>2026-08-19T15:47:46.221Z</time>
      </trkpt>
      <trkpt lat="52.092370" lon="4.739100">
        <ele>-0.922899</ele>
        <time>2026-08-19T15:48:03.865Z</time>
      </trkpt>
      <trkpt lat="52.092712" lon="4.739022">
        <ele>-0.939832</ele>
        <time>2026-08-19T15:48:09.053Z</time>
      </trkpt>
      <trkpt lat="52.092837" lon="4.739009">
        <ele>-0.941282</ele>
        <time>2026-08-19T15:48:10.913Z</time>
      </trkpt>
      <trkpt lat="52.093580" lon="4.738947">
        <ele>-0.949893</ele>
        <time>2026-08-19T15:48:21.668Z</time>
      </trkpt>
      <trkpt lat="52.094654" lon="4.738885">
        <ele>-0.895709</ele>
        <time>2026-08-19T15:48:37.637Z</time>
      </trkpt>
      <trkpt lat="52.096193" lon="4.738688">
        <ele>-0.569077</ele>
        <time>2026-08-19T15:49:02.646Z</time>
      </trkpt>
      <trkpt lat="52.097414" lon="4.738593">
        <ele>-0.834066</ele>
        <time>2026-08-19T15:49:19.561Z</time>
      </trkpt>
      <trkpt lat="52.097677" lon="4.738650">
        <ele>-0.891581</ele>
        <time>2026-08-19T15:49:23.116Z</time>
      </trkpt>
      <trkpt lat="52.097744" lon="4.738760">
        <ele>-0.912210</ele>
        <time>2026-08-19T15:49:24.393Z</time>
      </trkpt>
      <trkpt lat="52.097804" lon="4.738755">
        <ele>-0.925234</ele>
        <time>2026-08-19T15:49:25.202Z</time>
      </trkpt>
      <trkpt lat="52.097850" lon="4.738696">
        <ele>-0.937929</ele>
        <time>2026-08-19T15:49:25.994Z</time>
      </trkpt>
      <trkpt lat="52.097866" lon="4.738604">
        <ele>-0.950662</ele>
        <time>2026-08-19T15:49:26.810Z</time>
      </trkpt>
      <trkpt lat="52.098075" lon="4.738431">
        <ele>-0.955739</ele>
        <time>2026-08-19T15:49:30.093Z</time>
      </trkpt>
      <trkpt lat="52.098818" lon="4.738047">
        <ele>-0.968353</ele>
        <time>2026-08-19T15:49:41.862Z</time>
      </trkpt>
      <trkpt lat="52.099365" lon="4.737637">
        <ele>-0.978098</ele>
        <time>2026-08-19T15:49:50.925Z</time>
      </trkpt>
      <trkpt lat="52.099384" lon="4.737617">
        <ele>-0.978464</ele>
        <time>2026-08-19T15:49:51.262Z</time>
      </trkpt>
      <trkpt lat="52.099571" lon="4.737442">
        <ele>-0.978929</ele>
        <time>2026-08-19T15:49:54.511Z</time>
      </trkpt>
      <trkpt lat="52.100512" lon="4.736713">
        <ele>-0.932100</ele>
        <time>2026-08-19T15:50:10.244Z</time>
      </trkpt>
      <trkpt lat="52.101474" lon="4.735757">
        <ele>-0.889730</ele>
        <time>2026-08-19T15:50:27.034Z</time>
      </trkpt>
      <trkpt lat="52.101672" lon="4.735553">
        <ele>-0.883817</ele>
        <time>2026-08-19T15:50:30.583Z</time>
      </trkpt>
      <trkpt lat="52.103805" lon="4.733309">
        <ele>-0.748899</ele>
        <time>2026-08-19T15:51:08.355Z</time>
      </trkpt>
      <trkpt lat="52.104414" lon="4.732838">
        <ele>-0.675961</ele>
        <time>2026-08-19T15:51:18.898Z</time>
      </trkpt>
      <trkpt lat="52.104684" lon="4.732569">
        <ele>-0.626553</ele>
        <time>2026-08-19T15:51:23.845Z</time>
      </trkpt>
      <trkpt lat="52.105155" lon="4.732006">
        <ele>-0.535349</ele>
        <time>2026-08-19T15:51:32.910Z</time>
      </trkpt>
      <trkpt lat="52.105402" lon="4.731827">
        <ele>-0.493149</ele>
        <time>2026-08-19T15:51:37.169Z</time>
      </trkpt>
      <trkpt lat="52.105908" lon="4.731604">
        <ele>-0.441740</ele>
        <time>2026-08-19T15:51:45.115Z</time>
      </trkpt>
      <trkpt lat="52.106183" lon="4.731487">
        <ele>-0.448919</ele>
        <time>2026-08-19T15:51:49.460Z</time>
      </trkpt>
      <trkpt lat="52.106350" lon="4.731416">
        <ele>-0.453278</ele>
        <time>2026-08-19T15:51:52.129Z</time>
      </trkpt>
      <trkpt lat="52.106497" lon="4.731306">
        <ele>-0.457364</ele>
        <time>2026-08-19T15:51:54.646Z</time>
      </trkpt>
      <trkpt lat="52.106581" lon="4.731333">
        <ele>-0.459526</ele>
        <time>2026-08-19T15:51:55.978Z</time>
      </trkpt>
      <trkpt lat="52.106828" lon="4.731272">
        <ele>-0.465836</ele>
        <time>2026-08-19T15:51:59.771Z</time>
      </trkpt>
      <trkpt lat="52.106934" lon="4.731240">
        <ele>-0.468559</ele>
        <time>2026-08-19T15:52:01.383Z</time>
      </trkpt>
      <trkpt lat="52.107124" lon="4.731172">
        <ele>-0.473472</ele>
        <time>2026-08-19T15:52:04.251Z</time>
      </trkpt>
      <trkpt lat="52.107169" lon="4.731140">
        <ele>-0.474713</ele>
        <time>2026-08-19T15:52:04.955Z</time>
      </trkpt>
      <trkpt lat="52.107274" lon="4.731076">
        <ele>-0.477544</ele>
        <time>2026-08-19T15:52:06.538Z</time>
      </trkpt>
      <trkpt lat="52.107356" lon="4.731007">
        <ele>-0.479876</ele>
        <time>2026-08-19T15:52:07.820Z</time>
      </trkpt>
      <trkpt lat="52.107444" lon="4.731211">
        <ele>-0.497738</ele>
        <time>2026-08-19T15:52:10.729Z</time>
      </trkpt>
      <trkpt lat="52.107459" lon="4.731361">
        <ele>-0.540782</ele>
        <time>2026-08-19T15:52:11.967Z</time>
      </trkpt>
      <trkpt lat="52.107444" lon="4.733098">
        <ele>-1.032801</ele>
        <time>2026-08-19T15:52:25.979Z</time>
      </trkpt>
      <trkpt lat="52.107512" lon="4.734156">
        <ele>-1.319277</ele>
        <time>2026-08-19T15:52:34.499Z</time>
      </trkpt>
      <trkpt lat="52.107611" lon="4.735120">
        <ele>-1.407244</ele>
        <time>2026-08-19T15:52:42.894Z</time>
      </trkpt>
      <trkpt lat="52.107635" lon="4.735669">
        <ele>-1.456780</ele>
        <time>2026-08-19T15:52:47.806Z</time>
      </trkpt>
      <trkpt lat="52.107633" lon="4.736101">
        <ele>-1.495662</ele>
        <time>2026-08-19T15:52:51.737Z</time>
      </trkpt>
      <trkpt lat="52.107587" lon="4.736580">
        <ele>-1.539297</ele>
        <time>2026-08-19T15:52:56.175Z</time>
      </trkpt>
      <trkpt lat="52.107474" lon="4.737223">
        <ele>-1.563893</ele>
        <time>2026-08-19T15:53:02.345Z</time>
      </trkpt>
      <trkpt lat="52.107227" lon="4.738135">
        <ele>-1.517949</ele>
        <time>2026-08-19T15:53:11.557Z</time>
      </trkpt>
      <trkpt lat="52.106915" lon="4.738789">
        <ele>-1.479778</ele>
        <time>2026-08-19T15:53:19.247Z</time>
      </trkpt>
      <trkpt lat="52.106881" lon="4.739003">
        <ele>-1.469589</ele>
        <time>2026-08-19T15:53:21.325Z</time>
      </trkpt>
      <trkpt lat="52.106895" lon="4.739257">
        <ele>-1.457833</ele>
        <time>2026-08-19T15:53:23.724Z</time>
      </trkpt>
      <trkpt lat="52.106943" lon="4.739444">
        <ele>-1.448491</ele>
        <time>2026-08-19T15:53:25.644Z</time>
      </trkpt>
      <trkpt lat="52.107042" lon="4.739630">
        <ele>-1.440016</ele>
        <time>2026-08-19T15:53:27.969Z</time>
      </trkpt>
      <trkpt lat="52.107173" lon="4.739788">
        <ele>-1.436984</ele>
        <time>2026-08-19T15:53:30.504Z</time>
      </trkpt>
      <trkpt lat="52.108960" lon="4.741480">
        <ele>-1.543008</ele>
        <time>2026-08-19T15:54:01.296Z</time>
      </trkpt>
      <trkpt lat="52.109102" lon="4.741628">
        <ele>-1.590364</ele>
        <time>2026-08-19T15:54:03.585Z</time>
      </trkpt>
      <trkpt lat="52.109294" lon="4.741829">
        <ele>-1.654476</ele>
        <time>2026-08-19T15:54:06.625Z</time>
      </trkpt>
      <trkpt lat="52.110816" lon="4.743337">
        <ele>-2.163646</ele>
        <time>2026-08-19T15:54:30.463Z</time>
      </trkpt>
      <trkpt lat="52.112015" lon="4.744580">
        <ele>-2.530907</ele>
        <time>2026-08-19T15:54:50.941Z</time>
      </trkpt>
      <trkpt lat="52.113439" lon="4.746142">
        <ele>-2.786675</ele>
        <time>2026-08-19T15:55:15.018Z</time>
      </trkpt>
      <trkpt lat="52.117937" lon="4.750760">
        <ele>-2.765950</ele>
        <time>2026-08-19T15:56:34.458Z</time>
      </trkpt>
      <trkpt lat="52.118419" lon="4.751222">
        <ele>-2.852573</ele>
        <time>2026-08-19T15:56:43.000Z</time>
      </trkpt>
      <trkpt lat="52.119023" lon="4.751823">
        <ele>-2.962200</ele>
        <time>2026-08-19T15:56:53.225Z</time>
      </trkpt>
      <trkpt lat="52.119231" lon="4.752168">
        <ele>-3.048529</ele>
        <time>2026-08-19T15:56:57.048Z</time>
      </trkpt>
      <trkpt lat="52.119315" lon="4.752332">
        <ele>-3.127624</ele>
        <time>2026-08-19T15:56:58.668Z</time>
      </trkpt>
      <trkpt lat="52.119360" lon="4.752421">
        <ele>-3.170323</ele>
        <time>2026-08-19T15:56:59.526Z</time>
      </trkpt>
      <trkpt lat="52.119562" lon="4.752656">
        <ele>-3.320053</ele>
        <time>2026-08-19T15:57:02.559Z</time>
      </trkpt>
      <trkpt lat="52.120280" lon="4.753351">
        <ele>-3.823835</ele>
        <time>2026-08-19T15:57:12.886Z</time>
      </trkpt>
      <trkpt lat="52.120402" lon="4.753470">
        <ele>-3.909608</ele>
        <time>2026-08-19T15:57:14.681Z</time>
      </trkpt>
      <trkpt lat="52.122993" lon="4.755552">
        <ele>-3.551214</ele>
        <time>2026-08-19T15:58:00.375Z</time>
      </trkpt>
      <trkpt lat="52.124118" lon="4.756225">
        <ele>-3.299658</ele>
        <time>2026-08-19T15:58:19.145Z</time>
      </trkpt>
      <trkpt lat="52.124840" lon="4.756611">
        <ele>-3.154659</ele>
        <time>2026-08-19T15:58:30.831Z</time>
      </trkpt>
      <trkpt lat="52.124999" lon="4.756649">
        <ele>-3.123995</ele>
        <time>2026-08-19T15:58:33.349Z</time>
      </trkpt>
      <trkpt lat="52.125397" lon="4.756862">
        <ele>-3.044058</ele>
        <time>2026-08-19T15:58:39.953Z</time>
      </trkpt>
      <trkpt lat="52.127825" lon="4.758263">
        <ele>-2.339281</ele>
        <time>2026-08-19T15:59:21.691Z</time>
      </trkpt>
      <trkpt lat="52.128032" lon="4.758361">
        <ele>-2.320988</ele>
        <time>2026-08-19T15:59:24.950Z</time>
      </trkpt>
      <trkpt lat="52.129296" lon="4.759162">
        <ele>-2.178507</ele>
        <time>2026-08-19T15:59:44.543Z</time>
      </trkpt>
      <trkpt lat="52.130284" lon="4.759698">
        <ele>-1.995282</ele>
        <time>2026-08-19T16:00:00.349Z</time>
      </trkpt>
      <trkpt lat="52.130923" lon="4.759967">
        <ele>-1.785393</ele>
        <time>2026-08-19T16:00:11.395Z</time>
      </trkpt>
      <trkpt lat="52.131376" lon="4.759961">
        <ele>-1.496799</ele>
        <time>2026-08-19T16:00:19.515Z</time>
      </trkpt>
      <trkpt lat="52.131442" lon="4.760116">
        <ele>-1.423030</ele>
        <time>2026-08-19T16:00:22.237Z</time>
      </trkpt>
      <trkpt lat="52.131498" lon="4.760249">
        <ele>-1.359960</ele>
        <time>2026-08-19T16:00:24.587Z</time>
      </trkpt>
      <trkpt lat="52.131576" lon="4.760434">
        <ele>-1.272194</ele>
        <time>2026-08-19T16:00:27.809Z</time>
      </trkpt>
      <trkpt lat="52.131623" lon="4.760546">
        <ele>-1.219140</ele>
        <time>2026-08-19T16:00:29.699Z</time>
      </trkpt>
      <trkpt lat="52.131684" lon="4.760692">
        <ele>-1.150076</ele>
        <time>2026-08-19T16:00:32.234Z</time>
      </trkpt>
      <trkpt lat="52.131736" lon="4.760815">
        <ele>-1.091672</ele>
        <time>2026-08-19T16:00:34.363Z</time>
      </trkpt>
      <trkpt lat="52.131913" lon="4.761236">
        <ele>-0.892127</ele>
        <time>2026-08-19T16:00:41.521Z</time>
      </trkpt>
      <trkpt lat="52.132068" lon="4.761606">
        <ele>-0.769105</ele>
        <time>2026-08-19T16:00:47.716Z</time>
      </trkpt>
      <trkpt lat="52.132129" lon="4.761750">
        <ele>-0.769105</ele>
        <time>2026-08-19T16:00:50.056Z</time>
      </trkpt>
      <trkpt lat="52.132219" lon="4.761967">
        <ele>-0.769105</ele>
        <time>2026-08-19T16:00:53.535Z</time>
      </trkpt>
      <trkpt lat="52.132380" lon="4.762353">
        <ele>-0.769105</ele>
        <time>2026-08-19T16:00:59.735Z</time>
      </trkpt>
      <trkpt lat="52.132495" lon="4.762599">
        <ele>-0.769105</ele>
        <time>2026-08-19T16:01:03.696Z</time>
      </trkpt>
      <trkpt lat="52.132551" lon="4.762695">
        <ele>-0.769105</ele>
        <time>2026-08-19T16:01:05.355Z</time>
      </trkpt>
      <trkpt lat="52.132664" lon="4.762868">
        <ele>-0.769105</ele>
        <time>2026-08-19T16:01:08.485Z</time>
      </trkpt>
    </trkseg>
  </trk>
</gpx>